[[{"header":{"parameterUnit":"m.s-1","parameterCategory":1,"la1":30.6,"la2":29.2853,"lo1":-89.7004,"lo2":-87.6739,"dy":0.0162,"dx":0.0183,"nx":112,"ny":82,"refTime":"2024-03-31T12:00:00:Z","depth":0,"parameterNumber":2,"parameterNumberName":"U-component_of_WINDS"},"data":[0.0,0.0,0.0,0.0,0.0,0.0,0.0,0.0,0.0,0.0,0.0,0.0,0.0,0.0,0.0,0.0,0.0,0.0,0.0,0.0,0.0,0.0,0.0,0.0,0.0,0.0,0.0,0.0,0.0,0.0,0.0,0.0,0.0,0.0,0.0,0.0,0.0,0.0,0.0,0.0,0.0,0.0,0.0,0.0,0.0,0.0,0.0,0.0,0.0,0.0,0.0,0.0,0.0,0.0,0.0,0.0,0.0,0.0,0.0,0.0,0.0,0.0,0.0,0.0,0.0,0.0,0.0,0.0,0.0,0.0,0.0,0.0,0.0,0.0,0.0,0.0,0.0,0.0,0.0,0.0,0.0,0.0,0.0,0.0,0.0,0.0,0.0,0.0,0.0,0.0,-5.0978,-5.3267,-5.7669,-6.0228,-5.9641,-6.0137,-5.8126,-5.2655,0.0,0.0,0.0,0.0,0.0,0.0,0.0,0.0,0.0,0.0,0.0,0.0,0.0,0.0,0.0,0.0,0.0,0.0,0.0,0.0,0.0,0.0,0.0,0.0,0.0,0.0,0.0,0.0,0.0,0.0,0.0,0.0,0.0,0.0,0.0,0.0,0.0,0.0,0.0,0.0,0.0,0.0,0.0,0.0,0.0,0.0,0.0,0.0,0.0,0.0,0.0,0.0,0.0,0.0,0.0,0.0,0.0,0.0,0.0,0.0,0.0,0.0,0.0,0.0,0.0,0.0,0.0,0.0,0.0,0.0,0.0,0.0,0.0,0.0,0.0,0.0,0.0,0.0,0.0,0.0,0.0,0.0,0.0,0.0,0.0,0.0,0.0,0.0,0.0,0.0,0.0,0.0,0.0,0.0,0.0,0.0,0.0,0.0,0.0,0.0,0.0,0.0,0.0,0.0,-4.9408,-5.4307,-5.6779,-5.8265,-5.8656,-5.7474,-5.5461,-5.2495,0.0,0.0,0.0,0.0,0.0,0.0,0.0,0.0,0.0,0.0,0.0,0.0,0.0,0.0,0.0,0.0,0.0,0.0,0.0,0.0,0.0,0.0,0.0,0.0,0.0,0.0,0.0,0.0,0.0,0.0,0.0,0.0,0.0,0.0,0.0,0.0,0.0,0.0,0.0,0.0,0.0,0.0,0.0,0.0,0.0,0.0,0.0,0.0,0.0,0.0,0.0,0.0,0.0,0.0,0.0,0.0,0.0,0.0,0.0,0.0,0.0,0.0,0.0,0.0,0.0,0.0,0.0,0.0,0.0,0.0,0.0,0.0,0.0,0.0,0.0,0.0,0.0,0.0,0.0,0.0,0.0,0.0,0.0,0.0,0.0,0.0,0.0,0.0,0.0,0.0,0.0,0.0,0.0,0.0,0.0,0.0,0.0,0.0,0.0,0.0,0.0,0.0,0.0,-4.741,-4.9797,-5.3428,-5.5256,-5.618,-5.6028,-5.547,-5.3894,-5.0905,-4.9882,0.0,0.0,0.0,0.0,0.0,0.0,0.0,0.0,0.0,0.0,0.0,0.0,0.0,0.0,0.0,0.0,0.0,0.0,0.0,0.0,0.0,0.0,0.0,0.0,0.0,0.0,0.0,0.0,0.0,0.0,0.0,0.0,0.0,0.0,0.0,0.0,0.0,0.0,0.0,0.0,0.0,0.0,0.0,0.0,0.0,0.0,0.0,0.0,0.0,0.0,0.0,0.0,0.0,0.0,0.0,0.0,0.0,0.0,0.0,0.0,0.0,0.0,0.0,0.0,0.0,0.0,0.0,0.0,0.0,0.0,0.0,0.0,0.0,0.0,0.0,0.0,0.0,0.0,0.0,0.0,0.0,0.0,0.0,0.0,0.0,0.0,0.0,0.0,0.0,0.0,0.0,0.0,0.0,0.0,0.0,0.0,0.0,0.0,0.0,0.0,0.0,0.0,-4.836,-4.9862,-5.2151,-5.3481,-5.4016,-5.3489,-5.3283,-5.1956,-4.9143,-4.7088,0.0,0.0,0.0,0.0,0.0,0.0,0.0,0.0,0.0,0.0,0.0,0.0,0.0,0.0,0.0,0.0,0.0,0.0,0.0,0.0,0.0,0.0,0.0,0.0,0.0,0.0,0.0,0.0,0.0,0.0,0.0,0.0,0.0,0.0,0.0,0.0,0.0,0.0,0.0,0.0,0.0,0.0,0.0,0.0,0.0,0.0,0.0,0.0,0.0,0.0,0.0,0.0,0.0,0.0,0.0,0.0,0.0,0.0,0.0,0.0,0.0,0.0,0.0,0.0,0.0,0.0,0.0,0.0,0.0,0.0,0.0,0.0,0.0,0.0,0.0,0.0,0.0,0.0,0.0,0.0,0.0,0.0,0.0,0.0,0.0,0.0,0.0,0.0,0.0,0.0,0.0,0.0,0.0,0.0,0.0,0.0,0.0,0.0,0.0,0.0,0.0,0.0,-4.6305,-4.8366,-5.1188,-5.1573,-5.1794,-5.2092,-5.0342,-4.875,-4.7709,-4.494,0.0,0.0,0.0,0.0,0.0,0.0,0.0,0.0,0.0,0.0,0.0,0.0,0.0,0.0,0.0,0.0,0.0,0.0,0.0,0.0,0.0,0.0,0.0,0.0,0.0,0.0,0.0,0.0,0.0,0.0,0.0,0.0,0.0,0.0,0.0,0.0,0.0,0.0,0.0,0.0,0.0,0.0,0.0,0.0,0.0,0.0,0.0,0.0,0.0,0.0,0.0,0.0,0.0,0.0,0.0,0.0,0.0,0.0,0.0,0.0,0.0,0.0,0.0,0.0,0.0,0.0,0.0,0.0,0.0,0.0,0.0,0.0,0.0,0.0,0.0,0.0,0.0,0.0,0.0,0.0,0.0,0.0,0.0,0.0,0.0,0.0,0.0,0.0,0.0,0.0,0.0,0.0,0.0,0.0,0.0,0.0,0.0,0.0,0.0,0.0,0.0,0.0,-4.4618,-4.6213,-4.7775,-4.865,-4.894,-4.8593,-4.8499,-4.7681,-4.5798,0.0,0.0,0.0,0.0,0.0,0.0,0.0,0.0,0.0,0.0,0.0,0.0,0.0,0.0,0.0,0.0,0.0,0.0,0.0,0.0,0.0,0.0,0.0,0.0,0.0,0.0,0.0,0.0,0.0,0.0,0.0,0.0,0.0,0.0,0.0,0.0,0.0,0.0,0.0,0.0,0.0,0.0,0.0,0.0,0.0,0.0,0.0,0.0,0.0,0.0,0.0,0.0,0.0,0.0,0.0,0.0,0.0,0.0,0.0,0.0,0.0,0.0,0.0,0.0,0.0,0.0,0.0,0.0,0.0,0.0,0.0,0.0,0.0,0.0,0.0,0.0,0.0,0.0,0.0,0.0,0.0,0.0,0.0,0.0,0.0,0.0,0.0,0.0,0.0,0.0,0.0,0.0,0.0,0.0,0.0,0.0,0.0,0.0,0.0,0.0,0.0,0.0,-4.2213,-4.3718,-4.5002,-4.581,-4.6468,-4.6718,-4.6318,-4.6514,-4.5902,-4.4151,0.0,0.0,0.0,0.0,0.0,0.0,0.0,0.0,0.0,0.0,0.0,0.0,0.0,0.0,0.0,0.0,0.0,0.0,0.0,0.0,0.0,0.0,0.0,0.0,0.0,0.0,0.0,0.0,0.0,0.0,0.0,0.0,0.0,0.0,0.0,0.0,0.0,0.0,0.0,0.0,0.0,0.0,0.0,0.0,0.0,0.0,0.0,0.0,0.0,0.0,0.0,0.0,0.0,0.0,0.0,0.0,0.0,0.0,0.0,0.0,0.0,0.0,0.0,0.0,0.0,0.0,0.0,0.0,0.0,0.0,0.0,0.0,0.0,0.0,0.0,0.0,0.0,0.0,0.0,0.0,0.0,0.0,0.0,0.0,0.0,0.0,0.0,0.0,0.0,0.0,0.0,0.0,0.0,0.0,0.0,0.0,0.0,0.0,0.0,0.0,0.0,0.0,-4.2176,-4.3664,-4.4948,-4.5773,-4.5397,-4.5299,-4.5792,-4.4142,-4.2975,0.0,0.0,0.0,0.0,0.0,0.0,0.0,0.0,0.0,0.0,0.0,0.0,0.0,0.0,0.0,0.0,0.0,0.0,0.0,0.0,0.0,0.0,0.0,0.0,0.0,0.0,0.0,0.0,0.0,0.0,0.0,0.0,0.0,0.0,0.0,0.0,0.0,0.0,0.0,0.0,0.0,0.0,0.0,0.0,0.0,0.0,0.0,0.0,0.0,0.0,0.0,0.0,0.0,0.0,0.0,0.0,0.0,0.0,0.0,0.0,0.0,0.0,0.0,0.0,0.0,0.0,0.0,0.0,0.0,0.0,0.0,0.0,0.0,0.0,0.0,0.0,0.0,0.0,0.0,0.0,0.0,0.0,0.0,0.0,0.0,0.0,0.0,0.0,0.0,0.0,0.0,0.0,0.0,0.0,0.0,0.0,0.0,0.0,0.0,0.0,0.0,0.0,0.0,-4.1352,-4.1993,-4.2703,-4.3538,-4.3647,-4.345,-4.3059,-4.2542,-4.1876,-4.1013,0.0,0.0,0.0,0.0,0.0,0.0,0.0,0.0,0.0,0.0,0.0,0.0,0.0,0.0,0.0,0.0,0.0,0.0,0.0,0.0,0.0,0.0,0.0,0.0,0.0,0.0,0.0,0.0,0.0,0.0,0.0,0.0,0.0,0.0,0.0,0.0,0.0,0.0,0.0,0.0,0.0,0.0,0.0,0.0,0.0,0.0,0.0,0.0,0.0,0.0,0.0,0.0,0.0,0.0,0.0,0.0,0.0,0.0,0.0,0.0,0.0,0.0,0.0,0.0,0.0,0.0,0.0,0.0,0.0,0.0,0.0,0.0,0.0,0.0,0.0,0.0,0.0,0.0,0.0,0.0,0.0,0.0,0.0,0.0,0.0,0.0,0.0,0.0,0.0,0.0,0.0,0.0,0.0,0.0,0.0,0.0,0.0,0.0,0.0,0.0,0.0,0.0,-4.0608,-4.0961,-4.1411,-4.2271,-4.2221,-4.2053,-4.1825,-4.1639,-4.0933,-3.9582,0.0,0.0,0.0,0.0,0.0,0.0,0.0,0.0,0.0,0.0,0.0,0.0,0.0,0.0,0.0,0.0,0.0,0.0,0.0,0.0,0.0,0.0,0.0,0.0,0.0,0.0,0.0,0.0,0.0,0.0,0.0,0.0,0.0,0.0,0.0,0.0,0.0,0.0,0.0,0.0,0.0,0.0,0.0,0.0,0.0,0.0,0.0,0.0,0.0,0.0,0.0,0.0,0.0,0.0,0.0,0.0,0.0,0.0,0.0,0.0,0.0,0.0,0.0,0.0,0.0,0.0,0.0,0.0,0.0,0.0,0.0,0.0,0.0,0.0,0.0,0.0,0.0,0.0,0.0,0.0,0.0,0.0,0.0,0.0,0.0,0.0,0.0,0.0,0.0,0.0,0.0,0.0,0.0,0.0,0.0,0.0,0.0,0.0,0.0,0.0,0.0,0.0,-4.0004,-4.0376,-4.0813,-4.1619,-4.1161,-4.1059,-4.1595,-4.108,-4.0038,-3.851,0.0,0.0,0.0,0.0,0.0,0.0,0.0,0.0,0.0,0.0,0.0,0.0,0.0,0.0,0.0,0.0,0.0,0.0,0.0,0.0,0.0,0.0,0.0,0.0,0.0,0.0,0.0,0.0,0.0,0.0,0.0,0.0,0.0,0.0,0.0,0.0,0.0,0.0,0.0,0.0,0.0,0.0,0.0,0.0,0.0,0.0,0.0,0.0,0.0,0.0,0.0,0.0,0.0,0.0,0.0,0.0,0.0,0.0,0.0,0.0,-4.6165,-4.6389,0.0,0.0,0.0,0.0,0.0,0.0,0.0,0.0,0.0,0.0,0.0,0.0,0.0,0.0,0.0,0.0,0.0,0.0,0.0,0.0,0.0,0.0,0.0,0.0,0.0,0.0,0.0,0.0,0.0,0.0,0.0,0.0,0.0,0.0,0.0,0.0,0.0,0.0,0.0,0.0,-4.0004,-3.9534,-3.9573,-4.0931,-4.0601,-4.0294,-4.0441,-3.9808,-3.9179,-3.8569,-3.7728,0.0,0.0,0.0,0.0,0.0,0.0,0.0,0.0,0.0,0.0,0.0,0.0,0.0,0.0,0.0,0.0,0.0,0.0,0.0,0.0,0.0,0.0,0.0,0.0,0.0,0.0,0.0,0.0,0.0,0.0,0.0,0.0,0.0,0.0,0.0,0.0,0.0,0.0,0.0,0.0,0.0,0.0,0.0,0.0,0.0,0.0,0.0,0.0,0.0,0.0,0.0,0.0,0.0,0.0,0.0,0.0,0.0,0.0,0.0,-4.7148,-4.6922,0.0,0.0,0.0,0.0,0.0,0.0,0.0,0.0,0.0,0.0,0.0,0.0,0.0,0.0,0.0,0.0,0.0,0.0,0.0,0.0,0.0,0.0,0.0,0.0,0.0,0.0,0.0,0.0,0.0,0.0,0.0,0.0,0.0,0.0,0.0,0.0,0.0,0.0,0.0,0.0,-3.9171,-3.8756,-3.8836,-4.0367,-4.0279,-4.0113,-4.0113,-3.9774,-3.9185,-3.8334,-3.7745,0.0,0.0,0.0,0.0,0.0,0.0,0.0,0.0,0.0,0.0,0.0,0.0,0.0,0.0,0.0,0.0,0.0,0.0,0.0,0.0,0.0,0.0,0.0,0.0,0.0,0.0,0.0,0.0,0.0,0.0,0.0,0.0,0.0,0.0,0.0,0.0,0.0,0.0,0.0,0.0,0.0,0.0,0.0,0.0,0.0,0.0,0.0,0.0,0.0,0.0,0.0,0.0,0.0,-4.9622,-4.932,-4.9187,-4.9053,-4.9019,-4.8986,-4.8383,-4.7698,-4.6984,-4.721,0.0,0.0,0.0,0.0,0.0,0.0,0.0,0.0,0.0,0.0,0.0,0.0,0.0,0.0,0.0,0.0,0.0,0.0,0.0,0.0,0.0,0.0,-4.1508,-4.1102,-4.1538,-4.1625,-3.9918,0.0,0.0,0.0,0.0,0.0,0.0,0.0,0.0,0.0,0.0,0.0,-3.8139,-3.7991,-3.8328,-3.9943,-3.9977,-3.9977,-4.0079,-4.0113,-3.9537,-3.8193,-3.8334,-3.7594,0.0,0.0,0.0,0.0,0.0,0.0,0.0,0.0,0.0,0.0,0.0,0.0,0.0,0.0,0.0,0.0,0.0,0.0,0.0,0.0,0.0,0.0,0.0,0.0,0.0,0.0,0.0,0.0,0.0,0.0,0.0,0.0,-4.8984,-4.9729,0.0,0.0,0.0,0.0,0.0,0.0,0.0,0.0,0.0,0.0,0.0,0.0,0.0,-4.9459,-4.9879,-5.0672,-5.0749,-5.0139,-5.0653,-5.0589,-4.9941,-4.9336,-4.9079,-4.9116,-4.9126,0.0,-4.7639,-4.6131,0.0,0.0,0.0,0.0,0.0,0.0,0.0,0.0,0.0,0.0,0.0,0.0,0.0,0.0,0.0,0.0,0.0,0.0,0.0,0.0,0.0,0.0,-4.2658,-4.0696,-4.0735,-4.0767,-3.9348,-3.9714,-4.0213,-3.9664,-3.8666,-3.7945,0.0,0.0,0.0,0.0,0.0,0.0,-3.7517,-3.724,-3.7777,-3.9876,-3.9537,-3.9377,-4.0045,-4.0113,-3.974,-3.8903,-3.8299,-3.7566,-3.6639,-3.6345,0.0,0.0,0.0,0.0,0.0,0.0,0.0,0.0,0.0,0.0,0.0,0.0,0.0,0.0,0.0,0.0,0.0,0.0,0.0,0.0,0.0,0.0,0.0,0.0,0.0,0.0,0.0,0.0,0.0,-4.9221,-5.0507,-4.9593,-4.9932,-4.9627,0.0,0.0,0.0,0.0,0.0,0.0,0.0,0.0,0.0,-5.0558,-5.1118,-5.1475,-5.1612,-5.2521,-5.2586,-5.1885,-5.2244,-5.2021,-5.1319,-5.104,-5.0689,-5.0338,-4.9821,-4.926,-4.8584,-4.6996,-4.6028,-4.5502,0.0,0.0,0.0,0.0,-4.1651,-4.1523,-4.1661,-4.1403,-4.1164,-4.184,0.0,0.0,0.0,0.0,0.0,0.0,0.0,-4.0321,-4.0067,-4.1057,-4.1808,-4.0428,-4.0608,-4.0689,-3.9099,-3.912,-3.9265,-3.8695,-3.8816,-3.8627,-3.7579,-3.6779,0.0,0.0,0.0,-3.5895,-3.7536,-3.7545,-3.8091,-3.991,-3.9808,-3.9774,-4.0079,-4.0113,-3.9977,-3.9639,-3.8937,-3.799,-3.6863,-3.6684,-3.6182,0.0,0.0,0.0,0.0,0.0,0.0,0.0,0.0,0.0,0.0,0.0,0.0,0.0,0.0,0.0,0.0,0.0,0.0,0.0,0.0,0.0,0.0,0.0,0.0,0.0,0.0,0.0,0.0,-5.0744,-5.186,-4.983,-5.126,-5.1464,0.0,0.0,0.0,0.0,0.0,0.0,-5.0753,-5.1398,-5.1934,-5.2305,-5.2922,-5.3214,-5.3147,-5.3557,-5.3526,-5.3024,-5.2836,-5.2491,-5.1999,-5.1811,-5.1413,-5.0784,-4.9842,-4.9182,-4.8694,-4.7797,-4.7238,-4.6848,-4.5687,-4.4762,-4.405,-4.3377,-4.2686,-4.2191,-4.2874,-4.2404,-4.1655,-4.207,-4.1406,-4.0158,-3.875,0.0,0.0,0.0,0.0,-3.8771,-3.9434,-4.0111,-4.0407,-3.9686,-4.0054,-4.0137,-3.8497,-3.8247,-3.8177,-3.7821,-3.8553,-3.8685,-3.6986,-3.6089,0.0,-3.5341,-3.5013,-3.5385,-3.711,-3.7483,-3.8193,-3.9673,-3.9842,-3.991,-4.0079,-4.0113,-4.0113,-4.0113,-3.9436,-3.8396,-3.7134,-3.6897,-3.6355,-3.5415,0.0,0.0,0.0,0.0,0.0,0.0,0.0,0.0,0.0,0.0,0.0,0.0,0.0,0.0,0.0,0.0,0.0,0.0,0.0,0.0,0.0,0.0,0.0,0.0,0.0,0.0,0.0,0.0,0.0,-5.1285,-5.3884,0.0,0.0,0.0,0.0,-5.0929,-5.1622,-5.2145,-5.2445,-5.311,-5.3651,-5.4051,-5.35,-5.35,-5.4141,-5.293,-5.2317,-5.2257,-5.158,-5.1279,-5.1219,-5.0589,-5.0005,-4.9389,-4.8669,-4.8009,-4.743,-4.7847,-4.8207,-4.8463,-4.7941,-4.7149,-4.606,-4.388,-4.2918,-4.2474,-4.1049,-4.0634,-4.0904,-4.2315,-4.237,-4.1629,-4.019,-3.9296,0.0,0.0,-3.8366,-3.8011,-3.8686,-3.8934,-3.8833,-3.8072,-3.8398,-3.8464,-3.7033,-3.665,-3.6814,-3.7465,-3.72,-3.6828,-3.6744,0.0,-3.5355,-3.4655,-3.5115,-3.56,-3.5701,-3.6366,-3.7438,-3.8903,-3.9039,-3.9334,-4.0045,-4.0113,-4.0113,-4.0113,-3.9436,-3.8633,-3.7889,-3.7178,-3.6423,-3.5611,-3.4155,0.0,0.0,0.0,0.0,0.0,0.0,0.0,0.0,0.0,0.0,0.0,0.0,0.0,0.0,0.0,0.0,0.0,0.0,0.0,0.0,0.0,0.0,0.0,0.0,0.0,0.0,0.0,0.0,-5.2704,-5.581,0.0,-5.3238,-5.3401,-5.3239,-5.2118,-5.3912,-5.4854,-5.4316,-5.5277,-5.5943,-5.6047,-5.5448,-5.5239,-5.5478,-5.4581,-5.3683,-5.2815,-5.2606,-5.2037,-5.1199,-5.0495,-4.9883,-4.9269,-4.8566,-4.7908,-4.7379,-4.8192,-4.8434,-4.8167,-4.6952,-4.6127,-4.5559,-4.4559,-4.3463,-4.2448,-4.1896,-4.143,-4.0994,-4.0218,-3.9551,-3.887,-3.7979,-3.7549,-3.7333,-3.7333,-3.7157,-3.7181,-3.784,-3.8139,-3.7993,-3.7207,-3.7187,-3.7094,-3.6098,-3.5896,-3.5947,-3.6179,-3.6446,-3.6487,-3.5998,-3.5363,-3.5006,-3.519,-3.4668,-3.4931,-3.6838,-3.6907,-3.754,-3.9503,-3.887,-3.8768,-4.0011,-3.9208,-3.887,-3.9343,-3.87,-3.7956,-3.7212,-3.6931,-3.64,-3.5633,-3.4641,-3.41,0.0,0.0,0.0,0.0,0.0,0.0,0.0,0.0,0.0,0.0,0.0,0.0,0.0,0.0,0.0,0.0,0.0,0.0,0.0,0.0,0.0,0.0,0.0,0.0,0.0,-5.4063,-5.6441,-5.3764,-5.7224,-5.8601,-5.5291,-5.5655,-5.572,-5.4535,-5.6317,-5.7254,-5.6547,-5.7513,-5.7992,-5.7782,-5.7154,-5.6705,-5.6496,-5.5628,-5.4521,-5.3174,-5.2965,-5.2276,-5.1199,-5.0495,-4.9883,-4.9269,-4.8566,-4.7908,-4.7322,-4.7787,-4.7818,-4.7587,-4.7188,-4.6557,-4.592,-4.579,-4.4688,-4.3114,-4.2346,-4.1632,-4.0786,-3.923,-3.8272,-3.7614,-3.6985,-3.6656,-3.6477,-3.6477,-3.6392,-3.6381,-3.7054,-3.7126,-3.6874,-3.6384,-3.6228,-3.6101,-3.5619,-3.5519,-3.5519,-3.5519,-3.5879,-3.6075,-3.5582,-3.5183,-3.5045,-3.5513,-3.4601,-3.4595,-3.6547,-3.6388,-3.6852,-3.8807,-3.7903,-3.7886,-3.9589,-3.8394,-3.784,-3.8599,-3.7485,-3.6686,-3.64,-3.5969,-3.5576,-3.525,-3.4297,-3.3483,-3.2785,0.0,0.0,0.0,0.0,0.0,0.0,0.0,0.0,0.0,0.0,0.0,0.0,0.0,0.0,0.0,0.0,0.0,0.0,0.0,0.0,0.0,0.0,0.0,-4.9451,-5.3455,-5.6025,-5.4442,-5.8261,-5.9908,-5.702,-5.7604,-5.8201,-5.8171,-5.88,-5.9159,-5.9129,-5.9727,-5.9787,-5.9099,-5.8441,-5.7752,-5.7064,-5.5807,-5.4521,-5.3174,-5.2516,-5.1858,-5.1169,-5.0435,-4.9823,-4.9239,-4.8536,-4.7908,-4.7249,-4.6591,-4.6455,-4.6843,-4.8763,-4.8592,-4.7241,-4.7433,-4.6279,-4.4377,-4.2183,-4.0935,-4.0277,-3.9619,-3.8931,-3.8272,-3.7584,-3.6956,-3.6477,-3.6447,-3.5998,-3.5639,-3.6297,-3.5998,-3.5519,-3.5519,-3.5519,-3.5519,-3.5519,-3.5519,-3.5519,-3.5519,-3.5519,-3.5505,-3.5492,-3.5489,-3.548,-3.5594,-3.5026,0.0,-3.4659,-3.4686,-3.5259,-3.6682,-3.622,-3.6639,-3.8756,-3.7603,-3.7037,-3.7725,-3.5804,-3.4901,-3.5498,-3.4249,-3.3827,-3.4428,-3.3162,-3.1524,-2.9502,0.0,0.0,0.0,0.0,0.0,0.0,0.0,0.0,0.0,0.0,0.0,0.0,0.0,0.0,0.0,0.0,0.0,0.0,0.0,0.0,0.0,-5.0187,-5.1685,-5.1658,-5.5734,-5.8467,-5.7811,-6.0506,-6.1787,-6.0029,-6.0131,-6.0086,-5.9578,-6.0176,-6.0356,-5.9847,-5.9997,-5.9578,-5.8441,-5.7723,-5.7064,-5.6436,-5.5598,-5.4521,-5.3174,-5.2516,-5.1618,-5.0435,-4.9344,-4.8716,-4.8506,-4.7848,-4.7489,-4.7249,-4.6591,-4.607,-4.5677,-4.576,-4.5649,-4.5403,-4.473,-4.3594,-4.2251,-4.1618,-4.0636,-3.9559,-3.8901,-3.8542,-3.8182,-3.7075,-3.6626,-3.6387,-3.5908,-3.5639,-3.5549,-3.5729,-3.5639,-3.5519,-3.5519,-3.5519,-3.5519,-3.5519,-3.5519,-3.5519,-3.5519,-3.5519,-3.5494,-3.5477,-3.5087,-3.4973,-3.5449,-3.4971,-3.4917,-3.5983,-3.5687,-3.5929,-3.7367,-3.6401,-3.6135,-3.7302,-3.6044,-3.5079,-3.4871,-3.3786,-3.3251,-3.3421,-3.2594,-3.2464,-3.3127,-3.2765,-3.2257,0.0,0.0,0.0,0.0,0.0,0.0,0.0,0.0,0.0,0.0,0.0,0.0,0.0,0.0,0.0,0.0,0.0,0.0,0.0,0.0,0.0,0.0,-5.1536,-5.3376,-5.4696,-5.7272,-5.9131,-5.9471,-6.134,-6.2414,-6.1968,-6.1942,-6.1762,-6.1373,-6.1463,-6.1224,-6.0565,-6.0236,-5.9608,-5.856,-5.7872,-5.7214,-5.6555,-5.5658,-5.4521,-5.3174,-5.2247,-5.1259,-5.0136,-4.8895,-4.8297,-4.8237,-4.7578,-4.7309,-4.7249,-4.6292,-4.5663,-4.5256,0.0,0.0,0.0,0.0,-4.2841,-4.1893,-4.1205,-4.0098,-3.8931,-3.8512,-3.8033,-3.7464,-3.6716,-3.6297,-3.5998,-3.5609,-3.5519,-3.5519,-3.5519,-3.5519,-3.5519,-3.5519,-3.5519,-3.5519,-3.5519,-3.5519,-3.5519,-3.5519,-3.5519,0.0,-3.5519,-3.519,-3.505,-3.5429,-3.4912,-3.4818,-3.5665,-3.4916,-3.4844,-3.6345,-3.4927,-3.445,-3.5806,-3.4578,0.0,0.0,0.0,-3.2196,-3.2196,-3.2035,0.0,0.0,0.0,-3.1886,-3.1301,-3.1981,0.0,0.0,-3.2736,-3.3024,0.0,0.0,0.0,0.0,0.0,0.0,0.0,0.0,0.0,0.0,0.0,0.0,0.0,0.0,0.0,0.0,-5.3975,-5.5676,-5.8008,-5.8471,-5.9009,-6.0176,-6.1433,-6.245,-6.3019,-6.3079,-6.3049,-6.2959,-6.2361,-6.1702,-6.1044,-6.0416,0.0,0.0,0.0,-5.7872,-5.7094,-5.5837,-5.4521,-5.3174,-5.1768,-5.075,-5.0046,-4.8775,-4.8177,-4.8147,-4.7549,-4.7309,-4.7189,-4.5843,-4.5214,-4.5087,-4.5253,-4.4994,-4.4476,-4.3766,-4.3123,-4.2335,-4.0909,0.0,0.0,-3.8332,-3.7524,-3.6567,-3.6417,-3.5968,-3.5519,-3.5519,-3.5519,-3.5519,-3.5519,-3.5519,-3.5519,-3.5519,-3.5519,-3.5519,-3.5519,-3.5519,-3.5519,-3.5519,-3.5519,-3.5519,-3.5519,-3.5519,-3.5519,-3.5519,-3.4981,-3.4593,-3.4503,-3.3455,-3.3215,-3.444,-3.2878,0.0,-3.4302,-3.331,-3.2796,-3.3212,-3.2128,-3.1442,-3.138,-3.196,-3.2017,-3.15,-3.1473,-3.0934,-2.9831,-3.0342,-3.0612,-3.0642,-3.1885,-3.2104,0.0,0.0,0.0,0.0,0.0,0.0,0.0,0.0,0.0,0.0,0.0,0.0,0.0,0.0,0.0,-5.3597,-5.5421,-5.7355,-5.9453,-6.0625,-6.1433,-6.1672,-6.2421,-6.2929,-6.3079,-6.3079,-6.2869,-6.2331,-6.1672,-6.1014,-6.0326,-6.0146,-5.9787,-5.9129,-5.8979,-5.8321,-5.7094,-5.5837,-5.4521,-5.3144,-5.1319,0.0,-4.9404,-4.8087,-4.7489,-4.7489,-4.7369,-4.7309,-4.7189,-4.5843,-4.4676,-4.3658,-4.3205,-4.299,-4.2809,-4.2115,-4.1414,-4.0805,-4.0501,-3.9888,-3.905,-3.7943,-3.7434,-3.7045,-3.5998,-3.5609,0.0,-3.5519,-3.5519,-3.5519,-3.5519,-3.5519,-3.5519,-3.5519,-3.5519,-3.5519,-3.5519,-3.5519,-3.5519,-3.5519,-3.5519,-3.5519,-3.5519,-3.5519,-3.5519,-3.5519,-3.54,-3.51,-3.4563,-3.4294,-3.3995,-3.3758,-3.3366,-3.3066,-3.2939,-3.2672,-3.2128,-3.1177,-3.0857,-3.0503,-3.0018,-3.0579,-3.0852,-3.0714,-3.0714,-3.0842,-3.1122,-3.1241,-3.1301,-3.1301,-3.1564,-3.1625,0.0,0.0,0.0,0.0,0.0,0.0,0.0,0.0,0.0,0.0,0.0,-5.0285,-5.0831,0.0,-5.3771,-5.6269,-5.7752,-5.9189,-6.0864,-6.1942,-6.248,-6.2121,-6.266,-6.3079,-6.3079,-6.3079,-6.281,-6.2151,-6.1493,-6.0954,-6.0625,-5.9967,-5.9608,-5.9608,-5.862,-5.7782,-5.7094,-5.5149,-5.3832,-5.3144,-5.084,-4.9583,-4.9269,-4.7908,-4.7309,-4.7309,-4.7309,-4.713,-4.6711,-4.5364,-4.4227,-4.323,-4.2611,-4.259,-4.2731,-4.1743,-4.1175,-4.0786,-4.0127,-3.9469,-3.8721,-3.7734,-3.7195,-3.6776,-3.5789,-3.5519,-3.5519,-3.5519,-3.5519,-3.5519,-3.5519,-3.5519,-3.5519,-3.5519,-3.5519,-3.5519,-3.5519,-3.5519,-3.5519,-3.5519,-3.5519,-3.5519,-3.5519,-3.5519,-3.5519,-3.5519,-3.5519,-3.537,-3.504,-3.4713,-3.4264,-3.3574,-3.3215,-3.2736,-3.2049,-3.1989,-3.172,-3.1032,-3.1002,-3.0881,-3.0582,-3.0823,-3.1002,-3.1002,-3.1002,-3.1152,-3.1511,-3.1511,-3.1511,-3.1511,-3.1511,-3.1511,0.0,0.0,0.0,0.0,0.0,0.0,0.0,-4.686,-4.7638,-4.8985,-5.0391,-5.1887,-5.3473,-5.4521,-5.6107,-5.9009,-6.0057,-6.0894,-6.2121,-6.275,-6.2869,-6.2361,-6.275,-6.3079,-6.3079,-6.3079,-6.275,-6.1972,-6.1403,-6.1014,-6.0745,-5.9817,-5.9488,-5.9877,-5.8321,-5.7304,-5.6915,-5.4581,-5.3174,-5.2785,-5.0437,-4.9239,-4.909,-4.7848,-4.7309,-4.7309,-4.716,-4.6651,-4.5801,-4.4766,-4.3888,-4.323,-4.2761,-4.2791,-4.3,-4.1683,-4.1242,-4.1025,-3.9828,-3.905,-3.8482,-3.7823,-3.7165,-3.6537,-3.5878,-3.5609,-3.5519,-3.5519,-3.5519,-3.5519,-3.5519,-3.5519,-3.5519,-3.5519,-3.5519,-3.5519,-3.5519,-3.5519,-3.5519,-3.5519,-3.5519,-3.5519,-3.5519,-3.5519,-3.5519,-3.5519,-3.5519,-3.5459,-3.531,-3.4831,-3.4264,-3.3574,-3.2916,-3.2228,-3.157,-3.1511,-3.1511,-3.1511,-3.1511,-3.1511,-3.1511,-3.1511,-3.1511,-3.1511,-3.1511,-3.1511,-3.1511,-3.1511,-3.1511,-3.1511,-3.1511,-3.1511,-4.5132,-4.3999,-4.3196,-4.3998,-4.4706,-4.6142,0.0,-5.0601,-5.105,-5.2366,-5.4162,-5.5568,-5.5807,-5.7334,-5.9069,-6.0625,-6.1433,-6.2121,-6.2869,-6.3019,-6.3049,-6.2989,-6.3019,-6.3079,-6.3079,-6.3079,-6.257,-6.1313,-6.1164,-6.0595,-5.9398,-5.9727,-5.9727,-5.9219,-5.9009,-5.8052,-5.6338,-5.482,-5.3204,-5.1409,-4.9972,-4.9,-4.8386,-4.7638,-4.7309,-4.7279,-4.6681,-4.5723,-4.4526,-4.4377,-4.3888,-4.329,-4.323,-4.291,-4.2351,-4.0995,-4.0516,-4.0397,-3.9679,-3.9343,-3.92,-3.8512,-3.7853,-3.7195,-3.6567,-3.5968,-3.5519,-3.5519,-3.5519,-3.5519,-3.5519,-3.5519,-3.5519,-3.5519,-3.5519,-3.5519,-3.5519,-3.5519,-3.5519,-3.5519,-3.5519,-3.5519,-3.5519,-3.5519,-3.5519,-3.5519,-3.5519,-3.528,-3.4713,-3.4563,-3.4264,-3.3574,-3.2916,-3.2228,-3.157,-3.1511,-3.1511,-3.1511,-3.1511,-3.1511,-3.1511,-3.1511,-3.1511,-3.1511,-3.1511,-3.1511,-3.1511,-3.1511,-3.1511,-3.1511,-3.1511,-3.1511,-4.7336,-4.6041,-4.4987,-4.5368,-4.6262,-4.7788,-5.0571,-5.1798,-5.2935,-5.5029,-5.6765,-5.8112,-5.889,-6.0027,-6.1164,-6.2091,-6.248,-6.275,-6.3049,-6.3079,-6.2929,-6.254,-6.251,-6.266,-6.3049,-6.3079,-6.254,-6.1224,-6.1104,-6.0685,-5.9727,-5.9578,-5.9398,-5.9129,-5.8351,-5.7184,-5.5628,-5.4281,-5.2815,-5.1199,-4.9883,-4.897,-4.8267,-4.7608,-4.71,-4.6681,-4.5603,-4.4825,-4.4287,-4.3898,-4.3359,-4.2761,-4.2761,-4.2372,-4.1752,-4.1175,-4.0726,-4.0307,-3.9649,-3.9373,-3.932,-3.8631,-3.7943,-3.7285,-3.6656,-3.6028,-3.5519,-3.5519,-3.5519,-3.5519,-3.5519,-3.5519,-3.5519,-3.5519,-3.5519,-3.5519,-3.5519,-3.5519,-3.5519,-3.5519,-3.5519,-3.5519,-3.5519,-3.5519,-3.5519,-3.5519,-3.5519,-3.54,-3.513,-3.507,-3.4681,-3.3604,-3.2916,-3.2228,-3.157,-3.1511,-3.1511,-3.1511,-3.1511,-3.1511,-3.1511,-3.1511,-3.1511,-3.1511,-3.1511,-3.1511,-3.1511,-3.1511,-3.1511,-3.1511,-3.1511,-3.1511,-4.8009,-4.7141,-4.6696,-4.6605,-4.7728,-4.9404,-5.1558,-5.3054,-5.464,-5.6915,-5.8441,-5.9668,-6.0655,-6.1373,-6.2032,-6.269,-6.281,-6.2869,-6.3049,-6.2929,-6.263,-6.2151,-6.1762,-6.1792,-6.248,-6.254,-6.2061,-6.0924,-6.0835,-6.0535,-5.9847,-5.9189,-5.883,-5.883,-5.7543,-5.6226,-5.494,-5.3773,-5.2336,-5.0661,-4.9748,-4.888,-4.7997,-4.7339,-4.6681,-4.5963,-4.4825,-4.4227,-4.4018,-4.3499,-4.306,-4.265,-4.247,-4.1991,-4.1392,-4.1175,-4.0816,-4.0307,-3.9649,-3.9373,-3.932,-3.8631,-3.7943,-3.7285,-3.6656,-3.6028,-3.5519,-3.5519,-3.5519,-3.5519,-3.5519,-3.5519,-3.5519,-3.5519,-3.5519,-3.5519,-3.5519,-3.5519,-3.5519,-3.5519,-3.5519,-3.5519,-3.5519,-3.5519,-3.5519,-3.5519,-3.5519,-3.5519,-3.5519,-3.534,-3.4861,-3.3873,-3.3006,-3.2288,-3.1809,-3.16,-3.1511,-3.1511,-3.1511,-3.1511,-3.1511,-3.1511,-3.1511,-3.1511,-3.1511,-3.1511,-3.1511,-3.1511,-3.1511,-3.1511,-3.1511,-3.1511,-4.5129,-4.5796,-4.6819,-4.7177,-4.8745,-5.0823,-5.3503,-5.5149,-5.6466,-5.7812,-5.9129,-6.0057,-6.0116,-6.0685,-6.1373,-6.2032,-6.2121,-6.2361,-6.2989,-6.254,-6.2121,-6.2091,-6.0924,-6.0416,-6.1104,-6.1164,-6.0864,-6.0176,-6.0116,-5.9817,-5.9159,-5.8501,-5.8141,-5.8141,-5.6885,-5.5568,-5.4251,-5.3533,-5.1887,-4.9359,-4.9329,-4.8596,-4.7309,-4.6651,-4.5963,-4.5274,-4.4616,-4.3958,-4.3319,-4.329,-4.329,-4.32,-4.265,-4.1991,-4.1294,-4.0666,-4.0427,-4.0307,-3.9649,-3.9373,-3.932,-3.8631,-3.7943,-3.7285,-3.6656,-3.6028,-3.5519,-3.5519,-3.5519,-3.5519,-3.5519,-3.5519,-3.5519,-3.5519,-3.5519,-3.5519,-3.5519,-3.5519,-3.5519,-3.5519,-3.5519,-3.5519,-3.5519,-3.5519,-3.5519,-3.5519,-3.5519,-3.5519,-3.5519,-3.4921,-3.4503,-3.4474,-3.3275,-3.2497,-3.2467,-3.1869,-3.1511,-3.1511,-3.1511,-3.1511,-3.1511,-3.1511,-3.1511,-3.1511,-3.1511,-3.1511,-3.1511,-3.1511,-3.1511,-3.1511,-3.1511,-3.1511,-4.8515,-4.8744,-4.9068,-5.0672,-5.1637,-5.2785,-5.4999,-5.6166,-5.7304,-5.9069,-5.871,-5.8231,-5.871,-5.859,-5.868,-5.9368,-6.0565,-6.1672,-6.2331,-6.26,-6.2421,-6.1553,-6.1044,-6.0505,-5.9847,-6.0176,-6.0326,-6.0116,-6.0086,-5.9608,-5.853,-5.8231,-5.7723,-5.6855,-5.5987,-5.467,-5.2905,-5.2217,-5.078,-4.864,-4.8177,-4.7728,-4.7279,-4.6142,-4.5514,-4.5244,-4.4137,-4.3499,-4.329,-4.329,-4.306,-4.2671,-4.25,-4.1991,-4.1294,-4.0636,-4.0397,-4.0307,-3.9649,-3.9373,-3.932,-3.8631,-3.7943,-3.7285,-3.6656,-3.6028,-3.5519,-3.5519,-3.5519,-3.5519,-3.5519,-3.5519,-3.5519,-3.5519,-3.5519,-3.5519,-3.5519,-3.5519,-3.5519,-3.5519,-3.5519,-3.5519,-3.5519,-3.5519,-3.5519,-3.5519,-3.5519,-3.5519,-3.5519,-3.531,-3.4981,-3.4563,-3.4114,-3.3455,-3.2587,-3.2288,-3.1959,-3.154,-3.1511,-3.1511,-3.1511,-3.1511,-3.1511,-3.1511,-3.1511,-3.1511,-3.1511,-3.1511,-3.1511,-3.1511,-3.1511,-3.175,-5.0905,-5.1641,-5.2122,-5.4246,-5.4638,-5.508,-5.7112,-5.7308,-5.7453,-5.874,-5.7453,-5.6107,-5.6316,-5.5807,-5.5568,-5.6256,-5.7633,-5.9189,-6.0805,-6.0984,-6.0984,-6.1104,-6.0685,-6.0057,-5.9189,-5.9279,-5.9398,-5.9398,-5.9398,-5.889,-5.7812,-5.7543,-5.6944,-5.5867,-5.5179,-5.3892,-5.1858,-5.1439,-5.0242,-4.8267,-4.7608,-4.7309,-4.7249,-4.5903,-4.5304,-4.5214,-4.3858,-4.329,-4.329,-4.329,-4.309,-4.2671,-4.25,-4.1991,-4.1294,-4.0636,-4.0247,-3.9978,-3.9559,-3.9373,-3.932,-3.8631,-3.7943,-3.7285,-3.6656,-3.6028,-3.5519,-3.5519,-3.5519,-3.5519,-3.5519,-3.5519,-3.5519,-3.5519,-3.5519,-3.5519,-3.5519,-3.5519,-3.5519,-3.5519,-3.5519,-3.5519,-3.5519,-3.5519,-3.5519,-3.5519,-3.5519,-3.5519,-3.5519,-3.528,-3.507,-3.4861,-3.4412,-3.3784,-3.2946,-3.2647,-3.2198,-3.154,-3.1511,-3.1511,-3.1511,-3.1511,-3.1511,-3.1511,-3.1511,-3.1511,-3.1511,-3.1511,-3.1511,-3.1511,-3.1511,-3.172,-5.2188,-5.4119,-5.5581,-5.756,-5.7579,-5.7693,-5.965,-5.8614,-5.7213,-5.7049,-5.546,-5.3822,-5.3103,-5.2456,-5.2276,-5.3025,-5.3832,-5.5538,-5.877,-5.8141,-5.8291,-6.0864,-5.9967,-5.9159,-5.9159,-5.856,-5.8171,-5.8112,-5.8082,-5.7782,-5.7124,-5.6466,-5.5807,-5.5149,-5.4431,-5.3114,-5.1199,-5.1079,-5.0092,-4.8237,-4.7608,-4.7279,-4.7219,-4.5903,-4.5274,-4.5185,-4.3898,-4.329,-4.329,-4.329,-4.329,-4.323,-4.2641,-4.2081,-4.1384,-4.0696,-4.0068,-3.9499,-3.9403,-3.9373,-3.932,-3.8631,-3.7973,-3.7345,-3.6716,-3.6088,-3.5579,-3.5579,-3.5549,-3.5519,-3.5549,-3.5519,-3.5519,-3.5519,-3.5519,-3.5519,-3.5519,-3.5519,-3.5519,-3.5519,-3.5519,-3.5519,-3.5519,-3.5519,-3.5519,-3.5519,-3.5519,-3.5519,-3.5519,-3.4921,-3.4771,-3.5429,-3.4322,-3.3544,-3.3484,-3.2886,-3.2198,-3.154,-3.1511,-3.1511,-3.1511,-3.1511,-3.1511,-3.1511,-3.1511,-3.1511,-3.154,-3.1511,-3.1511,-3.154,-3.1511,-3.1511,-5.4103,-5.5196,-5.5839,-5.9078,-5.9528,-5.9295,-5.9773,-5.946,-5.8577,-5.6673,-5.4268,-5.1909,-4.9915,-4.9793,-5.0541,-5.2187,-5.5089,-5.7932,-6.0266,-6.0745,-6.1074,-6.1762,-6.0655,-5.9847,-5.9847,-5.9249,-5.865,-5.8171,-5.7633,-5.7274,-5.7094,-5.6047,-5.5149,-5.4491,-5.2845,-5.1498,-5.0435,-4.9045,-4.8057,-4.7549,-4.7399,-4.704,-4.6561,-4.5693,-4.5035,-4.4526,-4.3648,-4.329,-4.329,-4.329,-4.329,-4.326,-4.315,-4.3,-4.2701,-4.1564,-4.1025,-4.0756,-3.9768,-3.9373,-3.932,-3.8631,-3.8272,-3.8033,-3.7375,-3.6746,-3.6327,-3.6806,-3.6237,-3.5609,-3.6118,-3.5878,-3.5519,-3.5519,-3.5519,-3.5519,-3.5519,-3.5519,-3.5519,-3.5519,-3.5519,-3.5519,-3.5519,-3.5519,-3.5519,-3.5519,-3.5519,-3.5519,-3.5519,-3.534,-3.531,-3.5489,-3.4741,-3.4054,-3.3544,-3.2886,-3.2198,-3.154,-3.1511,-3.1511,-3.1511,-3.1511,-3.1511,-3.1511,-3.1511,-3.175,-3.2228,-3.175,-3.175,-3.2228,-3.172,-3.178,-5.5839,-5.7048,-5.7827,-6.145,-6.1521,-6.0538,-6.0126,-5.9177,-5.7439,-5.4321,-5.1741,-4.9332,-4.6984,-4.7339,-4.8446,-4.9823,-5.2875,-5.6077,-5.8949,-5.9428,-5.9937,-6.1074,-6.0535,-5.9967,-5.9668,-5.9308,-5.883,-5.8171,-5.7483,-5.6974,-5.6705,-5.5448,-5.4461,-5.3773,-5.2097,-5.0631,-4.9404,-4.7997,-4.7309,-4.7309,-4.7309,-4.695,-4.6249,-4.5603,-4.4945,-4.4287,-4.3589,-4.329,-4.329,-4.329,-4.329,-4.329,-4.329,-4.311,-4.2791,-4.1743,-4.1205,-4.0816,-3.9768,-3.9373,-3.9349,-3.896,-3.8631,-3.8332,-3.7943,-3.7195,-3.6567,-3.6896,-3.6297,-3.5579,-3.5968,-3.5789,-3.5519,-3.5519,-3.5519,-3.5519,-3.5519,-3.5519,-3.5519,-3.5519,-3.5519,-3.5519,-3.5519,-3.5519,-3.5519,-3.5519,-3.5519,-3.5519,-3.5519,-3.5519,-3.5519,-3.5519,-3.516,-3.4651,-3.3993,-3.3574,-3.3095,-3.2407,-3.2079,-3.1929,-3.1929,-3.166,-3.1511,-3.1511,-3.1511,-3.169,-3.2049,-3.169,-3.1839,-3.2497,-3.2108,-3.2288,-5.7051,-5.8894,-6.0397,-6.3448,-6.3008,-6.1612,-6.0571,-5.8395,-5.5496,-5.1549,-4.9169,-4.7102,-4.481,-4.5357,-4.6531,-4.7519,-4.9823,-5.2815,-5.6705,-5.6765,-5.7334,-5.9787,-5.9937,-5.9668,-5.9279,-5.9159,-5.883,-5.8171,-5.7483,-5.6825,-5.6248,-5.485,-5.3653,-5.2695,-5.1558,-5.0062,-4.8177,-4.7578,-4.7309,-4.7309,-4.7309,-4.695,-4.6249,-4.5603,-4.4945,-4.4287,-4.3589,-4.329,-4.329,-4.329,-4.329,-4.329,-4.329,-4.3,-4.244,-4.1692,-4.1025,-4.0427,-3.9679,-3.9373,-3.9373,-3.9373,-3.902,-3.8512,-3.8512,-3.7614,-3.6656,-3.6836,-3.6207,-3.5549,-3.5729,-3.5639,-3.5519,-3.5519,-3.5519,-3.5519,-3.5519,-3.5519,-3.5519,-3.5519,-3.5519,-3.5519,-3.5519,-3.5519,-3.5519,-3.5519,-3.5519,-3.5519,-3.5519,-3.5519,-3.5519,-3.5519,-3.5429,-3.513,-3.4563,-3.4414,-3.4113,-3.3544,-3.2946,-3.2647,-3.2647,-3.2079,-3.178,-3.178,-3.169,-3.169,-3.178,-3.169,-3.1959,-3.2647,-3.2647,-3.2946,-5.6606,-5.8899,-6.0922,-6.1946,-6.2682,-6.2636,-6.0617,-5.8815,-5.6329,-5.1798,-4.9489,-4.7547,-4.5139,-4.5122,-4.6411,-4.9209,-5.1468,-5.4042,-5.7453,-5.7842,-5.8351,-5.9907,-5.9129,-5.886,-5.9817,-5.9428,-5.883,-5.8171,-5.7483,-5.6825,-5.6248,-5.4371,-5.2306,-5.0048,-4.9778,-4.8925,-4.7489,-4.7369,-4.7309,-4.7309,-4.7309,-4.695,-4.6249,-4.5603,-4.4945,-4.4287,-4.3589,-4.329,-4.329,-4.329,-4.329,-4.329,-4.329,-4.323,-4.303,-4.1833,-4.1362,-4.1025,-3.9828,-3.9373,-3.9373,-3.9373,-3.9313,-3.923,-3.923,-3.8302,-3.7494,-3.8601,-3.7255,-3.5759,-3.6806,-3.6297,-3.5519,-3.5519,-3.5519,-3.5519,-3.5519,-3.5519,-3.5519,-3.5519,-3.5519,-3.5519,-3.5519,-3.5519,-3.5519,-3.5519,-3.5519,-3.5519,-3.5519,-3.5519,-3.5519,-3.5519,-3.4981,-3.4623,-3.4503,-3.3963,-3.3604,-3.3514,-3.3395,-3.3335,-3.3335,-3.3215,-3.3155,-3.3155,-3.2617,-3.2617,-3.3155,-3.2617,-3.2677,-3.3335,-3.3335,-3.3395,-5.7377,-5.8916,-6.0234,-6.1818,-6.2056,-6.1253,-5.8916,-5.7239,-5.4864,-5.012,-4.8517,-4.7232,-4.4736,-4.4949,-4.6102,-4.7862,-4.9583,-5.1798,-5.5089,-5.6166,-5.7094,-5.8381,-5.859,-5.874,-5.9039,-5.9099,-5.856,-5.7214,-5.7094,-5.6825,-5.6248,-5.3952,-5.1618,-4.9389,-4.897,-4.8297,-4.7309,-4.7309,-4.7309,-4.7309,-4.7309,-4.677,-4.5783,-4.5454,-4.4736,-4.3738,-4.3439,-4.329,-4.329,-4.329,-4.329,-4.329,-4.329,-4.312,-4.2701,-4.1743,-4.1175,-4.0726,-3.9768,-3.9373,-3.9373,-3.9373,-3.9373,-3.9373,-3.9373,-3.8721,-3.8063,-3.8691,-3.7494,-3.6148,-3.6776,-3.6207,-3.5579,-3.5938,-3.6028,-3.5908,-3.5579,-3.5519,-3.5519,-3.5519,-3.5519,-3.5519,-3.5519,-3.5519,-3.5519,-3.5519,-3.5519,-3.5519,-3.5519,-3.5519,-3.5519,-3.5519,-3.522,-3.5011,-3.5011,-3.4711,-3.4532,-3.4532,-3.4203,-3.3993,-3.3993,-3.3694,-3.3484,-3.3484,-3.3185,-3.3185,-3.3484,-3.3185,-3.3365,-3.3993,-3.3993,-3.4203,-5.8001,-5.8924,-5.984,-6.1815,-6.1338,-5.9795,-5.7355,-5.5547,-5.3146,-4.8795,-4.7737,-4.6876,-4.4539,-4.4868,-4.5633,-4.604,-4.71,-4.9015,-5.2306,-5.3803,-5.5119,-5.6705,-5.7842,-5.8381,-5.8141,-5.8471,-5.7962,-5.6286,-5.6346,-5.6196,-5.5619,-5.3563,-5.1439,-4.9389,-4.882,-4.8117,-4.7309,-4.7309,-4.7309,-4.7309,-4.7309,-4.6681,-4.5514,-4.5364,-4.4646,-4.3499,-4.3349,-4.329,-4.329,-4.329,-4.329,-4.329,-4.329,-4.294,-4.2321,-4.1662,-4.0965,-4.0307,-3.9649,-3.9373,-3.9373,-3.9373,-3.9373,-3.9373,-3.9373,-3.8931,-3.8422,-3.8571,-3.7674,-3.6686,-3.6686,-3.6207,-3.5818,-3.6178,-3.6267,-3.6118,-3.5609,-3.5519,-3.5519,-3.5519,-3.5519,-3.5519,-3.5519,-3.5519,-3.5519,-3.5519,-3.5519,-3.5519,-3.5519,-3.5519,-3.5519,-3.5519,-3.5519,-3.5519,-3.5519,-3.5519,-3.5519,-3.5519,-3.5011,-3.4713,-3.4713,-3.4203,-3.3933,-3.3933,-3.3784,-3.3694,-3.3694,-3.3694,-3.3963,-3.4503,-3.4653,-3.4981,-5.732,-5.9021,-6.0846,-6.0993,-6.0736,-5.9795,-5.7355,-5.5141,-5.2706,-4.9533,-4.8193,-4.7077,-4.5383,-4.497,-4.4957,-4.532,-4.6022,-4.7638,-5.093,-5.2007,-5.3414,-5.6008,-5.6376,-5.6885,-5.8022,-5.7603,-5.6974,-5.6226,-5.5119,-5.4192,-5.3503,-5.3234,-5.1917,-4.9389,-4.9239,-4.8566,-4.7309,-4.7309,-4.7309,-4.7309,-4.7309,-4.692,-4.6202,-4.5574,-4.4915,-4.4197,-4.3559,-4.329,-4.329,-4.329,-4.329,-4.329,-4.329,-4.294,-4.2321,-4.1662,-4.0965,-4.0307,-3.9649,-3.9373,-3.9373,-3.9373,-3.9373,-3.9373,-3.9373,-3.8931,-3.8512,-3.914,-3.8362,-3.7315,-3.7315,-3.6866,-3.6267,-3.5729,-3.5579,-3.5579,-3.5519,-3.5519,-3.5519,-3.5519,-3.5519,-3.5519,-3.5519,-3.5519,-3.5519,-3.5519,-3.5519,-3.5519,-3.5519,-3.5519,-3.5519,-3.5519,-3.5519,-3.5519,-3.5519,-3.5519,-3.5519,-3.5519,-3.5459,-3.54,-3.54,-3.534,-3.531,-3.531,-3.4711,-3.4414,-3.4414,-3.4414,-3.4444,-3.4503,-3.513,-3.5459,-5.7575,-5.8714,-5.9624,-6.1122,-5.9288,-5.7045,-5.6824,-5.3578,-5.0293,-4.9198,-4.8334,-4.7368,-4.6037,-4.5066,-4.4341,-4.4108,-4.3688,-4.4347,-4.7249,-4.8566,-5.0391,-5.3414,-5.485,-5.5957,-5.6855,-5.7423,-5.7124,-5.5688,-5.473,-5.3743,-5.2665,-5.1828,-5.075,-4.9359,-4.8506,-4.7848,-4.7309,-4.7309,-4.7309,-4.7309,-4.689,-4.6352,-4.5693,-4.5005,-4.4347,-4.3678,-4.3409,-4.329,-4.329,-4.329,-4.329,-4.329,-4.329,-4.294,-4.2321,-4.1662,-4.1205,-4.0905,-4.0247,-4.0008,-4.0008,-4.0008,-3.9738,-3.9373,-3.9373,-3.923,-3.908,-3.9313,-3.8721,-3.8003,-3.8003,-3.7524,-3.6896,-3.6237,-3.6088,-3.5998,-3.5579,-3.5519,-3.5519,-3.5519,-3.5519,-3.5519,-3.5519,-3.5519,-3.5519,-3.5519,-3.5519,-3.5519,-3.5519,-3.5519,-3.5519,-3.5519,-3.5519,-3.5519,-3.5519,-3.5519,-3.5519,-3.5519,-3.5519,-3.5519,-3.5519,-3.5519,-3.5519,-3.5519,-3.525,-3.51,-3.51,-3.51,-3.51,-3.51,-3.537,-3.5519,-5.7402,-5.8338,-5.9039,-6.1246,-5.8664,-5.5708,-5.6318,-5.2637,-4.9093,-4.9029,-4.8409,-4.7508,-4.6219,-4.5325,-4.4443,-4.3305,-4.2475,-4.2731,-4.4975,-4.6292,-4.8087,-5.099,-5.2576,-5.3922,-5.5179,-5.6316,-5.6376,-5.4999,-5.4102,-5.3114,-5.1977,-5.0661,-4.9733,-4.9329,-4.8177,-4.7489,-4.7309,-4.7309,-4.7219,-4.701,-4.6561,-4.5843,-4.4975,-4.4526,-4.3917,-4.329,-4.329,-4.329,-4.329,-4.329,-4.329,-4.329,-4.329,-4.2821,-4.2081,-4.1811,-4.1414,-4.1025,-4.0546,-4.0397,-4.0367,-4.0157,-3.9798,-3.9373,-3.9373,-3.9373,-3.9373,-3.9373,-3.8931,-3.8392,-3.8392,-3.7913,-3.7255,-3.6626,-3.6626,-3.6537,-3.5699,-3.5818,-3.6028,-3.5818,-3.5938,-3.5998,-3.5818,-3.5938,-3.5938,-3.5579,-3.5669,-3.5729,-3.5519,-3.5519,-3.5519,-3.5519,-3.5519,-3.5519,-3.5519,-3.5519,-3.5519,-3.5519,-3.5519,-3.5519,-3.5519,-3.5519,-3.5519,-3.5519,-3.5519,-3.5519,-3.5519,-3.5519,-3.5519,-3.5519,-3.5519,-3.5519,-5.6349,-5.8,-5.9882,-6.1284,-5.93,-5.6843,-5.5905,-5.2807,-4.9864,-4.9154,-4.8409,-4.7423,-4.5816,-4.5892,-4.5444,-4.3091,-4.3047,-4.3738,-4.5095,-4.5903,-4.707,-4.912,-4.9359,-5.0407,-5.2965,-5.3832,-5.4251,-5.4221,-5.2965,-5.1947,-5.1259,-5.0002,-4.9329,-4.9299,-4.8626,-4.7967,-4.7309,-4.7309,-4.698,-4.6279,-4.6279,-4.5592,-4.4317,-4.4317,-4.3917,-4.329,-4.329,-4.329,-4.329,-4.329,-4.329,-4.329,-4.329,-4.2551,-4.1512,-4.2141,-4.1572,-4.0397,-4.0397,-4.0397,-4.0277,-3.9649,-3.9439,-3.9373,-3.9373,-3.9373,-3.9373,-3.9373,-3.8931,-3.8392,-3.8392,-3.7913,-3.7255,-3.6626,-3.6956,-3.7045,-3.5789,-3.6507,-3.7195,-3.6596,-3.6956,-3.7195,-3.6567,-3.6985,-3.6956,-3.5699,-3.6058,-3.6237,-3.5579,-3.5519,-3.5519,-3.5519,-3.5519,-3.5519,-3.5519,-3.5519,-3.5519,-3.5519,-3.5519,-3.5519,-3.5519,-3.5519,-3.5519,-3.5519,-3.5519,-3.5519,-3.5519,-3.5519,-3.5519,-3.5519,-3.5519,-3.5519,-5.3363,-5.4475,-5.5432,-5.6703,-5.4637,-5.2486,-5.3209,-4.956,-4.6454,-4.7928,-4.7172,-4.6215,-4.6022,-4.5743,-4.5136,-4.3982,-4.3527,-4.3589,-4.4496,-4.5603,-4.707,-4.909,-5.1725,-5.3832,-5.5119,-5.461,-5.4012,-5.3533,-5.2276,-5.1229,-5.0524,-4.9314,-4.864,-4.864,-4.7967,-4.7309,-4.6651,-4.6621,-4.6292,-4.5603,-4.5155,-4.4736,-4.4287,-4.3798,-4.3499,-4.329,-4.329,-4.329,-4.329,-4.329,-4.329,-4.326,-4.2851,-4.244,-4.2051,-4.1811,-4.1752,-4.1722,-4.1235,-4.1055,-4.0965,-4.0307,-3.9798,-3.9373,-3.9373,-3.9373,-3.9373,-3.9373,-3.926,-3.908,-3.908,-3.8601,-3.7913,-3.7255,-3.6956,-3.6537,-3.5699,-3.6178,-3.6716,-3.6537,-3.6985,-3.7345,-3.7165,-3.7285,-3.7255,-3.6866,-3.6626,-3.6417,-3.6207,-3.5789,-3.5519,-3.5519,-3.5519,-3.5519,-3.5519,-3.5519,-3.5519,-3.5519,-3.5519,-3.5519,-3.5519,-3.5519,-3.5519,-3.5519,-3.5519,-3.5519,-3.5519,-3.5519,-3.5519,-3.5519,-3.5519,-3.5519,-5.1243,-5.2823,-5.3895,-5.4948,-5.2613,-5.0253,-5.1227,-4.7439,-4.4267,-4.6118,-4.5982,-4.5599,-4.586,-4.5745,-4.5373,-4.4709,-4.3862,-4.3529,-4.4227,-4.5442,-4.707,-4.909,-5.2336,-5.4401,-5.4311,-5.4012,-5.3443,-5.2516,-5.1439,-5.0451,-4.9553,-4.8716,-4.8057,-4.7549,-4.716,-4.6741,-4.6279,-4.6052,-4.5603,-4.4915,-4.4496,-4.4197,-4.3888,-4.3469,-4.329,-4.329,-4.329,-4.329,0.0,-4.306,-4.297,-4.291,-4.2291,-4.1871,-4.1632,-4.1482,-4.1512,-4.1602,-4.1145,-4.0995,-4.0905,-4.0247,-3.9738,-3.9373,-3.9373,-3.9373,-3.9373,-3.9373,-3.9373,-3.9373,-3.9373,-3.911,-3.8601,-3.7943,-3.7674,-3.7345,-3.6417,-3.6956,-3.7524,-3.7255,-3.7734,-3.8093,-3.7823,-3.8003,-3.8003,-3.7494,-3.7075,-3.6746,-3.6507,-3.5908,-3.5519,-3.5519,-3.5519,-3.5519,-3.5519,-3.5519,-3.5519,-3.5519,-3.5519,-3.5519,-3.5519,-3.5519,-3.5519,-3.5519,-3.5519,-3.5519,-3.5519,-3.5519,-3.5519,-3.5519,-3.5519,-3.5519,0.0,-5.2235,-5.4092,-5.4733,-5.2232,-4.9588,-4.9622,-4.6189,0.0,-4.397,-4.4756,-4.5336,-4.5369,-4.5758,-4.5876,-4.5161,-4.4134,-4.3648,-4.4287,-4.5622,-4.7309,-4.9299,-5.1815,-5.2785,-5.1439,-5.2396,-5.2576,-5.1319,-5.0465,-4.9583,-4.8356,-4.8207,-4.7578,-4.6309,-4.619,-4.613,-4.613,-4.5544,-4.4885,-4.4257,-4.4257,-4.3888,-4.329,-4.329,-4.329,-4.329,-4.323,-4.323,-4.317,-4.2551,-4.2321,-4.2261,-4.1602,-4.0935,-4.0487,-4.1085,-4.0935,-4.0397,-4.0397,-4.0397,-4.0277,-3.9619,-3.9373,-3.9373,-3.9373,-3.9373,-3.9373,-3.9373,-3.9373,-3.9373,-3.9373,-3.9373,-3.926,-3.8542,-3.8871,-3.8955,-3.7704,-3.8422,-3.914,-3.8512,-3.896,-3.92,-3.8571,-3.899,-3.899,-3.7734,-3.7464,-3.7195,-3.6626,-3.5938,-3.5519,-3.5519,-3.5519,-3.5519,-3.5519,-3.5519,-3.5519,-3.5519,-3.5519,-3.5519,-3.5519,-3.5519,-3.5519,-3.5519,-3.5519,-3.5519,-3.5519,-3.5519,-3.5519,-3.5519,-3.5519,-3.5519,-4.4918,0.0,-4.7533,-4.7168,-4.6776,-4.6384,0.0,-4.3844,-4.2365,-4.3196,-4.3407,-4.3602,-4.4102,-4.4705,-4.498,-4.4578,-4.47,-4.4885,-4.5035,-4.7519,-4.9807,-5.1349,-5.3414,-5.3982,-5.2157,-5.2247,-5.2097,-5.1289,-4.9673,-4.8626,-4.8297,-4.7339,-4.6651,-4.6279,-4.5304,-4.4796,-4.4796,-4.4616,-4.4227,-4.3529,-4.3529,-4.3439,-4.329,-4.329,-4.329,-4.326,-4.2791,-4.262,-4.259,-4.1893,-4.1662,-4.1572,-4.0876,-4.0546,-4.0427,-4.0576,-4.0546,-4.0397,-4.0397,-4.0397,-4.0277,-3.9619,-3.9373,-3.9373,-3.9373,-3.9373,-3.9373,-3.9373,-3.9373,-3.9373,-3.9373,-3.9373,-3.926,-3.8542,-3.8512,-3.8422,-3.7584,-3.8063,-3.8571,-3.8422,-3.896,-3.9379,-3.92,-3.932,-3.9284,-3.899,-3.8063,-3.7345,-3.7225,-3.6207,-3.5519,-3.5519,-3.5519,-3.5519,-3.5519,-3.5519,-3.5519,-3.5519,-3.5519,-3.5519,-3.5519,-3.5519,-3.5519,-3.5519,-3.5519,-3.5519,-3.5519,-3.5519,-3.5519,-3.5519,-3.5519,-3.5519,-4.2623,-4.3977,-4.5277,-4.4887,-4.4495,-4.4133,-4.3779,-4.2131,-4.0826,-4.1317,-4.188,-4.2559,-4.3242,-4.4167,-4.4747,-4.4539,-4.4971,-4.5603,-4.6531,-4.8716,-5.0794,-5.2456,-5.3623,-5.3832,-5.2755,-5.2097,-5.1349,-5.0391,-4.9045,-4.8027,-4.7429,-4.6711,-4.601,-4.5382,-4.4706,-4.4317,-4.4317,-4.3977,-4.3648,-4.329,-4.329,-4.329,-4.329,-4.329,-4.329,-4.326,-4.2641,-4.241,-4.2321,-4.1324,-4.0935,-4.0876,-4.0217,-3.9948,-3.9948,-3.9948,-3.9948,-3.9948,-3.9948,-3.9948,-3.9888,-3.9529,-3.9373,-3.9373,-3.9373,-3.9373,-3.9373,-3.9373,-3.9373,-3.9373,-3.9373,-3.9373,-3.932,-3.896,-3.8871,-3.8751,-3.8422,-3.8601,-3.8871,-3.8871,-3.917,-3.9373,-3.9373,-3.9373,-3.9373,-3.9373,-3.8272,-3.7404,-3.7404,-3.6567,-3.5848,-3.5549,-3.5789,-3.5818,-3.5519,-3.5519,-3.5519,-3.5519,-3.5519,-3.5519,-3.5519,-3.5519,-3.5519,-3.5519,-3.5519,-3.5519,-3.5519,-3.5519,-3.5519,-3.5519,-3.5519,-3.5519,-4.182,-4.3345,-4.4741,-4.4562,-4.3563,-4.2621,-4.2528,-4.0883,-3.9373,-3.9373,-4.0573,-4.182,-4.2623,-4.3723,-4.461,-4.4825,-4.5273,-4.6381,-4.8566,-4.9823,-5.1169,-5.2845,-5.3204,-5.3144,-5.2636,-5.1678,-5.0541,-4.9269,-4.8416,-4.7489,-4.6339,-4.61,-4.5442,-4.4347,-4.4227,-4.4167,-4.4167,-4.3559,-4.329,-4.329,-4.329,-4.329,-4.329,-4.329,-4.323,-4.315,-4.2491,-4.2201,-4.2021,-4.0756,-4.0247,-4.0187,-3.9649,-3.9373,-3.9373,-3.9373,-3.9373,-3.9373,-3.9373,-3.9373,-3.9373,-3.9373,-3.9373,-3.9373,-3.9373,-3.9373,-3.9373,-3.9373,-3.9373,-3.9373,-3.9373,-3.9373,-3.9373,-3.9373,-3.9373,-3.9373,-3.9373,-3.9373,-3.9373,-3.9373,-3.9373,-3.9373,-3.9373,-3.9373,-3.9373,-3.9373,-3.8362,-3.7554,-3.7554,-3.7015,-3.6417,-3.5848,-3.6297,-3.6417,-3.5848,-3.5789,-3.5759,-3.5669,-3.5579,-3.5519,-3.5519,-3.5519,-3.5519,-3.5519,-3.5519,-3.5519,-3.5519,-3.5519,-3.5519,-3.5519,-3.5519,-3.5519,-4.175,-4.2278,-4.2612,-4.1624,-4.1631,-4.1709,-4.1124,-4.0177,-3.9373,-3.9373,-4.0027,-4.1016,-4.222,-4.3055,-4.3888,-4.5041,-4.6196,-4.8057,-5.1169,-5.1768,-5.2007,-5.2306,-5.3354,-5.2965,-5.0198,-5.0182,-4.9853,-4.8536,-4.7309,-4.6531,-4.6279,-4.5203,-4.4526,-4.4317,-4.3738,-4.3439,-4.3439,-4.3349,-4.329,-4.329,-4.329,-4.329,-4.329,-4.329,-4.303,-4.25,-4.1841,-4.1205,-4.0636,-3.9888,-3.9559,-3.9559,-3.9469,-3.9373,-3.9373,-3.9373,-3.9373,-3.9373,-3.9373,-3.9373,-3.9373,-3.9373,-3.9373,-3.9373,-3.9373,-3.9373,-3.9373,-3.9373,-3.9373,-3.9373,-3.9373,-3.9373,-3.9373,-3.9373,-3.9373,-3.9373,-3.9373,-3.9373,-3.9373,-3.9373,-3.9373,-3.9373,-3.9373,-3.9373,-3.9373,-3.9373,-3.8751,-3.8242,-3.8242,-3.7674,-3.7225,-3.7135,-3.7195,-3.7225,-3.7135,-3.7105,-3.6896,-3.6357,-3.5818,-3.5519,-3.5519,-3.5519,-3.5519,-3.5519,-3.5519,-3.5519,-3.5519,-3.5519,-3.5519,-3.5519,-3.5519,-3.5519,-4.0769,-4.0814,-4.0817,-4.0604,-4.1808,-4.2933,-4.2264,-4.1806,-4.1406,-4.1085,-4.1302,-4.1782,-4.2701,-4.3718,-4.5185,-4.7578,-4.8432,-4.9359,-5.093,-5.1139,-5.1259,-5.1618,-5.1887,-5.1618,-5.0451,-4.9942,-4.9164,-4.7848,-4.686,-4.595,-4.5274,-4.4646,-4.4137,-4.3768,-4.3439,-4.311,-4.2821,-4.2791,-4.3,-4.329,-4.329,-4.329,-4.329,-4.297,-4.2641,-4.2351,-4.1294,-4.0666,-4.0337,-3.9679,-3.9373,-3.9373,-3.9373,-3.9373,-3.9373,-3.9373,-3.9373,-3.9373,-3.9373,-3.9373,-3.9373,-3.9373,-3.9373,-3.9373,-3.9373,-3.9373,-3.9373,-3.9373,-3.9373,-3.9373,-3.9373,-3.9373,-3.9373,-3.9373,-3.9373,-3.9373,-3.9373,-3.9373,-3.9373,-3.9373,-3.9373,-3.9373,-3.9373,-3.9373,-3.9373,-3.9373,-3.8841,-3.8392,-3.8392,-3.8123,-3.7793,-3.7434,-3.7734,-3.7793,-3.7434,-3.7105,-3.6776,-3.6507,-3.5878,-3.5519,-3.5519,-3.5519,-3.5519,-3.5519,-3.5519,-3.5519,-3.5519,-3.5519,-3.5519,-3.5519,-3.5519,-3.5519,-4.0434,-4.0132,-3.989,-4.0106,-4.1803,-4.3479,-4.3678,-4.3449,-4.315,-4.3269,-4.3069,-4.303,-4.3618,-4.4855,-4.6651,-4.9344,-4.9986,-5.0315,-5.0614,-5.0644,-5.0853,-5.1379,-5.0823,-5.0495,-5.075,-4.9583,-4.8327,-4.716,-4.6322,-4.5394,-4.4377,-4.4167,-4.3798,-4.3319,-4.314,-4.294,-4.262,-4.2321,-4.2462,-4.312,-4.312,-4.314,-4.326,-4.2671,-4.2321,-4.2111,-4.0905,-4.0307,-4.0127,-3.9619,-3.9373,-3.9373,-3.9373,-3.9373,-3.9373,-3.9373,-3.9373,-3.9373,-3.9373,-3.9373,-3.9373,-3.9373,-3.9373,-3.9373,-3.9373,-3.9373,-3.9373,-3.9373,-3.9373,-3.9373,-3.9373,-3.9373,-3.9373,-3.9373,-3.9373,-3.9373,-3.9373,-3.9373,-3.9373,-3.9373,-3.9373,-3.9373,-3.9373,-3.9373,-3.9373,-3.9373,-3.896,-3.8631,-3.8631,-3.8631,-3.8452,-3.7943,-3.8332,-3.8422,-3.7913,-3.7165,-3.6716,-3.6716,-3.5938,-3.5519,-3.5519,-3.5519,-3.5519,-3.5519,-3.5519,-3.5519,-3.5519,-3.5519,-3.5519,-3.5519,-3.5519,-3.5519,-4.1883,-4.1203,-4.0382,-3.9655,-4.0098,-4.1474,-4.4466,-4.3748,-4.3159,-4.5544,-4.5035,-4.4377,-4.5035,-4.6262,-4.7429,-4.8297,-4.9434,-5.0614,-5.1887,-5.2067,-5.2067,-5.2127,-5.1558,-5.069,-4.9569,-4.8207,-4.716,-4.6441,-4.5185,-4.4407,-4.4317,-4.3708,-4.3349,-4.329,-4.2761,-4.2701,-4.323,-4.2073,-4.1811,-4.247,-4.247,-4.2761,-4.326,-4.2671,-4.2081,-4.1414,-4.0696,-4.0068,-3.9499,-3.9403,-3.9373,-3.9373,-3.9373,-3.9373,-3.9373,-3.9373,-3.9373,-3.9373,-3.9373,-3.9373,-3.9373,-3.9373,-3.9373,-3.9373,-3.9373,-3.9373,-3.9373,-3.9373,-3.9373,-3.9373,-3.9373,-3.9373,-3.9373,-3.9373,-3.9373,-3.9373,-3.9373,-3.9373,-3.9373,-3.9373,-3.9373,-3.9373,-3.9373,-3.9373,-3.9373,-3.9373,-3.9379,-3.9313,-3.9313,-3.9313,-3.932,-3.9254,-3.932,-3.932,-3.9254,-3.8093,-3.7345,-3.7345,-3.6178,-3.5519,-3.5519,-3.5519,-3.5519,-3.5519,-3.5519,-3.5519,-3.5519,-3.5519,-3.5519,-3.5519,-3.5519,-3.5519,-3.9653,-4.0325,-4.0995,-3.9702,-4.0217,-4.1654,-4.4137,-4.5065,-4.5723,-4.6741,-4.7189,-4.7219,-4.6651,-4.7638,-4.864,-4.891,-5.0331,-5.1349,-5.102,-5.1319,-5.1289,-5.0481,-5.0152,-4.9643,-4.8745,-4.8207,-4.7309,-4.5783,-4.5214,-4.4556,-4.3708,-4.3439,-4.329,-4.329,-4.2701,-4.2321,-4.2132,-4.1235,-4.0905,-4.1145,-4.2021,-4.253,-4.2701,-4.2081,-4.1384,-4.0726,-4.0068,-3.9649,-3.9373,-3.9373,-3.9373,-3.9373,-3.9373,-3.9373,-3.9373,-3.9373,-3.9373,-3.9373,-3.9373,-3.9373,-3.9373,-3.9373,-3.9373,-3.9373,-3.9373,-3.9373,-3.9373,-3.9373,-3.9373,-3.9373,-3.9373,-3.9373,-3.9373,-3.9373,-3.9373,-3.9373,-3.9373,-3.9373,-3.9373,-3.9373,-3.9738,-4.0038,-4.0038,-4.0038,-4.0038,-4.0038,-3.9679,-3.9373,-3.9373,-3.9373,-3.9373,-3.9373,-3.9373,-3.926,-3.8811,-3.7943,-3.7404,-3.7404,-3.6207,-3.5519,-3.5519,-3.5519,-3.5519,-3.5519,-3.5519,-3.5519,-3.5519,-3.5519,-3.5519,-3.5519,-3.5519,-3.5519,-3.8897,-3.9618,-4.0544,-3.9385,-3.9918,-4.1384,-4.3778,-4.5544,-4.701,-4.8267,-4.8596,-4.8386,-4.7489,-4.7878,-4.8416,-4.8626,-5.0122,-5.096,-5.0062,-5.0331,-5.0272,-4.9419,-4.912,-4.8686,-4.8027,-4.7578,-4.6681,-4.5095,-4.4796,-4.4287,-4.3349,-4.315,-4.303,-4.303,-4.2192,-4.1662,-4.1422,-4.0516,-4.0307,-4.0726,-4.1414,-4.1901,-4.2081,-4.1422,-4.0816,-4.0367,-3.9709,-3.9373,-3.9373,-3.9373,-3.9373,-3.9373,-3.9373,-3.9373,-3.9373,-3.9373,-3.9373,-3.9373,-3.9373,-3.9373,-3.9373,-3.9373,-3.9373,-3.9373,-3.9373,-3.9373,-3.9373,-3.9373,-3.9373,-3.9373,-3.9373,-3.9373,-3.9373,-3.9373,-3.9373,-3.9373,-3.9373,-3.9373,-3.9373,-3.9373,-3.9798,-4.0157,-4.0367,-4.0397,-4.0397,-4.0397,-4.0008,-3.9649,-3.9439,-3.9373,-3.9373,-3.9373,-3.9373,-3.923,-3.8751,-3.8093,-3.7734,-3.7734,-3.6716,-3.6028,-3.5818,-3.5609,-3.5519,-3.5519,-3.5519,-3.5519,-3.5519,-3.5519,-3.5519,-3.5519,-3.5519,-3.5519,-4.0321,-3.9388,-3.8835,-3.8482,-3.8931,-4.0307,-4.3569,-4.4825,-4.6411,-5.0391,-4.9134,-4.7309,-4.7309,-4.677,-4.6488,-4.7189,-4.8386,-4.9299,-4.9299,-4.9299,-4.9299,-4.9299,-4.87,-4.8027,-4.7369,-4.6082,-4.5035,-4.4377,-4.3678,-4.329,-4.329,-4.2701,-4.241,-4.2381,-4.1085,-4.0726,-4.1354,-4.0068,-4.0068,-4.1354,-4.0696,-4.0726,-4.1392,-4.0696,-4.0397,-4.0337,-3.9709,-3.9373,-3.9373,-3.9373,-3.9373,-3.9373,-3.9373,-3.9373,-3.9373,-3.9373,-3.9373,-3.9373,-3.9373,-3.9373,-3.9373,-3.9373,-3.9373,-3.9373,-3.9373,-3.9373,-3.9373,-3.9373,-3.9373,-3.9373,-3.9373,-3.9373,-3.9373,-3.9373,-3.9373,-3.9373,-3.9373,-3.9373,-3.9373,-3.9403,-3.9403,-3.9649,-4.0307,-4.0397,-4.0397,-4.0397,-4.0397,-4.0157,-3.9499,-3.9373,-3.9373,-3.9373,-3.9373,-3.9373,-3.9373,-3.8781,-3.8392,-3.8392,-3.7764,-3.7135,-3.6507,-3.5848,-3.5519,-3.5519,-3.5519,-3.5519,-3.5519,-3.5519,-3.5519,-3.5519,-3.5519,-3.5519,-3.885,-3.8901,-3.9361,-3.9154,-4.0307,-4.2102,-4.4466,-4.5514,-4.6741,-4.9314,-4.8506,-4.7309,-4.7309,-4.716,-4.692,-4.6651,-4.7728,-4.8416,-4.7967,-4.8297,-4.8416,-4.7938,-4.7309,-4.683,-4.6621,-4.5813,-4.5035,-4.4377,-4.4137,-4.3629,-4.2701,-4.25,-4.2201,-4.1722,-4.0846,-4.0487,-4.0696,-3.9858,-3.9619,-4.0008,-3.9798,-4.0068,-4.0696,-4.0487,-4.0157,-3.9709,-3.9499,-3.9373,-3.9373,-3.9373,-3.9373,-3.9373,-3.9373,-3.9373,-3.9373,-3.9373,-3.9373,-3.9373,-3.9373,-3.9373,-3.9373,-3.9373,-3.9373,-3.9373,-3.9373,-3.9373,-3.9373,-3.9373,-3.9373,-3.9373,-3.9373,-3.9373,-3.9373,-3.9373,-3.9373,-3.9373,-3.9373,-3.9373,-3.9559,-4.0008,-4.0487,-4.0876,-4.1055,-4.1085,-4.0935,-4.0457,-4.0008,-3.9649,-3.9439,-3.9373,-3.9373,-3.9373,-3.9373,-3.9373,-3.9373,-3.8781,-3.8601,-3.908,-3.8033,-3.7135,-3.6507,-3.6297,-3.5968,-3.5519,-3.5519,-3.5519,-3.5519,-3.5519,-3.5519,-3.5519,-3.5519,-3.5519,-3.8862,-3.9094,-3.9801,-4.0407,-4.1683,-4.3269,-4.5244,-4.6441,-4.7519,-4.903,-4.8207,-4.7399,-4.7638,-4.7279,-4.686,-4.6741,-4.7369,-4.7758,-4.7369,-4.7429,-4.7369,-4.695,-4.6322,-4.5813,-4.5502,-4.5155,-4.4616,-4.3917,-4.3688,-4.318,-4.244,-4.1901,-4.1414,-4.0995,-4.0337,-4.0008,-4.0008,-3.9349,-3.902,-3.902,-3.902,-3.908,-3.923,-3.9768,-3.9798,-3.9373,-3.914,-3.917,-3.9409,-3.911,-3.917,-3.9373,-3.9373,-3.9373,-3.9373,-3.9373,-3.9373,-3.9373,-3.9373,-3.9373,-3.9373,-3.9373,-3.9373,-3.9373,-3.9373,-3.9373,-3.9373,-3.9373,-3.9373,-3.9373,-3.9373,-3.9373,-3.9373,-3.9373,-3.9373,-3.9373,-3.9373,-3.9619,-3.9918,-4.0337,-4.0935,-4.1474,-4.1752,-4.1811,-4.1662,-4.1272,-4.0397,-3.9709,-3.9403,-3.9373,-3.9373,-3.9373,-3.9373,-3.9373,-3.9373,-3.905,-3.896,-3.9343,-3.8626,-3.7793,-3.6896,-3.6626,-3.6178,-3.5519,-3.5519,-3.5519,-3.5519,-3.5519,-3.5519,-3.5519,-3.5519,-3.5519,-3.9796,-3.966,-4.0053,-4.1859,-4.294,-4.4037,-4.5861,-4.7249,-4.8267,-4.885,-4.8057,-4.7459,-4.7938,-4.71,-4.6501,-4.704,-4.713,-4.713,-4.713,-4.6621,-4.619,-4.619,-4.5633,-4.4975,-4.4377,-4.4197,-4.3898,-4.326,-4.2641,-4.2291,-4.2231,-4.1055,-4.0367,-4.0307,-3.9679,-3.932,-3.932,-3.8631,-3.8302,-3.8302,-3.8302,-3.7973,-3.7464,-3.8811,-3.9379,-3.929,-3.8601,-3.8661,-3.92,-3.8571,-3.8661,-3.9194,-3.9194,-3.926,-3.932,-3.932,-3.9379,-3.9373,-3.9373,-3.9373,-3.9373,-3.9373,-3.9337,-3.9265,-3.9265,-3.9265,-3.9265,-3.9265,-3.9301,-3.9373,-3.9373,-3.9373,-3.9373,-3.9373,-3.9373,-3.9373,-3.9373,-3.9948,-4.0427,-4.0487,-4.0965,-4.1602,-4.2201,-4.2321,-4.2291,-4.2231,-4.1115,-4.0098,-3.9499,-3.9301,-3.9265,-3.9265,-3.9265,-3.9265,-3.9265,-3.9337,-3.9373,-3.9373,-3.9373,-3.8841,-3.7554,-3.6896,-3.6237,-3.5519,-3.5519,-3.5519,-3.5519,-3.5519,-3.5519,-3.5519,-3.5519,-3.5519,-3.9216,-3.8937,-3.9308,-4.1129,-4.3658,-4.5741,-4.619,-4.6488,-4.6621,-4.6232,-4.677,-4.701,-4.6112,-4.6142,-4.6202,-4.5783,-4.5723,-4.5723,-4.5723,-4.5603,-4.5514,-4.5514,-4.4915,-4.4466,-4.4317,-4.3389,-4.277,-4.262,-4.1991,-4.1422,-4.0846,-4.0546,-4.0157,-3.9649,-3.896,-3.8601,-3.8601,-3.7943,-3.7614,-3.7614,-3.7614,-3.7554,-3.7464,-3.8811,-3.911,-3.8571,-3.7913,-3.7704,-3.7823,-3.7674,-3.7704,-3.7853,-3.7853,-3.8153,-3.8601,-3.8601,-3.896,-3.9373,-3.9373,-3.9373,-3.9373,-3.9373,-3.8833,-3.8144,-3.8144,-3.8144,-3.8144,-3.8144,-3.876,-3.9373,-3.9373,-3.9373,-3.9373,-3.9373,-3.9373,-3.9373,-3.9373,-3.9948,-4.0546,-4.1055,-4.1294,-4.1482,-4.1602,-4.1632,-4.1452,-4.0905,-4.0157,-3.9589,-3.9439,-3.8657,-3.8144,-3.8144,-3.8144,-3.8144,-3.8144,-3.8907,-3.9373,-3.9373,-3.9373,-3.905,-3.8212,-3.7554,-3.6686,-3.5519,-3.5519,-3.5519,-3.5519,-3.5519,-3.5519,-3.5519,-3.5519,-3.5519,-3.9361,-3.9216,-3.9613,-4.1791,-4.4077,-4.5843,-4.5843,-4.5843,-4.5633,-4.4975,-4.5633,-4.6112,-4.5424,-4.5154,-4.5073,-4.5281,-4.4857,-4.4689,-4.5191,-4.5035,-4.4825,-4.4825,-4.3958,-4.3389,-4.3389,-4.253,-4.1931,-4.1931,-4.1294,-4.0756,-4.0427,-4.0098,-3.9619,-3.896,-3.8571,-3.8242,-3.7913,-3.7285,-3.6956,-3.6956,-3.6956,-3.7135,-3.7434,-3.8123,-3.8242,-3.7883,-3.7255,-3.7135,-3.7375,-3.7075,-3.7135,-3.7404,-3.7404,-3.7614,-3.7973,-3.8272,-3.8631,-3.896,-3.932,-3.9373,-3.9301,-3.8797,-3.8256,-3.7701,-3.7175,-3.7021,-3.7021,-3.7021,-3.7814,-3.862,-3.862,-3.9017,-3.9373,-3.9373,-3.9373,-3.9373,-3.9373,-3.9948,-4.0487,-4.0846,-4.1452,-4.1782,-4.1482,-4.1422,-4.1145,-4.0487,-4.0098,-3.9768,-3.9469,-3.8472,-3.7994,-3.8509,-3.8107,-3.7994,-3.8509,-3.9053,-3.9373,-3.9373,-3.9373,-3.911,-3.8422,-3.8063,-3.7434,-3.6447,-3.6118,-3.5968,-3.5968,-3.5669,-3.5519,-3.5519,-3.5519,-3.5519,-3.977,-3.9842,-4.0351,-4.2757,-4.4128,-4.4975,-4.5095,-4.5125,-4.4945,-4.4287,-4.4766,-4.5214,-4.5005,-4.404,-4.3586,-4.4501,-4.3796,-4.3427,-4.4263,-4.4221,-4.4026,-4.3675,-4.2921,-4.2351,-4.2231,-4.1632,-4.1205,-4.1205,-4.0606,-4.0217,-4.0217,-3.9589,-3.899,-3.8422,-3.8182,-3.7793,-3.7255,-3.6626,-3.6327,-3.6327,-3.6327,-3.6596,-3.7075,-3.7075,-3.7135,-3.7225,-3.6596,-3.6596,-3.7045,-3.6537,-3.6626,-3.7075,-3.7075,-3.7135,-3.7315,-3.7973,-3.8212,-3.8332,-3.914,-3.9175,-3.8832,-3.804,-3.7548,-3.7127,-3.6212,-3.5934,-3.5974,-3.6172,-3.6982,-3.7843,-3.8032,-3.873,-3.9373,-3.9373,-3.9373,-3.9373,-3.9373,-3.9948,-4.0397,-4.0397,-4.1294,-4.1901,-4.1294,-4.1115,-4.0905,-4.0457,-4.0307,-4.0038,-3.9463,-3.8294,-3.7927,-3.9017,-3.8144,-3.7956,-3.9017,-3.9301,-3.9373,-3.9373,-3.9373,-3.917,-3.8601,-3.8571,-3.8302,-3.7764,-3.7015,-3.6559,-3.6391,-3.6022,-3.572,-3.5555,-3.5663,-3.5729,-3.9908,-4.0162,-4.0951,-4.299,-4.3546,-4.3708,-4.4317,-4.4436,-4.4257,-4.3559,-4.4436,-4.4945,-4.3768,-4.2731,-4.2071,-4.2096,-4.155,-4.1047,-4.0658,-4.2233,-4.2852,-4.1268,-4.1853,-4.2171,-4.1602,-4.0905,-4.0516,-4.0516,-3.9918,-3.9523,-3.9523,-3.8901,-3.8482,-3.8392,-3.7315,-3.6686,-3.6596,-3.5968,-3.5639,-3.5639,-3.5639,-3.5669,-3.5759,-3.5759,-3.6058,-3.6567,-3.5908,-3.5699,-3.5759,-3.5669,-3.5699,-3.5759,-3.5759,-3.6118,-3.6686,-3.7315,-3.7524,-3.7704,-3.899,-3.8413,-3.7213,-3.7641,-3.6554,-3.5102,-3.4938,-3.4897,-3.5102,-3.5974,-3.6982,-3.7994,-3.8943,-3.9301,-3.9373,-3.9373,-3.9373,-3.9373,-3.9373,-3.9948,-4.0397,-4.0397,-4.0546,-4.0636,-4.0546,-4.0068,-3.9858,-4.0337,-3.9918,-3.9529,-3.9403,-3.7634,-3.6799,-3.7919,-3.706,-3.6866,-3.7919,-3.887,-3.9373,-3.9373,-3.9373,-3.9379,-3.929,-3.929,-3.9194,-3.914,-3.7913,-3.6842,-3.597,-3.6754,-3.669,-3.5825,-3.6196,-3.6656,-3.9935,-4.0345,-4.096,-4.169,-4.2113,-4.2409,-4.2638,-4.2671,-4.2581,-4.2312,-4.2701,-4.303,-4.2821,-4.1384,-4.0334,-4.0567,-3.9324,-3.849,-3.8892,-3.9826,-4.0354,-4.0147,-4.0265,-4.033,-4.03,-3.9679,-3.911,-3.8751,-3.8452,-3.8302,-3.8302,-3.8003,-3.7674,-3.7345,-3.6776,-3.6297,-3.5938,-3.5639,-3.5519,-3.5519,-3.5519,-3.5519,-3.5519,-3.5519,-3.5669,-3.5908,-3.5639,-3.5519,-3.5519,-3.5519,-3.5519,-3.5519,-3.5519,-3.5669,-3.6028,-3.6656,-3.6896,-3.7015,-3.7973,-3.802,-3.7542,-3.6656,-3.6002,-3.5319,-3.4137,-3.422,-3.4774,-3.5238,-3.6554,-3.7919,-3.8397,-3.8943,-3.9373,-3.9373,-3.9373,-3.9373,-3.9373,-3.9649,-3.9948,-4.0337,-4.0098,-3.9978,-4.0337,-3.9858,-3.9529,-3.9798,-3.9619,-3.9373,-3.9373,-3.804,-3.7252,-3.7767,-3.7396,-3.706,-3.6905,-3.8442,-3.9156,-3.8546,-3.8509,-3.8797,-3.9373,-3.8833,-3.8797,-3.9373,-3.7889,-3.711,-3.7281,-3.6787,-3.6611,-3.6752,-3.6901,-3.7135,-3.998,-4.0287,-4.0652,-4.0673,-4.0894,-4.112,-4.1388,-4.1302,-4.1175,-4.1354,-4.1422,-4.1482,-4.1632,-3.994,-3.8644,-3.894,-3.7466,-3.6508,-3.7196,-3.8062,-3.8746,-3.9088,-3.8986,-3.9015,-3.9128,-3.8542,-3.7943,-3.7434,-3.7404,-3.7404,-3.7404,-3.7255,-3.6956,-3.6507,-3.6327,-3.5998,-3.5519,-3.5519,-3.5519,-3.5519,-3.5519,-3.5519,-3.5519,-3.5519,-3.5519,-3.5519,-3.5519,-3.5519,-3.5519,-3.5519,-3.5519,-3.5519,-3.5519,-3.5519,-3.5579,-3.6237,-3.6387,-3.6357,-3.7135,-3.7391,-3.7135,-3.5759,-3.535,-3.5116,-3.3598,-3.3683,-3.4345,-3.4635,-3.5911,-3.7325,-3.772,-3.8514,-3.9261,-3.9367,-3.9559,-3.9619,-3.9469,-3.9373,-3.9559,-4.0068,-3.9738,-3.9589,-4.0068,-3.9738,-3.9373,-3.9373,-3.9373,-3.9373,-3.9373,-3.8472,-3.7919,-3.8182,-3.7701,-3.7175,-3.6643,-3.8069,-3.8657,-3.7843,-3.8069,-3.8583,-3.9373,-3.862,-3.8583,-3.9373,-3.7864,-3.7455,-3.8246,-3.699,-3.6758,-3.7499,-3.7321,-3.7491,-4.0096,-4.0021,-4.0085,-4.0729,-4.0292,-4.0029,-4.1322,-4.0982,-4.0636,-4.1265,-4.1422,-4.0995,-3.9798,-3.8322,-3.7181,-3.6759,-3.6104,-3.5476,-3.4939,-3.7687,-3.9127,-3.7423,-3.8504,-3.9128,-3.8512,-3.7853,-3.7434,-3.7404,-3.7404,-3.7404,-3.7404,-3.6866,-3.6507,-3.6477,-3.5878,-3.5549,-3.5519,-3.5519,-3.5519,-3.5519,-3.5519,-3.5519,-3.5519,-3.5519,-3.5519,-3.5519,-3.5519,-3.5519,-3.5519,-3.5519,-3.5519,-3.5519,-3.5519,-3.5519,-3.5579,-3.6237,-3.6088,-3.5729,-3.6985,-3.6121,-3.4582,-3.5124,-3.4405,-3.324,-3.3111,-3.3154,-3.3386,-3.4428,-3.513,-3.5963,-3.7423,-3.8275,-3.8861,-3.9275,-3.9888,-4.0187,-3.9559,-3.9373,-3.9403,-3.9433,-3.9403,-3.9403,-3.9433,-3.9403,-3.9373,-3.9373,-3.9373,-3.9373,-3.9373,-3.8472,-3.8182,-3.9228,-3.7482,-3.6682,-3.7625,-3.7843,-3.7881,-3.7805,-3.876,-3.9337,-3.9373,-3.9337,-3.9337,-3.9373,-3.8302,-3.7785,-3.7823,-3.7757,-3.7728,-3.7765,-3.7131,-3.7704,-4.0113,-4.0044,-4.0074,-4.0226,-4.0011,-3.9777,-3.9676,-3.9456,-3.9173,-3.8887,-3.8841,-3.8484,-3.7367,-3.7175,-3.6877,-3.5885,-3.4737,-3.3785,-3.3162,-3.4147,-3.5036,-3.5349,-3.5836,-3.6454,-3.7122,-3.6956,-3.6626,-3.6207,-3.6178,-3.6178,-3.6178,-3.5968,-3.5848,-3.5848,-3.5639,-3.5519,-3.5519,-3.5519,-3.5519,-3.5519,-3.5519,-3.5519,-3.5519,-3.5519,-3.5519,-3.5519,-3.5519,-3.5519,-3.5519,-3.5519,-3.5519,-3.5519,-3.5519,-3.5519,-3.5519,-3.5759,-3.5699,-3.5579,-3.6028,-3.5946,-3.5594,-3.4882,-3.4609,-3.4338,-3.3369,-3.3598,-3.4178,-3.4594,-3.5571,-3.6811,-3.809,-3.887,-3.9537,-4.0434,-4.0546,-4.0337,-4.0098,-3.9709,-3.9373,-3.9373,-3.9373,-3.9373,-3.9373,-3.9373,-3.9559,-3.9978,-4.0038,-4.0038,-4.0038,-3.9713,-3.9202,-3.8464,-3.7701,-3.6827,-3.5882,-3.6397,-3.676,-3.676,-3.7137,-3.7965,-3.9337,-3.873,-3.8694,-3.9373,-3.9017,-3.8833,-3.8833,-3.8144,-3.8144,-3.8833,-3.8568,-3.8779,-4.0113,-4.0113,-4.0087,-3.9967,-3.977,-3.9462,-3.9116,-3.8842,-3.8493,-3.7922,-3.7782,-3.7451,-3.6312,-3.6465,-3.632,-3.4971,-3.3658,-3.2641,-3.2265,-3.2523,-3.3005,-3.3853,-3.4335,-3.4996,-3.5908,-3.6101,-3.5968,-3.5549,-3.5519,-3.5519,-3.5519,-3.5519,-3.5519,-3.5519,-3.5519,-3.5519,-3.5519,-3.5519,-3.5519,-3.5519,-3.5519,-3.5519,-3.5519,-3.5519,-3.5519,-3.5519,-3.5519,-3.5519,-3.5457,-3.5133,-3.5001,-3.5001,-3.5001,-3.5001,-3.5034,-3.5359,-3.5519,-3.5519,-3.5519,-3.5677,-3.579,-3.4659,-3.4514,-3.4525,-3.342,-3.3598,-3.4189,-3.437,-3.5321,-3.6628,-3.8183,-3.9398,-4.0237,-4.0486,-4.0472,-4.0323,-3.9958,-3.9602,-3.9373,-3.9373,-3.9553,-3.9679,-3.9469,-3.9798,-4.0157,-4.0367,-4.0397,-4.0397,-4.0397,-3.9892,-3.9052,-3.791,-3.7204,-3.62,-3.4815,-3.5319,-3.5854,-3.6172,-3.6526,-3.7548,-3.9337,-3.8694,-3.8657,-3.9373,-3.9373,-3.9373,-3.9373,-3.8323,-3.836,-3.9373,-3.9017,-3.9172,0.0,0.0,0.0,-4.0113,-3.9532,-3.9106,-3.9742,-3.9311,-3.8767,-3.8618,-3.8582,-3.8137,-3.6737,-3.6142,-3.543,-3.3967,-3.2885,-3.2231,-3.219,-3.3064,-3.3516,-3.3027,-3.4121,-3.4899,-3.4969,-3.5288,-3.5457,-3.5519,-3.5519,-3.5519,-3.5519,-3.5519,-3.5519,-3.5519,-3.5519,-3.5519,-3.5519,-3.5519,-3.5519,-3.5519,-3.5519,-3.5519,-3.5519,-3.5519,-3.5519,-3.5519,-3.5519,-3.5519,-3.5424,-3.4413,-3.3979,-3.3979,-3.3979,-3.3979,-3.4143,-3.5133,-3.5519,-3.5519,-3.5519,-3.5276,-3.486,-3.4464,-3.4077,-3.3709,-3.3276,-3.3154,-3.328,-3.379,-3.4299,-3.5239,-3.7546,-3.9704,-4.0901,-3.9305,-3.9618,-4.0032,-3.9064,-3.909,-3.9301,-3.9337,-3.9881,-4.0121,-3.9486,-4.0449,-4.1107,-4.0479,-4.039,-4.0353,-4.0323,-3.8844,-3.7767,-3.7767,-3.5922,-3.4718,-3.4718,-3.4677,-3.5102,-3.6132,-3.7175,-3.8285,-3.9367,-3.9439,-3.9469,-3.9433,-3.9433,-3.9433,-3.9433,-3.8389,-3.8427,-3.9403,-3.8389,-3.8814,-4.0113,0.0,0.0,0.0,0.0,0.0,-3.928,-3.9013,-3.8715,-3.8159,-3.8013,-3.7709,-3.6723,-3.5957,-3.5195,-3.4679,-3.3477,-3.2415,-3.1735,-3.1569,-3.1652,-3.2186,-3.2273,-3.277,-3.4134,-3.4361,-3.4739,-3.5424,-3.5519,-3.5519,-3.5519,-3.5519,-3.5519,-3.5519,-3.5519,-3.5519,-3.5519,-3.5519,-3.5519,-3.5519,-3.5519,-3.5519,-3.5519,-3.5519,-3.5519,-3.5519,-3.5519,-3.5519,-3.5424,-3.4413,-3.3979,-3.3979,-3.3979,-3.3979,-3.4143,-3.5133,-3.5519,-3.5579,-3.6058,-3.616,-3.5918,-3.5265,-3.5419,-3.5746,-3.4615,-3.4262,-3.4392,-3.4923,-3.4868,-3.5417,-3.8608,-3.9522,-3.9955,-4.1146,-3.9692,-3.8453,-3.9702,-3.8466,-3.7329,-3.8107,-3.8364,-3.8606,-3.8897,-3.9284,-3.9605,-3.9896,-3.9955,-3.9508,-3.8246,-3.7653,-3.7174,-3.6699,-3.548,-3.4718,-3.4718,-3.3995,-3.4304,-3.6093,-3.6487,-3.7682,-4.0024,-4.0127,-4.0337,-4.0816,-4.0846,-4.0846,-4.0846,-4.0077,-3.9839,-4.0157,-4.0315,-4.0642,-4.0113,-4.0113,-4.0113,-4.0113,0.0,0.0,-3.9532,-3.9394,-3.9183,-3.8414,-3.8246,-3.8019,-3.7233,-3.6384,-3.5627,-3.5091,-3.372,-3.252,-3.2052,-3.1215,-3.0781,-3.1358,-3.1273,-3.1646,-3.2735,-3.3533,-3.4245,-3.4839,-3.5231,-3.5519,-3.5519,-3.5519,-3.5519,-3.5519,-3.5519,-3.5519,-3.5519,-3.5519,-3.5519,-3.5519,-3.5519,-3.5519,-3.5519,-3.5519,-3.5294,-3.4905,-3.5326,-3.5034,-3.424,-3.3671,-3.3429,-3.3394,-3.3226,-3.3269,-3.3561,-3.4797,-3.5337,-3.5609,-3.6267,-3.6477,-3.645,-3.6057,-3.6052,-3.5975,-3.4995,-3.4387,-3.4192,-3.4977,-3.5466,-3.6185,-3.795,-3.8863,-3.9319,-3.9242,-3.8875,-3.8445,-3.811,-3.759,-3.737,-3.772,-3.8045,-3.8179,-3.8093,-3.8692,-3.9165,-3.9069,-3.8859,-3.8375,-3.7327,-3.6606,-3.6008,-3.5628,-3.465,-3.4037,-3.4037,-3.3471,-3.3969,-3.6093,-3.646,-3.7753,-4.0293,-4.0666,-4.0995,-4.1422,-4.1422,-4.1542,-4.1841,-4.1115,-4.0816,-4.0816,-4.1205,-4.1572,-3.9876,-3.9901,-3.9952,-3.9952,-4.0028,0.0,-4.0113,-4.0113,-3.9901,-3.9183,-3.9016,-3.8799,-3.8048,-3.7352,-3.6569,-3.5637,-3.4033,-3.2836,-3.2722,-3.1445,-3.0557,-3.0608,-3.0868,-3.1082,-3.1167,-3.27,-3.3774,-3.3979,-3.4938,-3.5519,-3.5519,-3.5519,-3.5519,-3.5519,-3.5519,-3.5519,-3.5519,-3.5519,-3.5519,-3.5519,-3.5519,-3.5519,-3.5519,-3.5519,-3.5034,-3.4211,-3.4971,-3.4341,-3.2735,-3.2522,-3.2451,-3.2398,-3.2059,-3.2165,-3.2723,-3.4306,-3.518,-3.5687,-3.6443,-3.6686,-3.673,-3.6867,-3.6316,-3.5471,-3.5022,-3.4095,-3.3442,-3.4368,-3.584,-3.6998,-3.6463,-3.7799,-3.8597,-3.5695,-3.7422,-3.8908,-3.5656,-3.6643,-3.8047,-3.7634,-3.8072,-3.8224,-3.722,-3.8355,-3.9057,-3.791,-3.7318,-3.6961,-3.6784,-3.5422,-3.4511,-3.4511,-3.3683,-3.3111,-3.3111,-3.3197,-3.4121,-3.6175,-3.7007,-3.8353,-4.0532,-4.1175,-4.1534,-4.1594,-4.1594,-4.1893,-4.25,-4.1841,-4.1572,-4.1594,-4.1594,-4.1901,-3.8418,-3.8663,-3.9123,-3.9123,-3.961,0.0,-4.0113,-4.0113,-4.0062,-3.9901,-3.9876,-3.961,-3.8827,-3.858,-3.8185,-3.7408,-3.5856,-3.4094,-3.2395,-3.0894,-3.0131,-3.0557,-3.0301,-3.0381,-3.1156,-3.1536,-3.2379,-3.3876,-3.4938,-3.5519,-3.5519,-3.5519,-3.5519,-3.5519,-3.5519,-3.5519,-3.5519,-3.5519,-3.5519,-3.5519,-3.5519,-3.5519,-3.5519,-3.5519,-3.5392,-3.5166,-3.4543,-3.4075,-3.3602,-3.2092,-3.1462,-3.1489,-3.1373,-3.1675,-3.2369,-3.4271,-3.5357,-3.6038,-3.752,-3.8033,-3.7983,-3.7709,-3.7491,-3.7148,-3.6184,-3.5197,-3.4334,-3.411,-3.4911,-3.5927,-3.6376,-3.6407,-3.6425,-3.6675,-3.6266,-3.5981,-3.6497,-3.5694,-3.5053,-3.5782,-3.6404,-3.6764,-3.6636,-3.6887,-3.6891,-3.6182,-3.5995,-3.542,-3.4058,-3.3632,-3.3386,-3.3386,-3.324,-3.3111,-3.3111,-3.3869,-3.5151,-3.6889,-3.7935,-3.9567,-4.1884,-4.2141,-4.2402,-4.2901,-4.2901,-4.2961,-4.315,-4.253,-4.2432,-4.2901,-4.2901,-4.2731,-3.8004,-3.8048,-3.8442,-3.8799,-3.9209,0.0,0.0,-4.0113,-4.0113,-4.0113,-3.9808,-3.9412,-3.9023,-3.8626,-3.822,-3.7866,-3.6648,-3.5282,-3.3788,-3.2218,-3.1243,-3.1306,-3.0829,-3.0495,-3.0495,-3.0932,-3.1983,-3.3842,-3.4938,-3.5519,-3.5519,-3.5519,-3.5519,-3.5519,-3.5519,-3.5519,-3.5519,-3.5519,-3.5519,-3.5519,-3.5519,-3.5519,-3.5519,-3.5519,-3.5228,-3.471,-3.4211,-3.3463,-3.2522,-3.1609,-3.0932,-3.052,-3.0804,-3.1187,-3.1755,-3.3028,-3.4317,-3.5581,-3.6394,-3.7445,-3.8381,-3.8178,-3.7957,-3.7587,-3.6526,-3.533,-3.423,-3.3997,-3.4299,-3.4785,-3.512,-3.5165,-3.5099,-3.5141,-3.5315,-3.5399,-3.5145,-3.4871,-3.4719,-3.4719,-3.5138,-3.5421,-3.5226,-3.5434,-3.5394,-3.4848,-3.4547,-3.405,-3.3205,-3.3111,-3.3111,-3.3111,-3.3111,-3.3326,-3.3827,-3.4648,-3.5952,-3.7913,-3.9104,-4.0587,-4.2342,-4.2671,-4.3,-4.329,-4.329,-4.329,-4.329,-4.3,-4.3,-4.329,-4.329,-4.311,-3.7731,-3.7567,-3.7703,-3.833,-3.869,-3.9069,0.0,0.0,0.0,-4.0113,-3.9639,-3.9174,-3.9005,-3.8589,-3.8143,-3.7878,-3.7287,-3.6594,-3.583,-3.4482,-3.3227,-3.2252,-3.1755,-3.1119,-3.0177,-3.0895,-3.2092,-3.3636,-3.4839,-3.5519,-3.5519,-3.5519,-3.5519,-3.5519,-3.5519,-3.5519,-3.5519,-3.5519,-3.5519,-3.5519,-3.5519,-3.5519,-3.5519,-3.5519,-3.5067,-3.4279,-3.4081,-3.3017,-3.1462,-3.1278,-3.0658,-2.9829,-3.0281,-3.0764,-3.1337,-3.219,-3.3688,-3.5268,-3.5542,-3.6845,-3.8392,-3.8392,-3.7989,-3.7281,-3.5974,-3.4821,-3.3872,-3.3771,-3.3822,-3.3872,-3.3771,-3.4203,-3.4428,-3.3368,-3.4526,-3.5427,-3.3641,-3.4281,-3.4951,-3.4073,-3.4248,-3.4424,-3.3972,-3.4247,-3.4338,-3.3827,-3.337,-3.3111,-3.3111,-3.3111,-3.3197,-3.3386,-3.3386,-3.3878,-3.5057,-3.5814,-3.7098,-3.9071,-4.0398,-4.1557,-4.2551,-4.306,-4.329,-4.329,-4.329,-4.329,-4.329,-4.329,-4.329,-4.329,-4.329,-4.329,-3.6851,-3.6687,-3.6752,-3.6843,-3.7901,-3.8908,-3.9016,0.0,-4.0113,-4.0113,0.0,-3.9774,-3.9106,0.0,0.0,-3.8106,-3.8314,-3.8346,-3.7617,-3.7313,-3.6043,-3.2897,-3.247,-3.2055,-3.1156,-3.1901,-3.2522,-3.2735,-3.4442,-3.5519,-3.5519,-3.5519,-3.5519,-3.5519,-3.5519,-3.5519,-3.5519,-3.5519,-3.5519,-3.5519,-3.5519,-3.5519,-3.5519,-3.5519,-3.5424,-3.5294,-3.4409,-3.3429,-3.2379,-3.1536,-3.0658,-2.9804,-2.9854,-3.0511,-3.1629,-3.3587,-3.5034,-3.6252,-3.7556,-3.8172,-3.8392,-3.8392,-3.7453,-3.6013,-3.4053,-3.3662,-3.3796,-3.3294,-3.352,-3.3796,-3.3294,-3.392,-3.4428,-3.3368,-3.3995,-3.4684,-3.3933,-3.3935,-3.4073,-3.3897,-3.3947,-3.3972,-3.3897,-3.3935,-3.382,-3.3262,-3.3162,-3.3111,-3.3111,-3.3111,-3.3471,-3.4428,-3.4511,-3.5151,-3.6769,-3.7845,-3.9057,-4.0498,-4.1597,-4.2494,-4.317,-4.326,-4.329,-4.329,-4.329,-4.329,-4.329,-4.329,-4.329,-4.329,-4.329,-4.329,-3.6097,-3.623,-3.6557,-3.66,-3.7367,-3.8299,-3.8756,-3.9183,-3.9558,-3.9978,0.0,0.0,0.0,0.0,0.0,0.0,-3.8858,-3.902,-3.7392,-3.7889,-3.7343,-3.4438,-3.4134,-3.3557,-3.2164,-3.2841,-3.3429,-3.3429,-3.4706,-3.5519,-3.5519,-3.5519,-3.5519,-3.5519,-3.5519,-3.5519,-3.5519,-3.5519,-3.5519,-3.5519,-3.5519,-3.5519,-3.5519,-3.5519,-3.5519,-3.5424,-3.4442,-3.3463,-3.255,-3.192,-3.1112,-3.0385,-3.1292,-3.1746,-3.2019,-3.323,-3.471,-3.6097,-3.6357,-3.705,-3.7779,-3.7575,-3.6864,-3.5934,-3.447,-3.3751,-3.337,-3.3144,-3.3244,-3.337,-3.3187,-3.3428,-3.3683,-3.3197,-3.3428,-3.3692,-3.35,-3.342,-3.342,-3.342,-3.342,-3.342,-3.342,-3.342,-3.3345,-3.3119,-3.3111,-3.3326,-3.3953,-3.4037,-3.4428,-3.548,-3.59,-3.6673,-3.8031,-3.9229,-4.0477,-4.1627,-4.2505,-4.306,-4.329,-4.329,-4.329,-4.329,-4.329,-4.329,-4.329,-4.329,-4.329,-4.329,-4.329,-4.329,-3.5908,-3.5998,-3.6252,-3.6287,-3.6816,-3.7467,-3.8144,-3.8608,-3.9076,-3.9636,-3.9522,0.0,0.0,0.0,-3.8971,-3.8058,0.0,-3.9463,-3.7594,-3.8413,-3.8339,-3.5892,-3.5358,-3.4604,-3.3122,-3.3602,-3.3979,-3.3979,-3.4938,-3.5519,-3.5519,-3.5519,-3.5519,-3.5519,-3.5519,-3.5519,-3.5519,-3.5519,-3.5519,-3.5519,-3.5519,-3.5519,-3.5519,-3.5519,-3.5519,-3.5457,-3.4739,-3.3842,-3.2967,-3.2855,-3.2266,-3.1552,-3.3077,-3.3607,-3.3587,-3.3919,-3.5003,-3.6194,-3.577,-3.6409,-3.7287,-3.6597,-3.6294,-3.5974,-3.465,-3.3725,-3.3111,-3.3111,-3.3111,-3.3111,-3.3111,-3.3111,-3.3111,-3.3111,-3.3111,-3.3111,-3.3111,-3.3111,-3.3111,-3.3111,-3.3111,-3.3111,-3.3111,-3.3111,-3.3162,-3.3294,-3.3444,-3.3861,-3.4805,-3.5178,-3.5764,-3.6816,-3.7494,-3.8411,-3.9673,-4.0665,-4.1626,-4.2572,-4.306,-4.329,-4.329,-4.329,-4.329,-4.329,-4.329,-4.329,-4.329,-4.329,-4.329,-4.329,-4.329,-4.329,-3.6447,-3.5998,-3.5519,-3.5522,-3.6101,-3.6631,-3.6661,-3.7815,-3.8908,-3.8935,-3.9525,-3.9842,-3.9106,-3.9605,-3.9605,-3.8159,-3.914,0.0,0.0,-3.9555,-3.9213,-3.6946,-3.5799,-3.4863,-3.4047,-3.3979,-3.3979,-3.3979,-3.4938,-3.5519,-3.5519,-3.5519,-3.5519,-3.5519,-3.5519,-3.5519,-3.5519,-3.5519,-3.5519,-3.5519,-3.5519,-3.5519,-3.5519,-3.5519,-3.5519,-3.5519,-3.5457,-3.4872,-3.4002,-3.4634,-3.4335,-3.3615,-3.4858,-3.5977,-3.6835,-3.6864,-3.6835,-3.683,-3.7203,-3.737,-3.7184,-3.5808,-3.5742,-3.5814,-3.3784,-3.3111,-3.3111,-3.3111,-3.3111,-3.3111,-3.3111,-3.3111,-3.3111,-3.3111,-3.3111,-3.3111,-3.3111,-3.3111,-3.3111,-3.3111,-3.3111,-3.3111,-3.3111,-3.3111,-3.3269,-3.3796,-3.4314,-3.4861,-3.5373,-3.6428,-3.7526,-3.8619,-3.9312,-4.0421,-4.2145,-4.2342,-4.2641,-4.323,-4.329,-4.329,-4.329,-4.329,-4.329,-4.329,-4.329,-4.329,-4.329,-4.329,-4.329,-4.329,-4.329,-4.329,-3.5848,-3.5998,-3.6058,-3.5609,-3.6017,-3.6554,-3.66,-3.6993,-3.7526,-3.8048,-3.8772,-3.9249,-3.899,-3.9546,-3.9774,-3.8768,-3.9469,-3.9503,0.0,-3.8159,-3.8321,-3.7529,-3.7138,-3.6599,-3.579,-3.5301,-3.505,-3.5008,-3.4909,-3.5011,-3.5489,-3.5519,-3.5519,-3.5519,-3.5519,-3.5519,-3.5519,-3.5519,-3.5519,-3.5519,-3.5519,-3.5519,-3.5519,-3.5519,-3.5519,-3.5519,-3.5519,-3.4938,-3.4065,-3.5129,-3.5022,-3.426,-3.5477,-3.6595,-3.7526,-3.7526,-3.7645,-3.7819,-3.751,-3.7227,-3.6831,-3.5655,-3.5232,-3.4938,-3.3513,-3.3111,-3.3111,-3.3111,-3.3111,-3.3111,-3.3111,-3.3111,-3.3111,-3.3111,-3.3111,-3.3111,-3.3111,-3.3111,-3.3111,-3.3111,-3.3111,-3.3111,-3.3111,-3.337,-3.3696,-3.3872,-3.5046,-3.6204,-3.7108,-3.8209,-3.9319,-4.0389,-4.1133,-4.1763,-4.2342,-4.2761,-4.309,-4.329,-4.329,-4.329,-4.329,-4.329,-4.329,-4.329,-4.329,-4.329,-4.329,-4.329,-4.329,-4.329,-4.3738,-4.3708,-3.5519,-3.5818,-3.6028,-3.5609,-3.5998,-3.6463,-3.6255,-3.66,-3.7095,-3.7612,-3.8351,-3.8947,-3.921,-3.9726,-3.9943,-3.9445,-3.9808,-3.9503,0.0,-3.799,-3.8259,-3.8243,-3.821,-3.7694,-3.6349,-3.6073,-3.5738,-3.5194,-3.4951,-3.504,-3.5489,-3.5519,-3.5519,-3.5519,-3.5519,-3.5519,-3.5519,-3.5519,-3.5519,-3.5519,-3.5519,-3.5519,-3.5519,-3.5519,-3.5519,-3.5519,-3.5519,-3.5133,-3.4631,-3.5676,-3.5848,-3.5536,-3.6333,-3.7005,-3.7526,-3.7757,-3.7812,-3.7706,-3.6937,-3.6482,-3.6118,-3.537,-3.4902,-3.4511,-3.3428,-3.3111,-3.3111,-3.3111,-3.3111,-3.3111,-3.3111,-3.3111,-3.3111,-3.3111,-3.3262,-3.337,-3.337,-3.352,-3.3596,-3.3395,-3.352,-3.3596,-3.3395,-3.3997,-3.4533,-3.4791,-3.6111,-3.7516,-3.8796,-3.9992,-4.0959,-4.1675,-4.2312,-4.2701,-4.2701,-4.309,-4.329,-4.329,-4.329,-4.329,-4.329,-4.329,-4.3409,-4.3648,-4.3409,-4.3409,-4.3648,-4.3409,-4.3409,-4.3648,-4.3828,-4.3828]},{"header":{"parameterUnit":"m.s-1","parameterCategory":1,"la1":30.6,"la2":29.2853,"lo1":-89.7004,"lo2":-87.6739,"dy":0.0162,"dx":0.0183,"nx":112,"ny":82,"refTime":"2024-03-31T12:00:00:Z","depth":0,"parameterNumber":3,"parameterNumberName":"V-component_of_WINDS"},"data":[0.0,0.0,0.0,0.0,0.0,0.0,0.0,0.0,0.0,0.0,0.0,0.0,0.0,0.0,0.0,0.0,0.0,0.0,0.0,0.0,0.0,0.0,0.0,0.0,0.0,0.0,0.0,0.0,0.0,0.0,0.0,0.0,0.0,0.0,0.0,0.0,0.0,0.0,0.0,0.0,0.0,0.0,0.0,0.0,0.0,0.0,0.0,0.0,0.0,0.0,0.0,0.0,0.0,0.0,0.0,0.0,0.0,0.0,0.0,0.0,0.0,0.0,0.0,0.0,0.0,0.0,0.0,0.0,0.0,0.0,0.0,0.0,0.0,0.0,0.0,0.0,0.0,0.0,0.0,0.0,0.0,0.0,0.0,0.0,0.0,0.0,0.0,0.0,0.0,0.0,1.271,1.0113,0.9198,0.8465,0.7852,0.6321,0.5213,0.4549,0.0,0.0,0.0,0.0,0.0,0.0,0.0,0.0,0.0,0.0,0.0,0.0,0.0,0.0,0.0,0.0,0.0,0.0,0.0,0.0,0.0,0.0,0.0,0.0,0.0,0.0,0.0,0.0,0.0,0.0,0.0,0.0,0.0,0.0,0.0,0.0,0.0,0.0,0.0,0.0,0.0,0.0,0.0,0.0,0.0,0.0,0.0,0.0,0.0,0.0,0.0,0.0,0.0,0.0,0.0,0.0,0.0,0.0,0.0,0.0,0.0,0.0,0.0,0.0,0.0,0.0,0.0,0.0,0.0,0.0,0.0,0.0,0.0,0.0,0.0,0.0,0.0,0.0,0.0,0.0,0.0,0.0,0.0,0.0,0.0,0.0,0.0,0.0,0.0,0.0,0.0,0.0,0.0,0.0,0.0,0.0,0.0,0.0,0.0,0.0,0.0,0.0,0.0,0.0,1.2548,1.1853,1.1875,1.0799,0.7852,0.7248,0.6319,0.4593,0.0,0.0,0.0,0.0,0.0,0.0,0.0,0.0,0.0,0.0,0.0,0.0,0.0,0.0,0.0,0.0,0.0,0.0,0.0,0.0,0.0,0.0,0.0,0.0,0.0,0.0,0.0,0.0,0.0,0.0,0.0,0.0,0.0,0.0,0.0,0.0,0.0,0.0,0.0,0.0,0.0,0.0,0.0,0.0,0.0,0.0,0.0,0.0,0.0,0.0,0.0,0.0,0.0,0.0,0.0,0.0,0.0,0.0,0.0,0.0,0.0,0.0,0.0,0.0,0.0,0.0,0.0,0.0,0.0,0.0,0.0,0.0,0.0,0.0,0.0,0.0,0.0,0.0,0.0,0.0,0.0,0.0,0.0,0.0,0.0,0.0,0.0,0.0,0.0,0.0,0.0,0.0,0.0,0.0,0.0,0.0,0.0,0.0,0.0,0.0,0.0,0.0,0.0,1.3651,1.3227,1.4316,1.3138,1.1686,1.0005,0.9096,0.8054,0.6871,0.6567,0.0,0.0,0.0,0.0,0.0,0.0,0.0,0.0,0.0,0.0,0.0,0.0,0.0,0.0,0.0,0.0,0.0,0.0,0.0,0.0,0.0,0.0,0.0,0.0,0.0,0.0,0.0,0.0,0.0,0.0,0.0,0.0,0.0,0.0,0.0,0.0,0.0,0.0,0.0,0.0,0.0,0.0,0.0,0.0,0.0,0.0,0.0,0.0,0.0,0.0,0.0,0.0,0.0,0.0,0.0,0.0,0.0,0.0,0.0,0.0,0.0,0.0,0.0,0.0,0.0,0.0,0.0,0.0,0.0,0.0,0.0,0.0,0.0,0.0,0.0,0.0,0.0,0.0,0.0,0.0,0.0,0.0,0.0,0.0,0.0,0.0,0.0,0.0,0.0,0.0,0.0,0.0,0.0,0.0,0.0,0.0,0.0,0.0,0.0,0.0,0.0,0.0,1.5364,1.4592,1.6069,1.4268,1.2781,1.2288,1.0841,0.9688,0.9219,0.8515,0.0,0.0,0.0,0.0,0.0,0.0,0.0,0.0,0.0,0.0,0.0,0.0,0.0,0.0,0.0,0.0,0.0,0.0,0.0,0.0,0.0,0.0,0.0,0.0,0.0,0.0,0.0,0.0,0.0,0.0,0.0,0.0,0.0,0.0,0.0,0.0,0.0,0.0,0.0,0.0,0.0,0.0,0.0,0.0,0.0,0.0,0.0,0.0,0.0,0.0,0.0,0.0,0.0,0.0,0.0,0.0,0.0,0.0,0.0,0.0,0.0,0.0,0.0,0.0,0.0,0.0,0.0,0.0,0.0,0.0,0.0,0.0,0.0,0.0,0.0,0.0,0.0,0.0,0.0,0.0,0.0,0.0,0.0,0.0,0.0,0.0,0.0,0.0,0.0,0.0,0.0,0.0,0.0,0.0,0.0,0.0,0.0,0.0,0.0,0.0,0.0,0.0,1.6682,1.6713,1.6139,1.5952,1.5219,1.3715,1.1854,1.0752,1.0577,0.8735,0.0,0.0,0.0,0.0,0.0,0.0,0.0,0.0,0.0,0.0,0.0,0.0,0.0,0.0,0.0,0.0,0.0,0.0,0.0,0.0,0.0,0.0,0.0,0.0,0.0,0.0,0.0,0.0,0.0,0.0,0.0,0.0,0.0,0.0,0.0,0.0,0.0,0.0,0.0,0.0,0.0,0.0,0.0,0.0,0.0,0.0,0.0,0.0,0.0,0.0,0.0,0.0,0.0,0.0,0.0,0.0,0.0,0.0,0.0,0.0,0.0,0.0,0.0,0.0,0.0,0.0,0.0,0.0,0.0,0.0,0.0,0.0,0.0,0.0,0.0,0.0,0.0,0.0,0.0,0.0,0.0,0.0,0.0,0.0,0.0,0.0,0.0,0.0,0.0,0.0,0.0,0.0,0.0,0.0,0.0,0.0,0.0,0.0,0.0,0.0,0.0,0.0,1.6295,1.6592,1.6509,1.5866,1.5079,1.4336,1.2939,1.1888,1.1366,0.0,0.0,0.0,0.0,0.0,0.0,0.0,0.0,0.0,0.0,0.0,0.0,0.0,0.0,0.0,0.0,0.0,0.0,0.0,0.0,0.0,0.0,0.0,0.0,0.0,0.0,0.0,0.0,0.0,0.0,0.0,0.0,0.0,0.0,0.0,0.0,0.0,0.0,0.0,0.0,0.0,0.0,0.0,0.0,0.0,0.0,0.0,0.0,0.0,0.0,0.0,0.0,0.0,0.0,0.0,0.0,0.0,0.0,0.0,0.0,0.0,0.0,0.0,0.0,0.0,0.0,0.0,0.0,0.0,0.0,0.0,0.0,0.0,0.0,0.0,0.0,0.0,0.0,0.0,0.0,0.0,0.0,0.0,0.0,0.0,0.0,0.0,0.0,0.0,0.0,0.0,0.0,0.0,0.0,0.0,0.0,0.0,0.0,0.0,0.0,0.0,0.0,1.5364,1.5912,1.638,1.6673,1.6341,1.5858,1.5329,1.4332,1.3379,1.24,0.0,0.0,0.0,0.0,0.0,0.0,0.0,0.0,0.0,0.0,0.0,0.0,0.0,0.0,0.0,0.0,0.0,0.0,0.0,0.0,0.0,0.0,0.0,0.0,0.0,0.0,0.0,0.0,0.0,0.0,0.0,0.0,0.0,0.0,0.0,0.0,0.0,0.0,0.0,0.0,0.0,0.0,0.0,0.0,0.0,0.0,0.0,0.0,0.0,0.0,0.0,0.0,0.0,0.0,0.0,0.0,0.0,0.0,0.0,0.0,0.0,0.0,0.0,0.0,0.0,0.0,0.0,0.0,0.0,0.0,0.0,0.0,0.0,0.0,0.0,0.0,0.0,0.0,0.0,0.0,0.0,0.0,0.0,0.0,0.0,0.0,0.0,0.0,0.0,0.0,0.0,0.0,0.0,0.0,0.0,0.0,0.0,0.0,0.0,0.0,0.0,0.0,1.5351,1.5946,1.6415,1.666,1.7768,1.8015,1.6837,1.623,1.5324,0.0,0.0,0.0,0.0,0.0,0.0,0.0,0.0,0.0,0.0,0.0,0.0,0.0,0.0,0.0,0.0,0.0,0.0,0.0,0.0,0.0,0.0,0.0,0.0,0.0,0.0,0.0,0.0,0.0,0.0,0.0,0.0,0.0,0.0,0.0,0.0,0.0,0.0,0.0,0.0,0.0,0.0,0.0,0.0,0.0,0.0,0.0,0.0,0.0,0.0,0.0,0.0,0.0,0.0,0.0,0.0,0.0,0.0,0.0,0.0,0.0,0.0,0.0,0.0,0.0,0.0,0.0,0.0,0.0,0.0,0.0,0.0,0.0,0.0,0.0,0.0,0.0,0.0,0.0,0.0,0.0,0.0,0.0,0.0,0.0,0.0,0.0,0.0,0.0,0.0,0.0,0.0,0.0,0.0,0.0,0.0,0.0,0.0,0.0,0.0,0.0,0.0,0.0,1.5102,1.6172,1.7037,1.737,1.864,1.9288,1.8722,1.8442,1.7614,1.6,0.0,0.0,0.0,0.0,0.0,0.0,0.0,0.0,0.0,0.0,0.0,0.0,0.0,0.0,0.0,0.0,0.0,0.0,0.0,0.0,0.0,0.0,0.0,0.0,0.0,0.0,0.0,0.0,0.0,0.0,0.0,0.0,0.0,0.0,0.0,0.0,0.0,0.0,0.0,0.0,0.0,0.0,0.0,0.0,0.0,0.0,0.0,0.0,0.0,0.0,0.0,0.0,0.0,0.0,0.0,0.0,0.0,0.0,0.0,0.0,0.0,0.0,0.0,0.0,0.0,0.0,0.0,0.0,0.0,0.0,0.0,0.0,0.0,0.0,0.0,0.0,0.0,0.0,0.0,0.0,0.0,0.0,0.0,0.0,0.0,0.0,0.0,0.0,0.0,0.0,0.0,0.0,0.0,0.0,0.0,0.0,0.0,0.0,0.0,0.0,0.0,0.0,1.5639,1.6967,1.8006,1.838,1.9632,2.0171,1.9559,1.9861,1.9251,1.7314,0.0,0.0,0.0,0.0,0.0,0.0,0.0,0.0,0.0,0.0,0.0,0.0,0.0,0.0,0.0,0.0,0.0,0.0,0.0,0.0,0.0,0.0,0.0,0.0,0.0,0.0,0.0,0.0,0.0,0.0,0.0,0.0,0.0,0.0,0.0,0.0,0.0,0.0,0.0,0.0,0.0,0.0,0.0,0.0,0.0,0.0,0.0,0.0,0.0,0.0,0.0,0.0,0.0,0.0,0.0,0.0,0.0,0.0,0.0,0.0,0.0,0.0,0.0,0.0,0.0,0.0,0.0,0.0,0.0,0.0,0.0,0.0,0.0,0.0,0.0,0.0,0.0,0.0,0.0,0.0,0.0,0.0,0.0,0.0,0.0,0.0,0.0,0.0,0.0,0.0,0.0,0.0,0.0,0.0,0.0,0.0,0.0,0.0,0.0,0.0,0.0,0.0,1.6724,1.8029,1.914,1.9629,2.0747,2.1033,1.9951,2.0819,2.0455,1.8162,0.0,0.0,0.0,0.0,0.0,0.0,0.0,0.0,0.0,0.0,0.0,0.0,0.0,0.0,0.0,0.0,0.0,0.0,0.0,0.0,0.0,0.0,0.0,0.0,0.0,0.0,0.0,0.0,0.0,0.0,0.0,0.0,0.0,0.0,0.0,0.0,0.0,0.0,0.0,0.0,0.0,0.0,0.0,0.0,0.0,0.0,0.0,0.0,0.0,0.0,0.0,0.0,0.0,0.0,0.0,0.0,0.0,0.0,0.0,0.0,2.2703,2.1693,0.0,0.0,0.0,0.0,0.0,0.0,0.0,0.0,0.0,0.0,0.0,0.0,0.0,0.0,0.0,0.0,0.0,0.0,0.0,0.0,0.0,0.0,0.0,0.0,0.0,0.0,0.0,0.0,0.0,0.0,0.0,0.0,0.0,0.0,0.0,0.0,0.0,0.0,0.0,0.0,1.6724,1.8646,2.0164,2.0855,2.1987,2.2624,2.2359,2.2293,2.1494,1.9811,1.8965,0.0,0.0,0.0,0.0,0.0,0.0,0.0,0.0,0.0,0.0,0.0,0.0,0.0,0.0,0.0,0.0,0.0,0.0,0.0,0.0,0.0,0.0,0.0,0.0,0.0,0.0,0.0,0.0,0.0,0.0,0.0,0.0,0.0,0.0,0.0,0.0,0.0,0.0,0.0,0.0,0.0,0.0,0.0,0.0,0.0,0.0,0.0,0.0,0.0,0.0,0.0,0.0,0.0,0.0,0.0,0.0,0.0,0.0,0.0,2.54,2.4491,0.0,0.0,0.0,0.0,0.0,0.0,0.0,0.0,0.0,0.0,0.0,0.0,0.0,0.0,0.0,0.0,0.0,0.0,0.0,0.0,0.0,0.0,0.0,0.0,0.0,0.0,0.0,0.0,0.0,0.0,0.0,0.0,0.0,0.0,0.0,0.0,0.0,0.0,0.0,0.0,1.8318,1.996,2.1306,2.2089,2.2731,2.3101,2.3101,2.2906,2.2283,2.1085,2.0122,0.0,0.0,0.0,0.0,0.0,0.0,0.0,0.0,0.0,0.0,0.0,0.0,0.0,0.0,0.0,0.0,0.0,0.0,0.0,0.0,0.0,0.0,0.0,0.0,0.0,0.0,0.0,0.0,0.0,0.0,0.0,0.0,0.0,0.0,0.0,0.0,0.0,0.0,0.0,0.0,0.0,0.0,0.0,0.0,0.0,0.0,0.0,0.0,0.0,0.0,0.0,0.0,0.0,2.9816,2.9635,2.9554,2.9474,2.9454,2.9434,2.9071,2.8237,2.7058,2.6102,0.0,0.0,0.0,0.0,0.0,0.0,0.0,0.0,0.0,0.0,0.0,0.0,0.0,0.0,0.0,0.0,0.0,0.0,0.0,0.0,0.0,0.0,2.3965,2.373,2.4224,2.4153,2.2013,0.0,0.0,0.0,0.0,0.0,0.0,0.0,0.0,0.0,0.0,0.0,1.996,2.1059,2.2129,2.3003,2.3023,2.3023,2.3081,2.3101,2.2769,2.2051,2.1085,1.9989,0.0,0.0,0.0,0.0,0.0,0.0,0.0,0.0,0.0,0.0,0.0,0.0,0.0,0.0,0.0,0.0,0.0,0.0,0.0,0.0,0.0,0.0,0.0,0.0,0.0,0.0,0.0,0.0,0.0,0.0,0.0,0.0,2.8281,2.8711,0.0,0.0,0.0,0.0,0.0,0.0,0.0,0.0,0.0,0.0,0.0,0.0,0.0,3.4311,3.5007,3.5235,3.5124,3.4702,3.5057,3.5013,3.4645,3.4146,3.3968,3.3915,3.3763,0.0,2.7643,2.8339,0.0,0.0,0.0,0.0,0.0,0.0,0.0,0.0,0.0,0.0,0.0,0.0,0.0,0.0,0.0,0.0,0.0,0.0,0.0,0.0,0.0,0.0,2.4629,2.3496,2.4658,2.5722,2.4528,2.3627,2.2925,2.2785,2.1048,1.923,0.0,0.0,0.0,0.0,0.0,0.0,1.9634,2.0642,2.1756,2.2964,2.2769,2.2734,2.3062,2.3101,2.2886,2.2461,2.1945,2.1416,2.0835,1.9427,0.0,0.0,0.0,0.0,0.0,0.0,0.0,0.0,0.0,0.0,0.0,0.0,0.0,0.0,0.0,0.0,0.0,0.0,0.0,0.0,0.0,0.0,0.0,0.0,0.0,0.0,0.0,0.0,0.0,2.8418,2.916,2.8633,2.8828,2.8652,0.0,0.0,0.0,0.0,0.0,0.0,0.0,0.0,0.0,3.7667,3.6969,3.7142,3.854,3.7897,3.7336,3.6839,3.7008,3.685,3.6353,3.6071,3.5824,3.5576,3.6363,3.4733,3.1551,3.1476,3.0106,2.802,0.0,0.0,0.0,0.0,2.7308,2.8272,2.9104,2.8722,2.7897,2.8222,0.0,0.0,0.0,0.0,0.0,0.0,0.0,2.4588,2.4553,2.4426,2.4382,2.4412,2.5313,2.6423,2.7314,2.6387,2.5316,2.5189,2.3903,2.247,2.1315,2.0021,0.0,0.0,0.0,1.9846,2.0753,2.1296,2.1992,2.2984,2.2925,2.2906,2.3081,2.3101,2.3023,2.2828,2.248,2.1934,2.1229,2.0596,1.9645,0.0,0.0,0.0,0.0,0.0,0.0,0.0,0.0,0.0,0.0,0.0,0.0,0.0,0.0,0.0,0.0,0.0,0.0,0.0,0.0,0.0,0.0,0.0,0.0,0.0,0.0,0.0,0.0,2.9297,2.9941,2.8769,3.0194,3.0618,0.0,0.0,0.0,0.0,0.0,0.0,3.6874,3.7515,3.8958,4.1419,4.0243,4.0374,4.1992,4.0633,3.9698,3.9325,3.9186,3.893,3.8478,3.8338,3.7957,3.7493,3.8418,3.7738,3.5786,3.4094,3.2163,3.0062,2.8757,2.8174,2.813,2.8237,2.9201,3.0583,3.1436,3.1021,3.0057,3.0216,2.9331,2.8119,2.7133,0.0,0.0,0.0,0.0,2.5359,2.5916,2.537,2.4822,2.5527,2.6323,2.7393,2.8878,2.8561,2.7801,2.7227,2.625,2.5062,2.3733,2.2224,0.0,2.0507,2.0215,2.043,2.1426,2.1641,2.2051,2.2847,2.2945,2.2984,2.3081,2.3101,2.3101,2.3101,2.2711,2.2168,2.1385,2.1249,2.0464,1.8929,0.0,0.0,0.0,0.0,0.0,0.0,0.0,0.0,0.0,0.0,0.0,0.0,0.0,0.0,0.0,0.0,0.0,0.0,0.0,0.0,0.0,0.0,0.0,0.0,0.0,0.0,0.0,0.0,0.0,2.9609,3.3182,0.0,0.0,0.0,0.0,3.616,3.6737,3.8147,4.0607,4.1215,4.2676,4.5153,4.4594,4.4594,4.5229,4.4119,4.3512,4.3462,4.2994,4.2743,4.2693,4.2168,4.1588,4.0985,4.0567,4.0017,3.9185,3.5486,3.2823,3.08,2.8593,2.847,2.9627,2.9807,3.111,3.2812,3.3538,3.2685,3.1458,3.225,3.1067,2.9149,2.8141,2.7579,0.0,0.0,2.6864,2.6554,2.7088,2.7073,2.6877,2.6534,2.7962,2.9182,2.8353,2.9349,3.0078,2.9009,2.7151,2.5311,2.3748,0.0,2.2146,2.021,2.0273,2.0605,2.0664,2.0996,2.1561,2.2461,2.2539,2.2652,2.3062,2.3101,2.3101,2.3101,2.2711,2.2305,2.1875,2.1465,2.0976,2.0508,1.967,0.0,0.0,0.0,0.0,0.0,0.0,0.0,0.0,0.0,0.0,0.0,0.0,0.0,0.0,0.0,0.0,0.0,0.0,0.0,0.0,0.0,0.0,0.0,0.0,0.0,0.0,0.0,0.0,3.4884,3.6417,0.0,3.6675,3.774,3.8769,3.9363,4.0811,4.2472,4.4279,4.5264,4.6116,4.7029,4.6527,4.6351,4.6552,4.5799,4.5045,4.4317,4.4141,4.3664,4.2961,4.2464,4.1856,4.125,4.0752,4.0199,3.9492,3.723,3.4948,3.295,3.2648,3.185,3.102,3.2374,3.3577,3.4604,3.4844,3.4304,3.3419,3.2641,3.1601,3.0574,2.9873,2.9535,2.9431,2.9431,2.8512,2.7638,2.8192,2.752,2.6851,2.7406,2.8086,2.8722,2.9101,2.9656,2.9963,2.9559,2.8283,2.6999,2.6214,2.4819,2.3335,2.2042,2.1401,2.1197,2.1429,2.1309,2.1619,2.275,2.2441,2.2383,2.3042,2.2637,2.2441,2.2715,2.2344,2.1914,2.1484,2.1268,2.1016,2.0625,2.0,1.9687,0.0,0.0,0.0,0.0,0.0,0.0,0.0,0.0,0.0,0.0,0.0,0.0,0.0,0.0,0.0,0.0,0.0,0.0,0.0,0.0,0.0,0.0,0.0,0.0,0.0,3.4442,3.6304,3.8173,3.9976,4.0938,4.0727,4.1939,4.2949,4.3573,4.5098,4.6363,4.7344,4.8259,4.8661,4.8485,4.7958,4.7581,4.7405,4.6677,4.5748,4.4618,4.4443,4.3865,4.2961,4.2464,4.1856,4.125,4.0752,4.0199,3.962,3.8439,3.6692,3.4653,3.4205,3.3209,3.2079,3.2737,3.3904,3.5147,3.5219,3.4856,3.4223,3.2918,3.2114,3.1562,3.1035,3.0758,3.0608,3.0608,2.9668,2.8809,2.9343,2.8552,2.7787,2.849,2.8688,2.891,2.9624,2.9804,2.9804,2.9804,2.9184,2.844,2.7612,2.6332,2.4997,2.3841,2.2956,2.2466,2.2671,2.2408,2.2473,2.3088,2.3,2.2877,2.2914,2.2559,2.2345,2.2285,2.2025,2.161,2.1016,2.1135,2.0956,2.0352,2.0202,2.0119,2.014,0.0,0.0,0.0,0.0,0.0,0.0,0.0,0.0,0.0,0.0,0.0,0.0,0.0,0.0,0.0,0.0,0.0,0.0,0.0,0.0,0.0,0.0,0.0,3.4868,3.7866,3.9778,3.9373,4.3803,4.6281,4.4649,4.717,4.8837,4.8812,4.9339,4.964,4.9615,5.0117,5.0167,4.959,4.9038,4.846,4.7883,4.6828,4.5748,4.4618,4.4066,4.3514,4.2936,4.2414,4.1806,4.1225,4.0727,4.0199,3.9647,3.9094,3.7787,3.5781,3.3046,3.2391,3.2849,3.1098,3.218,3.4438,3.4619,3.4349,3.3796,3.3244,3.2667,3.2114,3.1537,3.1009,3.0608,3.0583,3.0206,2.9905,3.0457,3.0206,2.9804,2.9804,2.9804,2.9804,2.9804,2.9804,2.9804,2.9804,2.9804,2.9333,2.7854,2.7541,2.704,2.5506,2.4754,0.0,2.4325,2.4287,2.4007,2.3482,2.4259,2.4193,2.2715,2.3043,2.2919,2.2001,2.1941,2.1545,2.0702,2.1039,2.0831,1.9977,2.0421,2.0668,2.0658,0.0,0.0,0.0,0.0,0.0,0.0,0.0,0.0,0.0,0.0,0.0,0.0,0.0,0.0,0.0,0.0,0.0,0.0,0.0,0.0,0.0,3.7052,3.8507,3.9193,4.0586,4.287,4.6294,4.7485,4.8382,4.9264,5.0122,5.0419,4.9992,5.0494,5.0645,5.0218,5.0343,4.9992,4.9038,4.8435,4.7883,4.7355,4.6652,4.5748,4.4618,4.4066,4.3313,4.2414,4.1404,4.0877,4.0701,4.0149,3.9848,3.9647,3.9094,3.8316,3.732,3.6156,3.5027,3.4059,3.4556,3.4676,3.4598,3.469,3.4098,3.3194,3.2641,3.234,3.2039,3.111,3.0733,3.0532,3.0131,2.9905,2.9829,2.998,2.9905,2.9804,2.9804,2.9804,2.9804,2.9804,2.9804,2.9804,2.9804,2.9804,2.9651,2.9245,2.8795,2.8131,2.7017,2.6353,2.5838,2.543,2.5105,2.51,2.5562,2.5311,2.5009,2.4748,2.4312,2.3717,2.2972,2.2629,2.2375,2.2121,2.1882,2.1794,2.1927,2.2048,2.2169,0.0,0.0,0.0,0.0,0.0,0.0,0.0,0.0,0.0,0.0,0.0,0.0,0.0,0.0,0.0,0.0,0.0,0.0,0.0,0.0,0.0,0.0,3.9994,4.189,4.3996,4.4645,4.6199,4.9571,5.0006,5.0542,5.1883,5.1975,5.1825,5.1498,5.1574,5.1373,5.082,5.0544,5.0017,4.9138,4.856,4.8008,4.7456,4.6702,4.5748,4.4618,4.384,4.3011,4.2162,4.1028,4.0526,4.0475,3.9923,3.9697,3.9647,3.8843,3.8316,3.789,0.0,0.0,0.0,0.0,3.4615,3.3924,3.427,3.3646,3.2667,3.2315,3.1913,3.1436,3.0809,3.0457,3.0206,2.988,2.9804,2.9804,2.9804,2.9804,2.9804,2.9804,2.9804,2.9804,2.9804,2.9804,2.9804,2.9804,2.9804,0.0,2.9804,2.9528,2.9086,2.8562,2.7957,2.7448,2.712,2.6491,2.6197,2.6467,2.6022,2.555,2.5072,2.4778,0.0,0.0,0.0,2.3338,2.3338,2.2692,0.0,0.0,0.0,2.3433,2.3694,2.4154,0.0,0.0,2.4058,2.4325,0.0,0.0,0.0,0.0,0.0,0.0,0.0,0.0,0.0,0.0,0.0,0.0,0.0,0.0,0.0,0.0,4.2455,4.4585,4.8459,4.9063,4.9515,5.0494,5.1548,5.2402,5.2879,5.2929,5.2904,5.2829,5.2327,5.1774,5.1222,5.0695,0.0,0.0,0.0,4.856,4.7908,4.6853,4.5748,4.4618,4.3438,4.2585,4.2087,4.0927,4.0425,4.04,3.9898,3.9697,3.9597,3.8467,3.7939,3.7665,3.5915,3.4917,3.4437,3.3887,3.3314,3.2927,3.3648,0.0,0.0,3.2164,3.1486,3.0683,3.0557,3.0181,2.9804,2.9804,2.9804,2.9804,2.9804,2.9804,2.9804,2.9804,2.9804,2.9804,2.9804,2.9804,2.9804,2.9804,2.9804,2.9804,2.9804,2.9804,2.9804,2.9804,2.9352,2.8963,2.8888,2.8072,2.7259,2.6726,2.6684,0.0,2.4694,2.4987,2.4826,2.38,2.4155,2.4345,2.4297,2.3595,2.3584,2.4335,2.4369,2.4551,2.4976,2.546,2.5686,2.5711,2.5363,2.5652,0.0,0.0,0.0,0.0,0.0,0.0,0.0,0.0,0.0,0.0,0.0,0.0,0.0,0.0,0.0,4.3986,4.5889,4.7596,4.9776,5.087,5.1548,5.1749,5.2377,5.2804,5.2929,5.2929,5.2754,5.2302,5.1749,5.1197,5.0619,5.0469,5.0167,4.9615,4.949,4.8937,4.7908,4.6853,4.5748,4.4593,4.3062,0.0,4.1455,4.035,3.9848,3.9848,3.9747,3.9697,3.9597,3.8467,3.7487,3.6634,3.5774,3.536,3.5211,3.464,3.4139,3.3712,3.3834,3.347,3.2767,3.1838,3.1411,3.1085,3.0206,2.988,0.0,2.9804,2.9804,2.9804,2.9804,2.9804,2.9804,2.9804,2.9804,2.9804,2.9804,2.9804,2.9804,2.9804,2.9804,2.9804,2.9804,2.9804,2.9804,2.9804,2.9704,2.9453,2.8938,2.8712,2.8399,2.7828,2.7812,2.7501,2.6733,2.6813,2.6367,2.5247,2.5268,2.5145,2.469,2.4929,2.5151,2.5319,2.5319,2.5594,2.6172,2.6273,2.6323,2.6323,2.6252,2.6302,0.0,0.0,0.0,0.0,0.0,0.0,0.0,0.0,0.0,0.0,0.0,3.9375,4.0887,0.0,4.3835,4.7007,4.846,4.9665,5.1071,5.1975,5.2427,5.2126,5.2578,5.2929,5.2929,5.2929,5.2703,5.2151,5.1599,5.1147,5.087,5.0318,5.0017,5.0017,4.9188,4.8485,4.7908,4.6276,4.5171,4.4593,4.266,4.1605,4.125,4.0199,3.9697,3.9697,3.9697,3.9546,3.9195,3.8065,3.7111,3.6355,3.5755,3.5658,3.5855,3.5027,3.455,3.4223,3.3671,3.3119,3.2491,3.1662,3.121,3.0859,3.003,2.9804,2.9804,2.9804,2.9804,2.9804,2.9804,2.9804,2.9804,2.9804,2.9804,2.9804,2.9804,2.9804,2.9804,2.9804,2.9804,2.9804,2.9804,2.9804,2.9804,2.9804,2.9804,2.9679,2.9402,2.9063,2.8687,2.8172,2.7871,2.7469,2.6952,2.6901,2.6675,2.6097,2.6072,2.5912,2.5661,2.5921,2.6072,2.6072,2.6072,2.6197,2.6499,2.6499,2.6499,2.6499,2.6499,2.6499,0.0,0.0,0.0,0.0,0.0,0.0,0.0,3.932,3.9973,4.1103,4.2283,4.3539,4.4869,4.5748,4.7079,4.9515,5.0393,5.1096,5.2126,5.2653,5.2754,5.2327,5.2653,5.2929,5.2929,5.2929,5.2653,5.2,5.1523,5.1197,5.0971,5.0193,4.9916,5.0243,4.8937,4.8083,4.7757,4.5799,4.4618,4.4292,4.2228,4.1225,4.11,4.0149,3.9697,3.9697,3.9572,3.9145,3.8517,3.7563,3.6908,3.6355,3.5881,3.5906,3.6081,3.4977,3.453,3.4424,3.342,3.2767,3.229,3.1738,3.1185,3.0658,3.0105,2.988,2.9804,2.9804,2.9804,2.9804,2.9804,2.9804,2.9804,2.9804,2.9804,2.9804,2.9804,2.9804,2.9804,2.9804,2.9804,2.9804,2.9804,2.9804,2.9804,2.9804,2.9804,2.9754,2.9628,2.9227,2.8687,2.8172,2.762,2.7102,2.6549,2.6499,2.6499,2.6499,2.6499,2.6499,2.6499,2.6499,2.6499,2.6499,2.6499,2.6499,2.6499,2.6499,2.6499,2.6499,2.6499,2.6499,3.4866,3.492,3.5846,3.6837,3.7513,3.8718,0.0,4.2459,4.2836,4.394,4.5447,4.6627,4.6828,4.8109,4.9565,5.087,5.1548,5.2126,5.2754,5.2879,5.2904,5.2854,5.2879,5.2929,5.2929,5.2929,5.2503,5.1448,5.1322,5.0845,4.9841,5.0117,5.0117,4.969,4.9515,4.8711,4.7168,4.5999,4.4644,4.3137,4.1932,4.1025,4.0601,3.9973,3.9697,3.9672,3.917,3.8366,3.7362,3.7236,3.6908,3.6405,3.6355,3.6006,3.5458,3.4399,3.3997,3.3897,3.3294,3.3086,3.2893,3.2315,3.1763,3.121,3.0683,3.0181,2.9804,2.9804,2.9804,2.9804,2.9804,2.9804,2.9804,2.9804,2.9804,2.9804,2.9804,2.9804,2.9804,2.9804,2.9804,2.9804,2.9804,2.9804,2.9804,2.9804,2.9804,2.9603,2.9063,2.8938,2.8687,2.8172,2.762,2.7102,2.6549,2.6499,2.6499,2.6499,2.6499,2.6499,2.6499,2.6499,2.6499,2.6499,2.6499,2.6499,2.6499,2.6499,2.6499,2.6499,2.6499,2.6499,3.6486,3.6052,3.6186,3.7816,3.8818,4.0099,4.2434,4.3463,4.4418,4.6175,4.7631,4.8761,4.9414,5.0368,5.1322,5.2101,5.2427,5.2653,5.2904,5.2929,5.2804,5.2477,5.2452,5.2578,5.2904,5.2929,5.2477,5.1373,5.1272,5.0921,5.0117,4.9992,4.9841,4.9615,4.8962,4.7983,4.6677,4.5547,4.4317,4.2961,4.1856,4.1,4.0501,3.9948,3.9521,3.917,3.8266,3.7613,3.7161,3.6835,3.6383,3.5881,3.5881,3.5554,3.4956,3.455,3.4173,3.3822,3.3269,3.3111,3.2993,3.2416,3.1838,3.1286,3.0758,3.0231,2.9804,2.9804,2.9804,2.9804,2.9804,2.9804,2.9804,2.9804,2.9804,2.9804,2.9804,2.9804,2.9804,2.9804,2.9804,2.9804,2.9804,2.9804,2.9804,2.9804,2.9804,2.9704,2.9478,2.9428,2.9101,2.8197,2.762,2.7102,2.6549,2.6499,2.6499,2.6499,2.6499,2.6499,2.6499,2.6499,2.6499,2.6499,2.6499,2.6499,2.6499,2.6499,2.6499,2.6499,2.6499,2.6499,3.6507,3.6418,3.6483,3.8589,4.0049,4.1455,4.3263,4.4518,4.5849,4.7757,4.9038,5.0067,5.0896,5.1498,5.2051,5.2603,5.2703,5.2754,5.2904,5.2804,5.2553,5.2151,5.1825,5.185,5.2427,5.2477,5.2076,5.1122,5.1046,5.0795,5.0218,4.9665,4.9364,4.9364,4.8284,4.7179,4.61,4.5121,4.3915,4.2509,4.1652,4.0924,4.0275,3.9722,3.917,3.8567,3.7613,3.7111,3.6935,3.6581,3.6132,3.5708,3.5558,3.5157,3.4655,3.455,3.4248,3.3822,3.3269,3.3111,3.2993,3.2416,3.1838,3.1286,3.0758,3.0231,2.9804,2.9804,2.9804,2.9804,2.9804,2.9804,2.9804,2.9804,2.9804,2.9804,2.9804,2.9804,2.9804,2.9804,2.9804,2.9804,2.9804,2.9804,2.9804,2.9804,2.9804,2.9804,2.9804,2.9654,2.9252,2.8423,2.7695,2.7153,2.6751,2.6575,2.6499,2.6499,2.6499,2.6499,2.6499,2.6499,2.6499,2.6499,2.6499,2.6499,2.6499,2.6499,2.6499,2.6499,2.6499,2.6499,3.4162,3.522,3.6579,3.9063,4.0902,4.274,4.4895,4.6276,4.738,4.851,4.9615,5.0393,5.0444,5.0921,5.1498,5.2051,5.2126,5.2327,5.2854,5.2477,5.2126,5.2101,5.1122,5.0695,5.1272,5.1322,5.1071,5.0494,5.0444,5.0193,4.964,4.9088,4.8786,4.8786,4.7732,4.6627,4.5522,4.492,4.3539,4.1326,4.13,4.0777,3.9697,3.9145,3.8567,3.799,3.7437,3.6885,3.643,3.6405,3.6405,3.6329,3.5708,3.5157,3.465,3.4123,3.3922,3.3822,3.3269,3.3111,3.2993,3.2416,3.1838,3.1286,3.0758,3.0231,2.9804,2.9804,2.9804,2.9804,2.9804,2.9804,2.9804,2.9804,2.9804,2.9804,2.9804,2.9804,2.9804,2.9804,2.9804,2.9804,2.9804,2.9804,2.9804,2.9804,2.9804,2.9804,2.9804,2.9302,2.8888,2.8863,2.7921,2.7268,2.7304,2.6801,2.6499,2.6499,2.6499,2.6499,2.6499,2.6499,2.6499,2.6499,2.6499,2.6499,2.6499,2.6499,2.6499,2.6499,2.6499,2.6499,3.2647,3.5253,3.8078,3.9768,4.2002,4.4292,4.615,4.7129,4.8083,4.9565,4.9264,4.8862,4.9264,4.9163,4.9238,4.9816,5.082,5.1749,5.2302,5.2528,5.2377,5.1649,5.1222,5.077,5.0218,5.0494,5.0619,5.0444,5.0419,5.0017,4.9113,4.8862,4.8435,4.7707,4.6979,4.5874,4.4392,4.3815,4.261,4.0724,4.0425,4.0049,3.9672,3.8718,3.8191,3.7965,3.7036,3.6581,3.6405,3.6405,3.6132,3.5805,3.5583,3.5157,3.465,3.4098,3.3897,3.3822,3.3269,3.3111,3.2993,3.2416,3.1838,3.1286,3.0758,3.0231,2.9804,2.9804,2.9804,2.9804,2.9804,2.9804,2.9804,2.9804,2.9804,2.9804,2.9804,2.9804,2.9804,2.9804,2.9804,2.9804,2.9804,2.9804,2.9804,2.9804,2.9804,2.9804,2.9804,2.9628,2.9352,2.8938,2.8562,2.8072,2.7344,2.7153,2.6876,2.6524,2.6499,2.6499,2.6499,2.6499,2.6499,2.6499,2.6499,2.6499,2.6499,2.6499,2.6499,2.6499,2.6499,2.67,3.2274,3.4997,3.7782,3.9775,4.2305,4.4702,4.6352,4.7346,4.8209,4.9289,4.8209,4.7079,4.7255,4.6828,4.6627,4.7205,4.836,4.9665,5.1021,5.1172,5.1172,5.1272,5.0921,5.0393,4.9665,4.9741,4.9841,4.9841,4.9841,4.9414,4.851,4.8284,4.7782,4.6878,4.6301,4.5221,4.3514,4.3162,4.2158,4.0501,3.9948,3.9697,3.9647,3.8517,3.8015,3.7939,3.6883,3.6405,3.6405,3.6405,3.6157,3.5805,3.5583,3.5157,3.465,3.4098,3.3771,3.3545,3.3194,3.3111,3.2993,3.2416,3.1838,3.1286,3.0758,3.0231,2.9804,2.9804,2.9804,2.9804,2.9804,2.9804,2.9804,2.9804,2.9804,2.9804,2.9804,2.9804,2.9804,2.9804,2.9804,2.9804,2.9804,2.9804,2.9804,2.9804,2.9804,2.9804,2.9804,2.9603,2.9428,2.9252,2.8875,2.8348,2.7645,2.7394,2.7077,2.6524,2.6499,2.6499,2.6499,2.6499,2.6499,2.6499,2.6499,2.6499,2.6499,2.6499,2.6499,2.6499,2.6499,2.6675,3.3167,3.4644,3.6267,3.9283,4.1834,4.397,4.5462,4.6728,4.7583,4.7658,4.633,4.5062,4.446,4.4016,4.3865,4.4493,4.5171,4.6602,4.9314,4.8786,4.8912,5.1071,5.0318,4.964,4.964,4.9138,4.8812,4.8761,4.8736,4.8485,4.7933,4.738,4.6828,4.6276,4.5673,4.4568,4.2961,4.2861,4.2032,4.0475,3.9948,3.9672,3.9622,3.8517,3.799,3.7914,3.6835,3.6405,3.6405,3.6405,3.6405,3.6355,3.578,3.5232,3.4726,3.4148,3.3621,3.3144,3.3136,3.3111,3.2993,3.2416,3.1863,3.1336,3.0809,3.0281,2.9854,2.9854,2.9829,2.9804,2.9829,2.9804,2.9804,2.9804,2.9804,2.9804,2.9804,2.9804,2.9804,2.9804,2.9804,2.9804,2.9804,2.9804,2.9804,2.9804,2.9804,2.9804,2.9804,2.9302,2.9176,2.9729,2.88,2.8147,2.8097,2.7595,2.7077,2.6524,2.6499,2.6499,2.6499,2.6499,2.6499,2.6499,2.6499,2.6499,2.6524,2.6499,2.6499,2.6524,2.6499,2.6499,3.5387,3.7758,4.0106,3.9196,4.0626,4.2392,4.2932,4.3299,4.3642,4.4079,4.2589,4.129,4.1513,4.1781,4.2409,4.379,4.6225,4.8611,5.0569,5.0971,5.1247,5.1825,5.0896,5.0218,5.0218,4.9715,4.9213,4.8812,4.836,4.8058,4.7908,4.7029,4.6276,4.5723,4.4342,4.3212,4.2414,4.1153,4.0325,3.9898,3.9772,3.9471,3.9069,3.8341,3.7789,3.7362,3.6707,3.6405,3.6405,3.6405,3.6405,3.638,3.6207,3.6081,3.583,3.4876,3.4424,3.4198,3.337,3.3111,3.2993,3.2416,3.2114,3.1913,3.1361,3.0834,3.0482,3.0884,3.0407,2.988,3.0306,3.0105,2.9804,2.9804,2.9804,2.9804,2.9804,2.9804,2.9804,2.9804,2.9804,2.9804,2.9804,2.9804,2.9804,2.9804,2.9804,2.9804,2.9804,2.9654,2.9628,2.9779,2.9151,2.8512,2.8147,2.7595,2.7077,2.6524,2.6499,2.6499,2.6499,2.6499,2.6499,2.6499,2.6499,2.67,2.7102,2.67,2.67,2.7102,2.6675,2.6725,3.6871,3.8298,3.9929,3.8398,3.9382,4.0737,4.0651,4.0862,4.116,4.1306,3.9792,3.8629,3.8989,3.9722,4.0651,4.1806,4.4367,4.7054,4.9464,4.9866,5.0293,5.1247,5.0795,5.0318,5.0067,4.9766,4.9364,4.8812,4.8234,4.7807,4.7581,4.6527,4.5698,4.5121,4.3714,4.2484,4.1455,4.0275,3.9697,3.9697,3.9697,3.9396,3.8894,3.8266,3.7713,3.7161,3.6656,3.6405,3.6405,3.6405,3.6405,3.6405,3.6405,3.6254,3.5906,3.5027,3.4575,3.4248,3.337,3.3111,3.3018,3.2692,3.2416,3.2164,3.1838,3.121,3.0683,3.0959,3.0457,2.9854,3.0181,3.003,2.9804,2.9804,2.9804,2.9804,2.9804,2.9804,2.9804,2.9804,2.9804,2.9804,2.9804,2.9804,2.9804,2.9804,2.9804,2.9804,2.9804,2.9804,2.9804,2.9804,2.9503,2.9076,2.8524,2.8172,2.777,2.7253,2.6977,2.6851,2.6851,2.6625,2.6499,2.6499,2.6499,2.665,2.6952,2.665,2.6776,2.7268,2.7002,2.7153,3.8572,3.8338,3.8385,3.7748,3.8328,3.8875,3.8402,3.8742,3.9039,3.8494,3.7304,3.647,3.6775,3.7891,3.9044,3.9873,4.1806,4.4317,4.7581,4.7631,4.8109,5.0167,5.0293,5.0067,4.9741,4.964,4.9364,4.8812,4.8234,4.7682,4.7093,4.6024,4.502,4.4217,4.3263,4.2007,4.0425,3.9923,3.9697,3.9697,3.9697,3.9396,3.8894,3.8266,3.7713,3.7161,3.6656,3.6405,3.6405,3.6405,3.6405,3.6405,3.6405,3.6081,3.5533,3.4906,3.4424,3.3922,3.3294,3.3111,3.3111,3.3111,3.2742,3.2315,3.2315,3.1562,3.0758,3.0909,3.0382,2.9829,2.998,2.9905,2.9804,2.9804,2.9804,2.9804,2.9804,2.9804,2.9804,2.9804,2.9804,2.9804,2.9804,2.9804,2.9804,2.9804,2.9804,2.9804,2.9804,2.9804,2.9804,2.9804,2.9729,2.9478,2.8938,2.8813,2.8624,2.8147,2.7645,2.7394,2.7394,2.6977,2.6725,2.6725,2.665,2.665,2.6725,2.665,2.6876,2.7394,2.7394,2.7645,4.2947,4.2207,4.1286,3.9369,3.8037,3.6896,3.5706,3.4992,3.435,3.3558,3.3854,3.4308,3.4793,3.6702,3.8944,4.1383,4.3187,4.5347,4.8209,4.8535,4.8962,5.0268,4.9615,4.9389,5.0193,4.9866,4.9364,4.8812,4.8234,4.7682,4.7093,4.5623,4.389,4.1902,4.1677,4.1053,3.9848,3.9747,3.9697,3.9697,3.9697,3.9396,3.8894,3.8266,3.7713,3.7161,3.6656,3.6405,3.6405,3.6405,3.6405,3.6405,3.6405,3.6355,3.6107,3.5102,3.463,3.4424,3.342,3.3111,3.3111,3.3111,3.3061,3.2918,3.2918,3.2139,3.1461,3.239,3.126,3.0005,3.0884,3.0457,2.9804,2.9804,2.9804,2.9804,2.9804,2.9804,2.9804,2.9804,2.9804,2.9804,2.9804,2.9804,2.9804,2.9804,2.9804,2.9804,2.9804,2.9804,2.9804,2.9804,2.9352,2.8988,2.8888,2.8499,2.8197,2.8122,2.8021,2.7971,2.7971,2.7871,2.7821,2.7821,2.7369,2.7369,2.7821,2.7369,2.7419,2.7971,2.7971,2.8021,4.4828,4.4296,4.3362,4.0433,3.8683,3.7078,3.4359,3.3047,3.2157,3.1394,3.1582,3.231,3.3711,3.5355,3.7416,4.0072,4.1605,4.3463,4.6225,4.7129,4.7908,4.8987,4.9163,4.9289,4.954,4.959,4.9138,4.8008,4.7908,4.7682,4.7093,4.5271,4.3313,4.1351,4.1,4.0526,3.9697,3.9697,3.9697,3.9697,3.9697,3.9245,3.8417,3.814,3.7538,3.6782,3.6531,3.6405,3.6405,3.6405,3.6405,3.6405,3.6405,3.6182,3.583,3.5027,3.455,3.4173,3.337,3.3111,3.3111,3.3111,3.3111,3.3111,3.3111,3.2491,3.1938,3.2466,3.1461,3.0331,3.0859,3.0382,2.9854,3.0156,3.0231,3.0131,2.9854,2.9804,2.9804,2.9804,2.9804,2.9804,2.9804,2.9804,2.9804,2.9804,2.9804,2.9804,2.9804,2.9804,2.9804,2.9804,2.9553,2.9377,2.9377,2.9126,2.8976,2.8976,2.8699,2.8524,2.8524,2.8273,2.8097,2.8097,2.7846,2.7846,2.8097,2.7846,2.7996,2.8524,2.8524,2.8699,4.593,4.583,4.4888,4.1499,3.9738,3.7728,3.3701,3.207,3.1072,3.0048,3.012,3.088,3.2732,3.4119,3.5813,3.8291,3.9521,4.1128,4.389,4.5146,4.625,4.7581,4.8535,4.8987,4.8786,4.9063,4.8636,4.723,4.728,4.7154,4.6566,4.4945,4.3162,4.1351,4.0874,4.0375,3.9697,3.9697,3.9697,3.9697,3.9697,3.917,3.8191,3.8065,3.7462,3.6581,3.6455,3.6405,3.6405,3.6405,3.6405,3.6405,3.6405,3.6031,3.5433,3.4881,3.4374,3.3822,3.3269,3.3111,3.3111,3.3111,3.3111,3.3111,3.3111,3.2667,3.224,3.2365,3.1612,3.0783,3.0783,3.0382,3.0055,3.0357,3.0432,3.0306,2.988,2.9804,2.9804,2.9804,2.9804,2.9804,2.9804,2.9804,2.9804,2.9804,2.9804,2.9804,2.9804,2.9804,2.9804,2.9804,2.9804,2.9804,2.9804,2.9804,2.9804,2.9804,2.9377,2.9063,2.9063,2.8699,2.8473,2.8473,2.8348,2.8273,2.8273,2.8273,2.8499,2.8888,2.9013,2.9352,4.7146,4.7158,4.5955,4.3105,4.0583,3.7728,3.3701,3.1836,3.0507,2.8815,2.946,3.0572,3.1483,3.3201,3.5282,3.7692,3.8617,3.9973,4.2735,4.3639,4.4819,4.6892,4.7305,4.7732,4.8686,4.8335,4.7807,4.7179,4.625,4.5472,4.4895,4.4669,4.3564,4.1351,4.1225,4.0752,3.9697,3.9697,3.9697,3.9697,3.9697,3.9371,3.8768,3.8241,3.7688,3.7086,3.6631,3.6405,3.6405,3.6405,3.6405,3.6405,3.6405,3.6031,3.5433,3.4881,3.4374,3.3822,3.3269,3.3111,3.3111,3.3111,3.3111,3.3111,3.3111,3.2667,3.2315,3.2842,3.219,3.1311,3.1311,3.0934,3.0432,2.998,2.9854,2.9854,2.9804,2.9804,2.9804,2.9804,2.9804,2.9804,2.9804,2.9804,2.9804,2.9804,2.9804,2.9804,2.9804,2.9804,2.9804,2.9804,2.9804,2.9804,2.9804,2.9804,2.9804,2.9804,2.9754,2.9704,2.9704,2.9654,2.9628,2.9628,2.9126,2.8813,2.8813,2.8813,2.8838,2.8888,2.9478,2.9754,4.59,4.7228,4.7215,4.4001,4.1998,3.9481,3.4059,3.1876,3.0443,2.8691,2.8542,2.9384,3.1567,3.2071,3.3262,3.6522,3.6659,3.7211,3.9647,4.0752,4.2283,4.4819,4.6024,4.6954,4.7707,4.8184,4.7933,4.6728,4.5924,4.5095,4.4192,4.3489,4.2585,4.1326,4.0701,4.0149,3.9697,3.9697,3.9697,3.9697,3.9346,3.8894,3.8341,3.7764,3.7211,3.6732,3.6505,3.6405,3.6405,3.6405,3.6405,3.6405,3.6405,3.6031,3.5433,3.4881,3.4575,3.4324,3.3771,3.3571,3.3571,3.3571,3.3345,3.3111,3.3111,3.2918,3.2792,3.3061,3.2491,3.1888,3.1888,3.1486,3.0959,3.0407,3.0281,3.0206,2.9854,2.9804,2.9804,2.9804,2.9804,2.9804,2.9804,2.9804,2.9804,2.9804,2.9804,2.9804,2.9804,2.9804,2.9804,2.9804,2.9804,2.9804,2.9804,2.9804,2.9804,2.9804,2.9804,2.9804,2.9804,2.9804,2.9804,2.9804,2.9578,2.9453,2.9453,2.9453,2.9453,2.9453,2.9679,2.9804,4.3255,4.5374,4.6126,4.3085,4.146,3.928,3.384,3.1471,3.001,2.8593,2.7949,2.8405,3.081,3.1224,3.2068,3.4911,3.5248,3.5855,3.7739,3.8843,4.035,4.2785,4.4116,4.5246,4.6301,4.7255,4.7305,4.615,4.5397,4.4568,4.3614,4.2509,4.1731,4.13,4.0425,3.9848,3.9697,3.9697,3.9622,3.9446,3.9069,3.8467,3.7739,3.7362,3.6933,3.6405,3.6405,3.6405,3.6405,3.6405,3.6405,3.6405,3.6405,3.5931,3.5232,3.5006,3.4751,3.4424,3.4022,3.3897,3.3872,3.3696,3.3395,3.3111,3.3111,3.3111,3.3111,3.3111,3.2667,3.2215,3.2215,3.1813,3.126,3.0733,3.0733,3.0658,2.9955,3.0055,3.0231,3.0055,3.0156,3.0206,3.0055,3.0156,3.0156,2.9854,2.993,2.998,2.9804,2.9804,2.9804,2.9804,2.9804,2.9804,2.9804,2.9804,2.9804,2.9804,2.9804,2.9804,2.9804,2.9804,2.9804,2.9804,2.9804,2.9804,2.9804,2.9804,2.9804,2.9804,2.9804,2.9804,3.9456,4.118,4.1833,3.9894,3.8143,3.6039,3.293,3.0488,2.8789,2.8379,2.7949,2.7934,2.8699,3.0737,3.2415,3.2842,3.4858,3.6782,3.7839,3.8517,3.9496,4.1125,4.1326,4.2203,4.4443,4.5171,4.5522,4.5497,4.4443,4.3589,4.3011,4.1957,4.13,4.1275,4.0802,4.0249,3.9697,3.9697,3.9421,3.8919,3.8919,3.8341,3.7186,3.7186,3.6933,3.6405,3.6405,3.6405,3.6405,3.6405,3.6405,3.6405,3.6405,3.5705,3.4756,3.5282,3.4806,3.3897,3.3897,3.3897,3.3796,3.3269,3.3093,3.3111,3.3111,3.3111,3.3111,3.3111,3.2667,3.2215,3.2215,3.1813,3.126,3.0733,3.1009,3.1085,3.003,3.0633,3.121,3.0708,3.1009,3.121,3.0683,3.1035,3.1009,2.9955,3.0256,3.0407,2.9854,2.9804,2.9804,2.9804,2.9804,2.9804,2.9804,2.9804,2.9804,2.9804,2.9804,2.9804,2.9804,2.9804,2.9804,2.9804,2.9804,2.9804,2.9804,2.9804,2.9804,2.9804,2.9804,2.9804,3.5656,3.7703,3.8994,3.7264,3.6421,3.507,3.1656,3.0519,2.9809,2.8232,2.8204,2.9019,3.0824,3.1512,3.2643,3.5378,3.6121,3.6656,3.7337,3.8266,3.9496,4.11,4.3307,4.5171,4.625,4.5824,4.5321,4.492,4.3865,4.2986,4.2489,4.1379,4.0724,4.0724,4.0249,3.9697,3.9145,3.912,3.8843,3.8266,3.7889,3.7538,3.7161,3.6832,3.6581,3.6405,3.6405,3.6405,3.6405,3.6405,3.6405,3.638,3.5956,3.5533,3.5207,3.5006,3.4956,3.4931,3.46,3.4449,3.4374,3.3822,3.3395,3.3111,3.3111,3.3111,3.3111,3.3111,3.2943,3.2792,3.2792,3.239,3.1813,3.126,3.1009,3.0658,2.9955,3.0357,3.0809,3.0658,3.1035,3.1336,3.1185,3.1286,3.126,3.0934,3.0733,3.0557,3.0382,3.003,2.9804,2.9804,2.9804,2.9804,2.9804,2.9804,2.9804,2.9804,2.9804,2.9804,2.9804,2.9804,2.9804,2.9804,2.9804,2.9804,2.9804,2.9804,2.9804,2.9804,2.9804,2.9804,3.2176,3.4059,3.5419,3.4503,3.4168,3.342,3.1162,3.0587,3.0211,2.9099,2.8802,2.926,3.0715,3.144,3.2514,3.4774,3.5837,3.6606,3.7111,3.8215,3.9496,4.11,4.3915,4.5648,4.5573,4.5321,4.4844,4.4066,4.3162,4.2333,4.158,4.0877,4.0325,3.9898,3.9572,3.922,3.8919,3.8642,3.8266,3.7688,3.7337,3.7086,3.6908,3.6556,3.6405,3.6405,3.6405,3.6405,0.0,3.6132,3.6056,3.6006,3.5408,3.5056,3.4856,3.4731,3.4756,3.4831,3.4525,3.4399,3.4324,3.3771,3.3345,3.3111,3.3111,3.3111,3.3111,3.3111,3.3111,3.3111,3.3111,3.2817,3.239,3.1838,3.1612,3.1336,3.0557,3.1009,3.1486,3.126,3.1662,3.1964,3.1738,3.1888,3.1888,3.1461,3.111,3.0834,3.0633,3.0131,2.9804,2.9804,2.9804,2.9804,2.9804,2.9804,2.9804,2.9804,2.9804,2.9804,2.9804,2.9804,2.9804,2.9804,2.9804,2.9804,2.9804,2.9804,2.9804,2.9804,2.9804,2.9804,0.0,3.0463,3.1388,3.1839,3.1539,3.1212,3.1158,3.0644,0.0,3.0574,2.9835,2.9091,2.9112,3.0937,3.2347,3.2139,3.4559,3.6707,3.7161,3.8366,3.9697,4.1275,4.3382,4.4292,4.3162,4.3966,4.4116,4.3062,4.2439,4.1605,4.0576,4.045,3.9923,3.8944,3.8844,3.8793,3.8793,3.8216,3.7663,3.7136,3.7136,3.6908,3.6405,3.6405,3.6405,3.6405,3.6355,3.6355,3.6304,3.5705,3.5433,3.5382,3.4831,3.4349,3.3972,3.4474,3.4349,3.3897,3.3897,3.3897,3.3796,3.3244,3.3111,3.3111,3.3111,3.3111,3.3111,3.3111,3.3111,3.3111,3.3111,3.3111,3.2943,3.234,3.2616,3.2759,3.1637,3.224,3.2842,3.2315,3.2692,3.2893,3.2365,3.2717,3.2717,3.1662,3.1436,3.121,3.0733,3.0156,2.9804,2.9804,2.9804,2.9804,2.9804,2.9804,2.9804,2.9804,2.9804,2.9804,2.9804,2.9804,2.9804,2.9804,2.9804,2.9804,2.9804,2.9804,2.9804,2.9804,2.9804,2.9804,2.959,0.0,2.9414,2.9188,2.93,2.9337,0.0,3.0274,3.1205,3.0317,3.1033,3.1897,3.2337,3.3231,3.4359,3.5697,3.6848,3.7663,3.7789,3.9873,4.1886,4.3087,4.4819,4.5296,4.3765,4.384,4.3714,4.3037,4.1681,4.0802,4.0526,3.9722,3.9145,3.8919,3.8015,3.7588,3.7588,3.7437,3.7111,3.6606,3.6606,3.6531,3.6405,3.6405,3.6405,3.638,3.5906,3.5683,3.5658,3.5152,3.4881,3.4806,3.4299,3.4022,3.3922,3.4048,3.4022,3.3897,3.3897,3.3897,3.3796,3.3244,3.3111,3.3111,3.3111,3.3111,3.3111,3.3111,3.3111,3.3111,3.3111,3.3111,3.2943,3.234,3.2315,3.224,3.1537,3.1938,3.2365,3.224,3.2692,3.3043,3.2893,3.2993,3.3036,3.2717,3.1938,3.1336,3.1235,3.0382,2.9804,2.9804,2.9804,2.9804,2.9804,2.9804,2.9804,2.9804,2.9804,2.9804,2.9804,2.9804,2.9804,2.9804,2.9804,2.9804,2.9804,2.9804,2.9804,2.9804,2.9804,2.9804,2.95,2.9873,2.9968,2.978,3.0154,3.0545,3.03,3.1389,3.2257,3.1561,3.1918,3.2509,3.3031,3.3814,3.4725,3.5746,3.7071,3.8266,3.9044,4.0877,4.2715,4.4016,4.4995,4.5171,4.4267,4.3714,4.3087,4.2283,4.1153,4.03,3.9798,3.9195,3.8693,3.8165,3.7513,3.7186,3.7186,3.6983,3.6707,3.6405,3.6405,3.6405,3.6405,3.6405,3.6405,3.638,3.578,3.5508,3.5433,3.4675,3.4349,3.4299,3.3746,3.352,3.352,3.352,3.352,3.352,3.352,3.352,3.347,3.3169,3.3111,3.3111,3.3111,3.3111,3.3111,3.3111,3.3111,3.3111,3.3111,3.3111,3.2993,3.2692,3.2616,3.2516,3.224,3.239,3.2616,3.2616,3.2867,3.3111,3.3111,3.3111,3.3111,3.3111,3.2114,3.1386,3.1386,3.0683,3.008,2.9829,3.003,3.0055,2.9804,2.9804,2.9804,2.9804,2.9804,2.9804,2.9804,2.9804,2.9804,2.9804,2.9804,2.9804,2.9804,2.9804,2.9804,2.9804,2.9804,2.9804,2.9624,3.0918,3.1987,3.1566,3.2015,3.2557,3.2485,3.2812,3.3111,3.3111,3.2636,3.238,3.3002,3.4006,3.4775,3.4943,3.6826,3.8919,4.0752,4.1806,4.2936,4.4342,4.4644,4.4593,4.4166,4.3363,4.2409,4.125,4.0626,3.9848,3.8969,3.8768,3.8215,3.7211,3.7111,3.7061,3.7061,3.6631,3.6405,3.6405,3.6405,3.6405,3.6405,3.6405,3.6355,3.6207,3.5655,3.5332,3.5182,3.4198,3.3771,3.3721,3.3269,3.3111,3.3111,3.3111,3.3111,3.3111,3.3111,3.3111,3.3111,3.3111,3.3111,3.3111,3.3111,3.3111,3.3111,3.3111,3.3111,3.3111,3.3111,3.3111,3.3111,3.3111,3.3111,3.3111,3.3111,3.3111,3.3111,3.3111,3.3111,3.3111,3.3111,3.3111,3.3111,3.3111,3.219,3.1512,3.1512,3.106,3.0557,3.008,3.0457,3.0557,3.008,3.003,3.0005,2.993,2.9854,2.9804,2.9804,2.9804,2.9804,2.9804,2.9804,2.9804,2.9804,2.9804,2.9804,2.9804,2.9804,2.9804,3.1247,3.3254,3.4277,3.1867,3.1729,3.2077,3.1556,3.2318,3.3111,3.3111,3.3364,3.3886,3.4881,3.565,3.642,3.7294,3.8592,4.0325,4.2936,4.3438,4.3639,4.389,4.4769,4.4443,4.2028,4.2108,4.1831,4.0727,3.9697,3.9044,3.8919,3.8014,3.7362,3.7186,3.6782,3.6531,3.6531,3.6455,3.6405,3.6405,3.6405,3.6405,3.6405,3.6405,3.6107,3.5583,3.5031,3.4575,3.4098,3.347,3.3194,3.3194,3.3119,3.3111,3.3111,3.3111,3.3111,3.3111,3.3111,3.3111,3.3111,3.3111,3.3111,3.3111,3.3111,3.3111,3.3111,3.3111,3.3111,3.3111,3.3111,3.3111,3.3111,3.3111,3.3111,3.3111,3.3111,3.3111,3.3111,3.3111,3.3111,3.3111,3.3111,3.3111,3.3111,3.3111,3.2516,3.2089,3.2089,3.1612,3.1235,3.116,3.121,3.1235,3.116,3.1135,3.0959,3.0507,3.0055,2.9804,2.9804,2.9804,2.9804,2.9804,2.9804,2.9804,2.9804,2.9804,2.9804,2.9804,2.9804,2.9804,2.9349,3.1318,3.2832,3.2661,3.378,3.4689,3.4149,3.4462,3.4821,3.4474,3.458,3.4981,3.583,3.6684,3.7914,3.9923,4.0729,4.1509,4.2735,4.2911,4.3011,4.3313,4.3539,4.3313,4.2333,4.1907,4.1254,4.0149,3.932,3.8642,3.799,3.7462,3.7036,3.6807,3.6531,3.6254,3.5931,3.5906,3.6081,3.6405,3.6405,3.6405,3.6405,3.6056,3.578,3.5458,3.465,3.4123,3.3847,3.3294,3.3111,3.3111,3.3111,3.3111,3.3111,3.3111,3.3111,3.3111,3.3111,3.3111,3.3111,3.3111,3.3111,3.3111,3.3111,3.3111,3.3111,3.3111,3.3111,3.3111,3.3111,3.3111,3.3111,3.3111,3.3111,3.3111,3.3111,3.3111,3.3111,3.3111,3.3111,3.3111,3.3111,3.3111,3.3111,3.3111,3.2591,3.2215,3.2215,3.1989,3.1712,3.1411,3.1662,3.1712,3.1411,3.1135,3.0859,3.0633,3.0105,2.9804,2.9804,2.9804,2.9804,2.9804,2.9804,2.9804,2.9804,2.9804,2.9804,2.9804,2.9804,2.9804,2.7789,2.9494,3.1235,3.3208,3.5077,3.6483,3.6732,3.6458,3.6207,3.6307,3.606,3.6107,3.6681,3.7638,3.9145,4.1404,4.2037,4.2313,4.2564,4.259,4.2766,4.3112,4.274,4.2464,4.2585,4.1605,4.0551,3.9572,3.8868,3.809,3.7236,3.7061,3.6832,3.643,3.6279,3.6031,3.5683,3.5433,3.5629,3.6182,3.6182,3.6279,3.638,3.5805,3.5433,3.5257,3.4324,3.3822,3.3671,3.3244,3.3111,3.3111,3.3111,3.3111,3.3111,3.3111,3.3111,3.3111,3.3111,3.3111,3.3111,3.3111,3.3111,3.3111,3.3111,3.3111,3.3111,3.3111,3.3111,3.3111,3.3111,3.3111,3.3111,3.3111,3.3111,3.3111,3.3111,3.3111,3.3111,3.3111,3.3111,3.3111,3.3111,3.3111,3.3111,3.3111,3.2692,3.2416,3.2416,3.2416,3.2265,3.1838,3.2164,3.224,3.1813,3.1185,3.0809,3.0809,3.0156,2.9804,2.9804,2.9804,2.9804,2.9804,2.9804,2.9804,2.9804,2.9804,2.9804,2.9804,2.9804,2.9804,2.8853,3.028,3.1621,3.2835,3.3646,3.4801,3.7312,3.6709,3.6135,3.8216,3.7789,3.7236,3.7789,3.8818,3.9798,4.0526,4.148,4.2564,4.3539,4.3689,4.3689,4.374,4.3263,4.2534,4.1501,4.045,3.9572,3.8969,3.7914,3.7262,3.7186,3.6757,3.6455,3.6405,3.5881,3.583,3.6355,3.5303,3.5006,3.5558,3.5558,3.5881,3.638,3.5805,3.5232,3.4751,3.4148,3.3621,3.3144,3.3136,3.3111,3.3111,3.3111,3.3111,3.3111,3.3111,3.3111,3.3111,3.3111,3.3111,3.3111,3.3111,3.3111,3.3111,3.3111,3.3111,3.3111,3.3111,3.3111,3.3111,3.3111,3.3111,3.3111,3.3111,3.3111,3.3111,3.3111,3.3111,3.3111,3.3111,3.3111,3.3111,3.3111,3.3111,3.3111,3.3111,3.3043,3.3061,3.3061,3.3061,3.2993,3.3011,3.2993,3.2993,3.3011,3.1964,3.1336,3.1336,3.0357,2.9804,2.9804,2.9804,2.9804,2.9804,2.9804,2.9804,2.9804,2.9804,2.9804,2.9804,2.9804,2.9804,2.7062,2.8963,3.0822,3.2655,3.3746,3.4951,3.7036,3.7814,3.8366,3.922,3.9597,3.9622,3.9145,3.9973,4.0724,4.0949,4.2233,4.3087,4.2811,4.3062,4.3037,4.2359,4.2082,4.1656,4.0902,4.045,3.9697,3.8417,3.7939,3.7387,3.6757,3.6531,3.6405,3.6405,3.583,3.5433,3.5353,3.46,3.4324,3.4525,3.5182,3.5608,3.583,3.5232,3.4726,3.4173,3.3621,3.3269,3.3111,3.3111,3.3111,3.3111,3.3111,3.3111,3.3111,3.3111,3.3111,3.3111,3.3111,3.3111,3.3111,3.3111,3.3111,3.3111,3.3111,3.3111,3.3111,3.3111,3.3111,3.3111,3.3111,3.3111,3.3111,3.3111,3.3111,3.3111,3.3111,3.3111,3.3111,3.3111,3.3345,3.3596,3.3596,3.3596,3.3596,3.3596,3.3294,3.3111,3.3111,3.3111,3.3111,3.3111,3.3111,3.2943,3.2566,3.1838,3.1386,3.1386,3.0382,2.9804,2.9804,2.9804,2.9804,2.9804,2.9804,2.9804,2.9804,2.9804,2.9804,2.9804,2.9804,2.9804,2.6298,2.7935,2.9593,3.2179,3.3495,3.4726,3.6734,3.8216,3.9446,4.0501,4.0777,4.0601,3.9848,4.0174,4.0626,4.0802,4.2057,4.276,4.2007,4.2233,4.2183,4.1376,4.1125,4.0852,4.03,3.9923,3.917,3.7839,3.7588,3.7161,3.6455,3.6207,3.6107,3.6107,3.5403,3.4881,3.468,3.3997,3.3822,3.4173,3.4751,3.5082,3.5232,3.468,3.4248,3.3872,3.3319,3.3111,3.3111,3.3111,3.3111,3.3111,3.3111,3.3111,3.3111,3.3111,3.3111,3.3111,3.3111,3.3111,3.3111,3.3111,3.3111,3.3111,3.3111,3.3111,3.3111,3.3111,3.3111,3.3111,3.3111,3.3111,3.3111,3.3111,3.3111,3.3111,3.3111,3.3111,3.3111,3.3111,3.3395,3.3696,3.3872,3.3897,3.3897,3.3897,3.3571,3.3269,3.3093,3.3111,3.3111,3.3111,3.3111,3.2918,3.2516,3.1964,3.1662,3.1662,3.0809,3.0231,3.0055,2.988,2.9804,2.9804,2.9804,2.9804,2.9804,2.9804,2.9804,2.9804,2.9804,2.9804,2.7261,2.7516,2.7957,3.1371,3.2667,3.3822,3.6558,3.7613,3.8944,4.2283,4.1229,3.9697,3.9697,3.9245,3.9095,3.9597,4.0601,4.1275,4.1275,4.1275,4.1275,4.1275,4.0774,4.03,3.9747,3.8668,3.7789,3.7236,3.6732,3.6405,3.6405,3.583,3.5508,3.5483,3.4474,3.4173,3.47,3.3621,3.3621,3.47,3.4148,3.4173,3.4655,3.4148,3.3897,3.3847,3.3319,3.3111,3.3111,3.3111,3.3111,3.3111,3.3111,3.3111,3.3111,3.3111,3.3111,3.3111,3.3111,3.3111,3.3111,3.3111,3.3111,3.3111,3.3111,3.3111,3.3111,3.3111,3.3111,3.3111,3.3111,3.3111,3.3111,3.3111,3.3111,3.3111,3.3111,3.3111,3.3111,3.3136,3.3136,3.3269,3.3822,3.3897,3.3897,3.3897,3.3897,3.3696,3.3144,3.3111,3.3111,3.3111,3.3111,3.3111,3.3111,3.2541,3.2215,3.2215,3.1687,3.116,3.0633,3.008,2.9804,2.9804,2.9804,2.9804,2.9804,2.9804,2.9804,2.9804,2.9804,2.9804,2.6576,2.8199,3.0067,3.2276,3.3822,3.5328,3.7312,3.8191,3.922,4.1379,4.0701,3.9697,3.9697,3.9572,3.9371,3.9145,4.0049,4.0626,4.0249,4.0526,4.0626,4.0224,3.9697,3.9295,3.912,3.8442,3.7789,3.7236,3.7036,3.6609,3.583,3.5583,3.5332,3.4931,3.4274,3.3972,3.4148,3.3445,3.3244,3.3571,3.3395,3.3621,3.4148,3.3972,3.3696,3.3319,3.3144,3.3111,3.3111,3.3111,3.3111,3.3111,3.3111,3.3111,3.3111,3.3111,3.3111,3.3111,3.3111,3.3111,3.3111,3.3111,3.3111,3.3111,3.3111,3.3111,3.3111,3.3111,3.3111,3.3111,3.3111,3.3111,3.3111,3.3111,3.3111,3.3111,3.3111,3.3111,3.3194,3.3571,3.3972,3.4299,3.4449,3.4474,3.4349,3.3947,3.3571,3.3269,3.3093,3.3111,3.3111,3.3111,3.3111,3.3111,3.3111,3.2541,3.239,3.2792,3.1913,3.116,3.0633,3.0457,3.0181,2.9804,2.9804,2.9804,2.9804,2.9804,2.9804,2.9804,2.9804,2.9804,2.6834,2.8796,3.1096,3.3457,3.4977,3.6307,3.7965,3.8969,3.9873,4.105,4.045,3.9772,3.9973,3.9672,3.932,3.922,3.9747,4.0074,3.9747,3.9798,3.9747,3.9396,3.8868,3.8442,3.8265,3.7889,3.7437,3.6933,3.6659,3.6232,3.5533,3.5082,3.4751,3.4399,3.3847,3.3571,3.3571,3.3018,3.2742,3.2742,3.2742,3.2792,3.2918,3.337,3.3395,3.3111,3.2842,3.2867,3.3068,3.2817,3.2867,3.3111,3.3111,3.3111,3.3111,3.3111,3.3111,3.3111,3.3111,3.3111,3.3111,3.3111,3.3111,3.3111,3.3111,3.3111,3.3111,3.3111,3.3111,3.3111,3.3111,3.3111,3.3111,3.3111,3.3111,3.3111,3.3111,3.3244,3.3495,3.3847,3.4349,3.4801,3.4956,3.5006,3.4881,3.4555,3.3897,3.3319,3.3136,3.3111,3.3111,3.3111,3.3111,3.3111,3.3111,3.2767,3.2692,3.3086,3.2483,3.1712,3.0959,3.0733,3.0357,2.9804,2.9804,2.9804,2.9804,2.9804,2.9804,2.9804,2.9804,2.9804,2.7543,2.9147,3.1153,3.4583,3.6031,3.7033,3.8567,3.9647,4.0501,4.0899,4.0325,3.9823,4.0224,3.9521,3.9019,3.9471,3.9546,3.9546,3.9546,3.912,3.8844,3.8844,3.8291,3.7739,3.7236,3.7086,3.6835,3.638,3.578,3.5408,3.5357,3.4449,3.3872,3.3822,3.3294,3.2993,3.2993,3.2416,3.2139,3.2139,3.2139,3.1863,3.1436,3.2566,3.3043,3.2968,3.239,3.2441,3.2893,3.2365,3.2441,3.296,3.296,3.2943,3.2993,3.2993,3.3043,3.3111,3.3111,3.3111,3.3111,3.3111,3.3154,3.324,3.324,3.324,3.324,3.324,3.3197,3.3111,3.3111,3.3111,3.3111,3.3111,3.3111,3.3111,3.3111,3.352,3.3922,3.3972,3.4374,3.4831,3.5332,3.5433,3.5408,3.5357,3.45,3.3646,3.3144,3.3197,3.324,3.324,3.324,3.324,3.324,3.3154,3.3111,3.3111,3.3111,3.2591,3.1512,3.0959,3.0407,2.9804,2.9804,2.9804,2.9804,2.9804,2.9804,2.9804,2.9804,2.9804,2.7078,2.868,3.0711,3.4055,3.6634,3.8466,3.8844,3.9095,3.912,3.8793,3.9245,3.9446,3.8693,3.8718,3.8768,3.8417,3.8366,3.8366,3.8366,3.8266,3.8191,3.8191,3.7688,3.7312,3.7186,3.6408,3.5809,3.5683,3.5157,3.468,3.4274,3.4022,3.3696,3.3269,3.2692,3.239,3.239,3.1838,3.1562,3.1562,3.1562,3.1512,3.1436,3.2566,3.2817,3.2365,3.1813,3.1637,3.1738,3.1612,3.1637,3.1763,3.1763,3.2014,3.239,3.239,3.2692,3.3111,3.3111,3.3111,3.3111,3.3111,3.3683,3.4345,3.4345,3.4345,3.4345,3.4345,3.3768,3.3111,3.3111,3.3111,3.3111,3.3111,3.3111,3.3111,3.3111,3.352,3.4022,3.4449,3.465,3.4731,3.4831,3.4856,3.4705,3.4324,3.3696,3.3219,3.3093,3.3827,3.4345,3.4345,3.4345,3.4345,3.4345,3.3598,3.3111,3.3111,3.3111,3.2767,3.2064,3.1512,3.0783,2.9804,2.9804,2.9804,2.9804,2.9804,2.9804,2.9804,2.9804,2.9804,2.6238,2.8297,3.1019,3.4603,3.6985,3.8467,3.8467,3.8467,3.8291,3.7739,3.8291,3.8693,3.8115,3.8736,3.9009,3.8164,3.8481,3.8677,3.8088,3.7789,3.7613,3.7613,3.6885,3.6408,3.6408,3.5608,3.5107,3.5107,3.465,3.4198,3.3922,3.3646,3.3244,3.2692,3.2365,3.2089,3.1813,3.1286,3.1009,3.1009,3.1009,3.116,3.1411,3.1989,3.2089,3.1788,3.126,3.116,3.1361,3.111,3.116,3.1386,3.1386,3.1562,3.1863,3.2114,3.2416,3.2692,3.2993,3.3111,3.3197,3.3725,3.422,3.4774,3.5278,3.544,3.544,3.544,3.465,3.3869,3.3869,3.3471,3.3111,3.3111,3.3111,3.3111,3.3111,3.352,3.3972,3.4274,3.4705,3.4981,3.4731,3.468,3.4525,3.3972,3.3646,3.337,3.3119,3.4037,3.4511,3.3995,3.4387,3.4511,3.3995,3.3428,3.3111,3.3111,3.3111,3.2817,3.224,3.1938,3.1411,3.0583,3.0306,3.0181,3.0181,2.993,2.9804,2.9804,2.9804,2.9804,2.5397,2.8092,3.1597,3.509,3.6864,3.7739,3.7839,3.7864,3.7713,3.7161,3.7563,3.7939,3.7764,3.8707,3.9159,3.8176,3.8748,3.9102,3.8393,3.7602,3.7107,3.7219,3.6175,3.5458,3.5357,3.4856,3.4575,3.4575,3.4073,3.3746,3.3746,3.3219,3.2717,3.224,3.2039,3.1712,3.126,3.0733,3.0482,3.0482,3.0482,3.0708,3.111,3.111,3.116,3.1235,3.0708,3.0708,3.1085,3.0658,3.0733,3.111,3.111,3.116,3.1311,3.1863,3.2064,3.2164,3.2842,3.3164,3.3386,3.4402,3.4938,3.5386,3.6212,3.6487,3.6448,3.6251,3.548,3.4677,3.447,3.3742,3.3111,3.3111,3.3111,3.3111,3.3111,3.352,3.3897,3.3897,3.465,3.5082,3.465,3.45,3.4324,3.3947,3.3822,3.3596,3.3187,3.4178,3.4526,3.3471,3.4345,3.4553,3.3471,3.3197,3.3111,3.3111,3.3111,3.2867,3.239,3.2365,3.2139,3.1687,3.106,3.0813,3.1012,3.036,3.0172,3.0367,3.0058,2.998,2.518,2.8384,3.1779,3.3739,3.5421,3.6757,3.7186,3.7287,3.7136,3.6631,3.7287,3.7713,3.6807,3.7474,3.8215,3.807,3.7742,3.7944,3.9435,3.786,3.668,3.7239,3.6223,3.5307,3.4831,3.4324,3.3997,3.3997,3.3495,3.3237,3.3237,3.2641,3.229,3.2215,3.1311,3.0783,3.0708,3.0181,2.9905,2.9905,2.9905,2.993,3.0005,3.0005,3.0256,3.0683,3.0131,2.9955,3.0005,2.993,2.9955,3.0005,3.0005,3.0306,3.0783,3.1311,3.1486,3.1637,3.2717,3.3392,3.3802,3.4492,3.5922,3.7396,3.7548,3.7587,3.7396,3.6448,3.548,3.4511,3.3556,3.3197,3.3111,3.3111,3.3111,3.3111,3.3111,3.352,3.3897,3.3897,3.4022,3.4098,3.4022,3.3621,3.3445,3.3847,3.3495,3.3169,3.3136,3.4788,3.5614,3.4594,3.54,3.5601,3.4594,3.3641,3.3111,3.3111,3.3111,3.3043,3.2968,3.2968,3.296,3.2842,3.1813,3.1745,3.2673,3.1669,3.1684,3.2541,3.112,3.0758,2.5136,2.7085,2.9284,3.1845,3.3274,3.4342,3.554,3.5805,3.573,3.5504,3.583,3.6107,3.5931,3.7344,3.8192,3.7254,3.7892,3.8574,3.8723,3.7876,3.714,3.6788,3.6017,3.5058,3.3891,3.3294,3.2817,3.2516,3.2265,3.2139,3.2139,3.1888,3.1612,3.1336,3.0859,3.0457,3.0156,2.9905,2.9804,2.9804,2.9804,2.9804,2.9804,2.9804,2.993,3.0131,2.9905,2.9804,2.9804,2.9804,2.9804,2.9804,2.9804,2.993,3.0231,3.0758,3.0959,3.106,3.1863,3.2472,3.3142,3.4634,3.5924,3.7137,3.8331,3.8256,3.7701,3.7214,3.5922,3.4594,3.4121,3.3556,3.3111,3.3111,3.3111,3.3111,3.3111,3.3269,3.352,3.3847,3.3646,3.3545,3.3847,3.3445,3.3169,3.3395,3.3244,3.3111,3.3111,3.4402,3.5197,3.4759,3.5102,3.54,3.5561,3.4011,3.3368,3.3953,3.3995,3.3725,3.3111,3.3683,3.3725,3.3111,3.2864,3.2688,3.2551,3.2404,3.2249,3.2089,3.1377,3.116,2.462,2.5604,2.6907,2.9483,3.0956,3.2199,3.374,3.4275,3.455,3.47,3.468,3.4731,3.4856,3.684,3.8141,3.7277,3.8376,3.9236,3.8855,3.8062,3.7253,3.6609,3.5568,3.4366,3.2978,3.234,3.1838,3.1411,3.1386,3.1386,3.1386,3.126,3.1009,3.0633,3.0482,3.0206,2.9804,2.9804,2.9804,2.9804,2.9804,2.9804,2.9804,2.9804,2.9804,2.9804,2.9804,2.9804,2.9804,2.9804,2.9804,2.9804,2.9804,2.9804,2.9854,3.0407,3.0532,3.0507,3.116,3.2006,3.3071,3.4835,3.613,3.7329,3.8907,3.8833,3.8144,3.7881,3.6783,3.5575,3.4868,3.4224,3.3606,3.3179,3.3194,3.3244,3.3119,3.3111,3.3194,3.3621,3.3345,3.3219,3.3621,3.3345,3.3111,3.3111,3.3111,3.3111,3.3111,3.4037,3.4594,3.4304,3.4774,3.5278,3.5774,3.4428,3.3827,3.4677,3.4428,3.3911,3.3111,3.3869,3.3911,3.3111,3.3721,3.3651,3.281,3.3233,3.3024,3.224,3.2087,3.1949,2.3208,2.4405,2.5846,2.6576,2.874,3.0993,3.2067,3.3187,3.4098,3.4625,3.468,3.4399,3.3395,3.5425,3.7671,3.9162,3.8971,3.9228,4.0999,3.8434,3.6567,3.7098,3.4821,3.2978,3.2315,3.1763,3.1411,3.1386,3.1386,3.1386,3.1386,3.0934,3.0633,3.0608,3.0105,2.9829,2.9804,2.9804,2.9804,2.9804,2.9804,2.9804,2.9804,2.9804,2.9804,2.9804,2.9804,2.9804,2.9804,2.9804,2.9804,2.9804,2.9804,2.9804,2.9854,3.0407,3.0281,2.998,3.1035,3.2738,3.4582,3.52,3.7137,3.9265,3.9373,3.9337,3.909,3.8069,3.817,3.798,3.5358,3.5073,3.5067,3.347,3.347,3.3721,3.3194,3.3111,3.3136,3.3162,3.3136,3.3136,3.3162,3.3136,3.3111,3.3111,3.3111,3.3111,3.3111,3.4037,3.4304,3.3283,3.4952,3.5734,3.4856,3.4677,3.4635,3.4718,3.3768,3.3154,3.3111,3.3154,3.3154,3.3111,3.4111,3.4624,3.4583,3.4598,3.4571,3.453,3.395,3.3431,2.3101,2.3529,2.4317,2.5627,2.6671,2.7981,3.017,3.0965,3.151,3.2414,3.2591,3.2651,3.2987,3.5278,3.7038,3.6917,3.8158,3.921,3.9433,3.8427,3.7082,3.5582,3.4531,3.3185,3.1357,3.1009,3.0733,3.0382,3.0357,3.0357,3.0357,3.0181,3.008,3.008,2.9905,2.9804,2.9804,2.9804,2.9804,2.9804,2.9804,2.9804,2.9804,2.9804,2.9804,2.9804,2.9804,2.9804,2.9804,2.9804,2.9804,2.9804,2.9804,2.9804,2.9804,3.0005,2.9955,2.9854,3.0231,3.111,3.2331,3.4279,3.5761,3.7146,3.8898,3.8907,3.8294,3.7919,3.7813,3.7378,3.5675,3.5696,3.5834,3.4458,3.4022,3.3847,3.3646,3.3319,3.3111,3.3111,3.3111,3.3111,3.3111,3.3111,3.3194,3.3545,3.3596,3.3596,3.3596,3.3918,3.4153,3.4105,3.4774,3.5641,3.6593,3.6081,3.5654,3.5654,3.5319,3.4485,3.3154,3.3742,3.3784,3.3111,3.3471,3.3683,3.3683,3.4345,3.4345,3.3683,3.3453,3.3267,2.3101,2.3101,2.3378,2.4492,2.5032,2.5873,2.7901,2.8676,2.9337,3.0572,3.0869,3.1148,3.2056,3.4153,3.577,3.5899,3.7711,3.8901,3.8452,3.808,3.7142,3.5133,3.4111,3.2921,3.1214,3.0629,3.0181,2.9829,2.9804,2.9804,2.9804,2.9804,2.9804,2.9804,2.9804,2.9804,2.9804,2.9804,2.9804,2.9804,2.9804,2.9804,2.9804,2.9804,2.9804,2.9804,2.9804,2.9804,2.9818,3.0139,3.0292,3.0292,3.0292,3.0292,3.0254,2.9934,2.9804,2.9804,2.9804,3.0404,3.1526,3.3837,3.5199,3.6382,3.87,3.8907,3.8389,3.8593,3.863,3.8263,3.6712,3.6102,3.5755,3.5116,3.4414,3.3985,3.4354,3.3748,3.3111,3.3111,3.3262,3.3294,3.3119,3.3395,3.3696,3.3872,3.3897,3.3897,3.3897,3.4071,3.4323,3.4662,3.5305,3.6279,3.7663,3.7137,3.6565,3.6251,3.5894,3.4938,3.3154,3.3784,3.3827,3.3111,3.3111,3.3111,3.3111,3.4204,3.4163,3.3111,3.3471,3.353,0.0,0.0,0.0,2.3101,2.393,2.4913,2.5441,2.6453,2.7716,2.9366,2.9672,2.9863,3.0418,3.1836,3.3769,3.6425,3.7664,3.8327,3.8362,3.7455,3.6576,3.5964,3.3604,3.2049,3.1973,3.0676,2.9818,2.9804,2.9804,2.9804,2.9804,2.9804,2.9804,2.9804,2.9804,2.9804,2.9804,2.9804,2.9804,2.9804,2.9804,2.9804,2.9804,2.9804,2.9804,2.9804,2.9804,2.9804,2.9856,3.0782,3.1204,3.1204,3.1204,3.1204,3.1082,3.0139,2.9804,2.9804,2.9804,3.0868,3.2437,3.4091,3.5676,3.7192,3.8875,3.9337,3.9486,4.018,4.0876,4.0897,3.8626,3.6462,3.4933,3.5391,3.4744,3.4266,3.525,3.4281,3.3197,3.3154,3.3539,3.374,3.328,3.4016,3.457,3.4042,3.3966,3.401,3.3985,3.4442,3.4759,3.4759,3.6554,3.7805,3.7805,3.7843,3.7396,3.629,3.5278,3.4246,3.3179,3.3093,3.3119,3.3162,3.3162,3.3162,3.3162,3.4189,3.4147,3.3136,3.4189,3.4416,2.3101,0.0,0.0,0.0,0.0,0.0,2.4784,2.5275,2.5869,2.7156,2.7428,2.7713,2.8627,2.9706,3.1138,3.3198,3.5277,3.6881,3.757,3.7045,3.6251,3.5357,3.4157,3.2913,3.1554,3.1075,3.0533,2.9856,2.9804,2.9804,2.9804,2.9804,2.9804,2.9804,2.9804,2.9804,2.9804,2.9804,2.9804,2.9804,2.9804,2.9804,2.9804,2.9804,2.9804,2.9804,2.9804,2.9804,2.9856,3.0782,3.1204,3.1204,3.1204,3.1204,3.1082,3.0139,2.9804,2.9854,3.0256,3.068,3.1499,3.4279,3.4958,3.5128,3.7528,3.8219,3.8364,3.9042,4.0288,4.1104,3.9718,3.8585,3.734,3.5846,3.5896,3.5858,3.4589,3.4863,3.5116,3.4387,3.4392,3.4533,3.4793,3.5063,3.5349,3.5609,3.5661,3.5808,3.6136,3.6361,3.6293,3.5829,3.6982,3.7805,3.7805,3.8509,3.8182,3.633,3.5934,3.5139,3.3733,3.3671,3.3847,3.4248,3.4274,3.4274,3.4274,3.4154,3.3951,3.3696,3.4356,3.4635,2.3101,2.3101,2.3101,2.3101,0.0,0.0,2.393,2.4082,2.4425,2.5546,2.5797,2.613,2.7238,2.8235,2.9369,3.0842,3.3065,3.5103,3.6628,3.6629,3.628,3.5678,3.4656,3.3567,3.2451,3.1683,3.097,3.0419,3.0024,2.9804,2.9804,2.9804,2.9804,2.9804,2.9804,2.9804,2.9804,2.9804,2.9804,2.9804,2.9804,2.9804,2.9804,2.9804,3.0011,3.0343,2.9972,3.0254,3.1033,3.1536,3.1792,3.1829,3.2509,3.2409,3.1709,3.1057,3.0381,2.988,3.0432,3.0608,3.1063,3.3845,3.4588,3.4893,3.712,3.8107,3.8647,3.9622,4.0441,4.09,4.0079,3.8863,3.7558,3.6674,3.6093,3.5694,3.5538,3.5749,3.5696,3.4868,3.4861,3.5292,3.607,3.6002,3.6125,3.6914,3.6795,3.6737,3.7084,3.7251,3.7288,3.6894,3.7814,3.8472,3.8472,3.9017,3.8479,3.633,3.646,3.5748,3.396,3.4123,3.4399,3.468,3.468,3.4781,3.5031,3.45,3.4248,3.4248,3.4575,3.4806,2.343,2.3387,2.3299,2.3299,2.3169,0.0,2.3101,2.3101,2.3387,2.4425,2.4617,2.4957,2.6088,2.7075,2.806,2.8987,3.0913,3.3123,3.5554,3.6173,3.6417,3.6477,3.5121,3.4143,3.4013,3.2486,3.1426,3.1204,3.0305,2.9804,2.9804,2.9804,2.9804,2.9804,2.9804,2.9804,2.9804,2.9804,2.9804,2.9804,2.9804,2.9804,2.9804,2.9804,3.0254,3.1007,3.0266,3.0921,3.2451,3.2664,3.2735,3.2897,3.4304,3.4044,3.2795,3.2343,3.1331,3.0211,3.0647,3.0783,3.1095,3.3195,3.4538,3.5626,3.7148,3.8368,3.9503,4.0868,4.1048,4.0643,3.9967,3.8214,3.6787,3.7533,3.5981,3.4956,3.7247,3.6884,3.5948,3.5248,3.558,3.6273,3.7302,3.7039,3.6983,3.7993,3.7645,3.7285,3.735,3.7737,3.7994,3.7994,3.8833,3.9373,3.9373,3.9301,3.8397,3.6413,3.6686,3.6079,3.4161,3.455,3.4851,3.4901,3.4901,3.5152,3.5583,3.5031,3.4806,3.4901,3.4901,3.5082,2.561,2.5168,2.4447,2.4447,2.38,0.0,2.3101,2.3101,2.3188,2.3387,2.343,2.38,2.4914,2.5294,2.5817,2.693,2.8778,3.131,3.4739,3.5461,3.5908,3.6417,3.5714,3.4872,3.4075,3.3671,3.2806,3.1315,3.0305,2.9804,2.9804,2.9804,2.9804,2.9804,2.9804,2.9804,2.9804,2.9804,2.9804,2.9804,2.9804,2.9804,2.9804,2.9804,2.9895,3.0101,3.0696,3.1156,3.1609,3.3087,3.3739,3.3768,3.4088,3.4341,3.4335,3.2664,3.2186,3.2306,3.1975,3.1913,3.2155,3.3953,3.4656,3.5022,3.6184,3.7252,3.8468,4.0115,4.133,4.1696,4.0047,3.8956,3.8133,3.7402,3.7147,3.7097,3.7302,3.8445,3.9188,3.8204,3.853,3.8996,3.9116,3.9041,3.8875,3.8631,3.8432,3.8486,3.8921,3.9032,3.909,3.909,3.9265,3.9373,3.9373,3.862,3.7777,3.697,3.6236,3.5626,3.5223,3.5282,3.5579,3.6078,3.6078,3.6128,3.6207,3.5608,3.5604,3.6078,3.6078,3.5855,2.6426,2.6088,2.5504,2.4957,2.4382,0.0,0.0,2.3101,2.3101,2.3101,2.2925,2.2985,2.3564,2.4136,2.4702,2.5241,2.7242,2.954,3.1924,3.329,3.4472,3.5619,3.5154,3.4773,3.4773,3.4279,3.3192,3.1352,3.0305,2.9804,2.9804,2.9804,2.9804,2.9804,2.9804,2.9804,2.9804,2.9804,2.9804,2.9804,2.9804,2.9804,2.9804,2.9804,3.0088,3.0507,3.1007,3.1756,3.2664,3.3602,3.4279,3.4802,3.5125,3.4942,3.4427,3.3756,3.3067,3.2462,3.2199,3.2123,3.2349,3.3187,3.4027,3.4897,3.5894,3.7557,3.929,4.0159,4.0876,4.1181,4.0224,3.914,3.8304,3.8265,3.7624,3.7222,3.8103,3.8984,3.9589,3.9589,4.0156,4.0479,4.0079,3.9267,3.8881,3.9475,3.922,3.9084,3.9397,3.9373,3.9373,3.9373,3.9373,3.9192,3.8657,3.8397,3.772,3.6373,3.6306,3.6067,3.5529,3.5805,3.6081,3.6405,3.6405,3.6405,3.6405,3.6081,3.6081,3.6405,3.6405,3.6254,2.7351,2.7044,2.6584,2.5672,2.5126,2.4532,0.0,0.0,0.0,2.3101,2.2828,2.2617,2.2519,2.3301,2.395,2.3784,2.5747,2.7575,2.8373,3.0174,3.2228,3.4285,3.4054,3.4109,3.51,3.4312,3.3087,3.1573,3.0419,2.9804,2.9804,2.9804,2.9804,2.9804,2.9804,2.9804,2.9804,2.9804,2.9804,2.9804,2.9804,2.9804,2.9804,2.9804,3.0216,3.0932,3.1093,3.2164,3.3739,3.391,3.4576,3.5549,3.6088,3.5625,3.465,3.4823,3.3983,3.2744,3.2214,3.21,3.2215,3.2215,3.3462,3.5224,3.6448,3.8504,4.0367,4.0247,4.0307,4.0367,4.0247,3.9002,3.8069,3.9156,3.7927,3.7088,3.9128,3.9349,3.9332,4.0248,4.0816,4.1025,4.0487,3.9223,3.8727,4.0047,3.9768,3.9373,3.9373,3.9373,3.9301,3.909,3.909,3.8716,3.7758,3.7905,3.7423,3.5881,3.6454,3.6444,3.5705,3.6132,3.6405,3.6405,3.6405,3.6405,3.6405,3.6405,3.6405,3.6405,3.6405,3.6405,2.9908,2.9052,2.7884,2.7763,2.6232,2.4787,2.4617,0.0,2.3101,2.3101,0.0,2.2906,2.2578,0.0,0.0,2.2278,2.3825,2.5081,2.4839,2.6188,2.8606,3.2398,3.2826,3.3122,3.4075,3.3325,3.2664,3.2451,3.0809,2.9804,2.9804,2.9804,2.9804,2.9804,2.9804,2.9804,2.9804,2.9804,2.9804,2.9804,2.9804,2.9804,2.9804,2.9804,2.9856,3.0011,3.0846,3.1792,3.2806,3.3671,3.4576,3.5519,3.5579,3.6201,3.6788,3.5009,3.4958,3.5392,3.3008,3.2172,3.2215,3.2215,3.3945,3.6408,3.8405,3.9675,4.0277,3.9679,3.9948,4.0277,3.9679,3.8679,3.8069,3.9156,3.8509,3.8101,3.9906,4.0263,4.0248,4.0397,4.0457,4.0487,4.0397,4.0263,3.995,3.9553,3.9433,3.9373,3.9373,3.9373,3.9017,3.8069,3.7994,3.7777,3.7254,3.6387,3.6183,3.6867,3.616,3.5894,3.6304,3.638,3.6405,3.6405,3.6405,3.6405,3.6405,3.6405,3.6405,3.6405,3.6405,3.6405,3.0088,2.9866,2.934,2.8339,2.765,2.6755,2.5168,2.4425,2.3887,2.3256,0.0,0.0,0.0,0.0,0.0,0.0,2.3003,2.3795,2.3822,2.4782,2.6821,3.0401,3.0802,3.1429,3.3017,3.2343,3.1792,3.1792,3.057,2.9804,2.9804,2.9804,2.9804,2.9804,2.9804,2.9804,2.9804,2.9804,2.9804,2.9804,2.9804,2.9804,2.9804,2.9804,2.9804,2.9856,3.0809,3.1756,3.2692,3.4006,3.5166,3.6052,3.5839,3.5804,3.5875,3.5402,3.4785,3.4031,3.2593,3.1924,3.1912,3.2808,3.4527,3.6487,3.8032,3.9084,3.9768,3.9499,3.9619,3.9768,3.9463,3.9053,3.8833,3.9301,3.9053,3.8929,3.9659,3.9828,3.9828,3.9828,3.9828,3.9828,3.9828,3.9828,3.9738,3.9469,3.9373,3.9192,3.8546,3.8472,3.8069,3.6982,3.7175,3.7075,3.6248,3.6343,3.6366,3.6186,3.6063,3.6132,3.6405,3.6405,3.6405,3.6405,3.6405,3.6405,3.6405,3.6405,3.6405,3.6405,3.6405,3.6405,3.0131,3.0206,3.0084,2.8864,2.8635,2.8169,2.6155,2.5252,2.4595,2.3757,2.3106,0.0,0.0,0.0,2.25,2.1973,0.0,2.313,2.3207,2.3887,2.5376,2.8168,2.9082,3.0213,3.2055,3.1609,3.1204,3.1204,3.0305,2.9804,2.9804,2.9804,2.9804,2.9804,2.9804,2.9804,2.9804,2.9804,2.9804,2.9804,2.9804,2.9804,2.9804,2.9804,2.9804,2.9818,3.0533,3.1352,3.2326,3.3653,3.4753,3.5663,3.5705,3.526,3.4629,3.5124,3.4323,3.2949,3.2137,3.165,3.1706,3.3608,3.5125,3.6448,3.7814,3.8797,3.9373,3.9373,3.9373,3.9373,3.9373,3.9373,3.9373,3.9373,3.9373,3.9373,3.9373,3.9373,3.9373,3.9373,3.9373,3.9373,3.9373,3.9373,3.9433,3.9679,3.9245,3.8782,3.8149,3.7806,3.7197,3.61,3.6525,3.653,3.5566,3.6215,3.6425,3.5801,3.6132,3.6405,3.6405,3.6405,3.6405,3.6405,3.6405,3.6405,3.6405,3.6405,3.6405,3.6405,3.6405,3.6405,3.0583,3.0206,2.9804,2.974,2.891,2.8108,2.8004,2.6356,2.4787,2.4745,2.3867,2.2945,2.2578,2.2808,2.2808,2.2031,2.2598,0.0,0.0,2.2895,2.3854,2.569,2.8032,2.9974,3.113,3.1204,3.1204,3.1204,3.0305,2.9804,2.9804,2.9804,2.9804,2.9804,2.9804,2.9804,2.9804,2.9804,2.9804,2.9804,2.9804,2.9804,2.9804,2.9804,2.9804,2.9804,2.9818,3.0381,3.1294,3.1876,3.2654,3.3615,3.4858,3.4666,3.3753,3.3779,3.3753,3.3527,3.1985,3.1427,3.1828,3.4504,3.5742,3.6604,3.8694,3.9373,3.9373,3.9373,3.9373,3.9373,3.9373,3.9373,3.9373,3.9373,3.9373,3.9373,3.9373,3.9373,3.9373,3.9373,3.9373,3.9373,3.9373,3.9373,3.9649,4.0277,3.8956,3.8045,3.8688,3.7805,3.6716,3.5621,3.6023,3.6077,3.5521,3.5529,3.578,3.6355,3.6405,3.6405,3.6405,3.6405,3.6405,3.6405,3.6405,3.6405,3.6405,3.6405,3.6405,3.6405,3.6405,3.6405,3.008,3.0206,3.0256,2.988,2.9756,2.9469,2.8339,2.7498,2.6767,2.6088,2.4999,2.417,2.4069,2.3527,2.2906,2.2383,2.273,2.275,0.0,2.2031,2.2912,2.4547,2.6368,2.7956,2.9047,2.8842,2.9086,3.0165,2.9618,2.9377,2.9779,2.9804,2.9804,2.9804,2.9804,2.9804,2.9804,2.9804,2.9804,2.9804,2.9804,2.9804,2.9804,2.9804,2.9804,2.9804,2.9804,3.0305,3.1283,3.2261,3.3235,3.4185,3.5399,3.5263,3.4386,3.4386,3.3673,3.2587,3.1685,3.2077,3.3235,3.4886,3.6245,3.7548,3.898,3.9373,3.9373,3.9373,3.9373,3.9373,3.9373,3.9373,3.9373,3.9373,3.9373,3.9373,3.9373,3.9373,3.9373,3.9373,3.9373,3.9373,3.9373,3.9768,4.0157,4.0367,3.9613,3.8825,3.8343,3.7303,3.6188,3.5109,3.5443,3.5669,3.5529,3.5881,3.6157,3.6405,3.6405,3.6405,3.6405,3.6405,3.6405,3.6405,3.6405,3.6405,3.6405,3.6405,3.6405,3.6405,3.6782,3.6757,2.9804,3.0055,3.0231,2.988,3.0206,3.0259,2.8968,2.8531,2.8208,2.7515,2.599,2.4872,2.504,2.3988,2.3003,2.2773,2.2925,2.275,0.0,2.1934,2.248,2.3493,2.4933,2.6393,2.7703,2.768,2.811,2.9401,2.9327,2.9402,2.9779,2.9804,2.9804,2.9804,2.9804,2.9804,2.9804,2.9804,2.9804,2.9804,2.9804,2.9804,2.9804,2.9804,2.9804,2.9804,2.9804,3.0139,3.0773,3.1772,3.2633,3.3429,3.4179,3.4432,3.4386,3.4598,3.3897,3.2777,3.2823,3.3503,3.4576,3.5836,3.694,3.7994,3.9053,3.9373,3.9373,3.9373,3.9373,3.9373,3.9373,3.9373,3.9373,3.9373,3.9553,3.9768,3.9768,3.9948,4.0038,3.9798,3.9948,4.0038,3.9798,4.0516,4.0882,4.0199,3.9495,3.8764,3.7876,3.6726,3.5763,3.5047,3.5504,3.583,3.583,3.6157,3.6405,3.6405,3.6405,3.6405,3.6405,3.6405,3.6505,3.6707,3.6505,3.6505,3.6707,3.6505,3.6505,3.6707,3.6857,3.6857]}]]